[[{"header":{"parameterUnit":"m.s-1","parameterCategory":1,"la1":30.6,"la2":28.766,"lo1":-90.7593,"lo2":-88.6598,"dy":0.0162,"dx":0.0183,"nx":116,"ny":114,"refTime":"2023-05-04T12:00:00:Z","depth":0,"parameterNumber":2,"parameterNumberName":"U-component_of_WINDS"},"data":[0.0,0.0,0.0,0.0,0.0,0.0,0.0,0.0,0.0,0.0,0.0,0.0,0.0,0.0,0.0,0.0,0.0,0.0,0.0,0.0,0.0,0.0,0.0,0.0,0.0,0.0,0.0,0.0,0.0,0.0,0.0,0.0,0.0,0.0,0.0,0.0,0.0,0.0,0.0,0.0,0.0,0.0,0.0,0.0,0.0,0.0,0.0,0.0,0.0,0.0,0.0,0.0,0.0,0.0,0.0,0.0,0.0,0.0,0.0,0.0,0.0,0.0,0.0,0.0,0.0,0.0,0.0,0.0,0.0,0.0,0.0,0.0,0.0,0.0,0.0,0.0,0.0,0.0,0.0,0.0,0.0,0.0,0.0,0.0,0.0,0.0,0.0,0.0,0.0,0.0,0.0,0.0,0.0,0.0,0.0,0.0,0.0,0.0,0.0,0.0,0.0,0.0,0.0,0.0,0.0,0.0,0.0,0.0,0.0,0.0,0.0,0.0,0.0,0.0,0.0,0.0,0.0,0.0,0.0,0.0,0.0,0.0,0.0,0.0,0.0,0.0,0.0,0.0,0.0,0.0,0.0,0.0,0.0,0.0,0.0,0.0,0.0,0.0,0.0,0.0,0.0,0.0,0.0,0.0,0.0,0.0,0.0,0.0,0.0,0.0,0.0,0.0,0.0,0.0,0.0,0.0,0.0,0.0,0.0,0.0,0.0,0.0,0.0,0.0,0.0,0.0,0.0,0.0,0.0,0.0,0.0,0.0,0.0,0.0,0.0,0.0,0.0,0.0,0.0,0.0,0.0,0.0,0.0,0.0,0.0,0.0,0.0,0.0,0.0,0.0,0.0,0.0,0.0,0.0,0.0,0.0,0.0,0.0,0.0,0.0,0.0,0.0,0.0,0.0,0.0,0.0,0.0,0.0,0.0,0.0,0.0,0.0,0.0,0.0,0.0,0.0,0.0,0.0,0.0,0.0,0.0,0.0,0.0,0.0,0.0,0.0,0.0,0.0,0.0,0.0,0.0,0.0,0.0,0.0,0.0,0.0,0.0,0.0,0.0,0.0,0.0,0.0,0.0,0.0,0.0,0.0,0.0,0.0,0.0,0.0,0.0,0.0,0.0,0.0,0.0,0.0,0.0,0.0,0.0,0.0,0.0,0.0,0.0,0.0,0.0,0.0,0.0,0.0,0.0,0.0,0.0,0.0,0.0,0.0,0.0,0.0,0.0,0.0,0.0,0.0,0.0,0.0,0.0,0.0,0.0,0.0,0.0,0.0,0.0,0.0,0.0,0.0,0.0,0.0,0.0,0.0,0.0,0.0,0.0,0.0,0.0,0.0,0.0,0.0,0.0,0.0,0.0,0.0,0.0,0.0,0.0,0.0,0.0,0.0,0.0,0.0,0.0,0.0,0.0,0.0,0.0,0.0,0.0,0.0,0.0,0.0,0.0,0.0,0.0,0.0,0.0,0.0,0.0,0.0,0.0,0.0,0.0,0.0,0.0,0.0,0.0,0.0,0.0,0.0,0.0,0.0,0.0,0.0,0.0,0.0,0.0,0.0,0.0,0.0,0.0,0.0,0.0,0.0,0.0,0.0,0.0,0.0,0.0,0.0,0.0,0.0,0.0,0.0,0.0,0.0,0.0,0.0,0.0,0.0,0.0,0.0,0.0,0.0,0.0,0.0,0.0,0.0,0.0,0.0,0.0,0.0,0.0,0.0,0.0,0.0,0.0,0.0,0.0,0.0,0.0,0.0,0.0,0.0,0.0,0.0,0.0,0.0,0.0,0.0,0.0,0.0,0.0,0.0,0.0,0.0,0.0,0.0,0.0,0.0,0.0,0.0,0.0,0.0,0.0,0.0,0.0,0.0,0.0,0.0,0.0,0.0,0.0,0.0,0.0,0.0,0.0,0.0,0.0,0.0,0.0,0.0,0.0,0.0,0.0,0.0,0.0,0.0,0.0,0.0,0.0,0.0,0.0,0.0,0.0,0.0,0.0,0.0,0.0,0.0,0.0,0.0,0.0,0.0,0.0,0.0,0.0,0.0,0.0,0.0,0.0,0.0,0.0,0.0,0.0,0.0,0.0,0.0,0.0,0.0,0.0,0.0,0.0,0.0,0.0,0.0,0.0,0.0,0.0,0.0,0.0,0.0,0.0,0.0,0.0,0.0,0.0,0.0,0.0,0.0,0.0,0.0,0.0,0.0,0.0,0.0,0.0,0.0,0.0,0.0,0.0,0.0,0.0,0.0,0.0,0.0,0.0,0.0,0.0,0.0,0.0,0.0,0.0,0.0,0.0,0.0,0.0,0.0,0.0,0.0,0.0,0.0,0.0,0.0,0.0,0.0,0.0,0.0,0.0,0.0,0.0,0.0,0.0,0.0,0.0,0.0,0.0,0.0,0.0,0.0,0.0,0.0,0.0,0.0,0.0,0.0,0.0,0.0,0.0,0.0,0.0,0.0,0.0,0.0,0.0,0.0,0.0,0.0,0.0,0.0,0.0,0.0,0.0,0.0,0.0,0.0,0.0,0.0,0.0,0.0,0.0,0.0,0.0,0.0,0.0,0.0,0.0,0.0,0.0,0.0,0.0,0.0,0.0,0.0,0.0,0.0,0.0,0.0,0.0,0.0,0.0,0.0,0.0,0.0,0.0,0.0,0.0,0.0,0.0,0.0,0.0,0.0,0.0,0.0,0.0,0.0,0.0,0.0,0.0,0.0,0.0,0.0,0.0,0.0,0.0,0.0,0.0,0.0,0.0,0.0,0.0,0.0,0.0,0.0,0.0,0.0,0.0,0.0,0.0,0.0,0.0,0.0,0.0,0.0,0.0,0.0,0.0,0.0,0.0,0.0,0.0,0.0,0.0,0.0,0.0,0.0,0.0,0.0,0.0,0.0,0.0,0.0,0.0,0.0,0.0,0.0,0.0,0.0,0.0,0.0,0.0,0.0,0.0,0.0,0.0,0.0,0.0,0.0,0.0,0.0,0.0,0.0,0.0,0.0,0.0,0.0,0.0,0.0,0.0,0.0,0.0,0.0,0.0,0.0,0.0,0.0,0.0,0.0,0.0,0.0,0.0,0.0,0.0,0.0,0.0,0.0,0.0,0.0,0.0,0.0,0.0,0.0,0.0,0.0,0.0,0.0,0.0,0.0,0.0,0.0,0.0,0.0,0.0,0.0,0.0,0.0,0.0,0.0,0.0,0.0,0.0,0.0,0.0,0.0,0.0,0.0,0.0,0.0,0.0,0.0,0.0,0.0,0.0,0.0,0.0,0.0,0.0,0.0,0.0,0.0,0.0,0.0,0.0,0.0,0.0,0.0,0.0,0.0,0.0,0.0,0.0,0.0,0.0,0.0,0.0,0.0,0.0,0.0,0.0,0.0,0.0,0.0,0.0,0.0,0.0,0.0,0.0,0.0,0.0,0.0,0.0,0.0,0.0,0.0,0.0,0.0,0.0,0.0,0.0,0.0,0.0,0.0,0.0,0.0,0.0,0.0,0.0,0.0,0.0,0.0,0.0,0.0,0.0,0.0,0.0,0.0,0.0,0.0,0.0,0.0,0.0,0.0,0.0,0.0,0.0,0.0,0.0,0.0,0.0,0.0,0.0,0.0,0.0,0.0,0.0,0.0,0.0,0.0,0.0,0.0,0.0,0.0,0.0,0.0,0.0,0.0,0.0,0.0,0.0,0.0,0.0,0.0,0.0,0.0,0.0,0.0,0.0,0.0,0.0,0.0,0.0,0.0,0.0,0.0,0.0,0.0,0.0,0.0,0.0,0.0,0.0,0.0,0.0,0.0,0.0,0.0,0.0,0.0,0.0,0.0,0.0,0.0,0.0,0.0,0.0,0.0,0.0,0.0,0.0,0.0,0.0,0.0,0.0,0.0,0.0,0.0,0.0,0.0,0.0,0.0,0.0,0.0,0.0,0.0,0.0,0.0,0.0,0.0,0.0,0.0,0.0,0.0,0.0,0.0,0.0,0.0,0.0,0.0,0.0,0.0,0.0,0.0,0.0,0.0,0.0,0.0,0.0,0.0,0.0,0.0,0.0,0.0,0.0,0.0,0.0,0.0,0.0,0.0,0.0,0.0,0.0,0.0,0.0,0.0,0.0,0.0,0.0,0.0,0.0,0.0,0.0,0.0,0.0,0.0,0.0,0.0,0.0,0.0,0.0,0.0,0.0,0.0,0.0,0.0,0.0,0.0,0.0,0.0,0.0,0.0,0.0,0.0,0.0,0.0,0.0,0.0,0.0,0.0,0.0,0.0,0.0,0.0,0.0,0.0,0.0,0.0,0.0,0.0,0.0,0.0,0.0,0.0,0.0,0.0,0.0,0.0,0.0,0.0,0.0,0.0,0.0,0.0,0.0,0.0,0.0,0.0,0.0,0.0,0.0,0.0,0.0,0.0,0.0,0.0,0.0,0.0,0.0,0.0,0.0,0.0,0.0,0.0,0.0,0.0,0.0,0.0,0.0,0.0,0.0,0.0,0.0,0.0,0.0,0.0,0.0,0.0,0.0,0.0,0.0,0.0,0.0,0.0,0.0,0.0,0.0,0.0,0.0,0.0,0.0,0.0,0.0,0.0,0.0,0.0,0.0,0.0,0.0,0.0,0.0,0.0,0.0,0.0,0.0,0.0,0.0,0.0,0.0,0.0,0.0,0.0,0.0,0.0,0.0,0.0,0.0,0.0,0.0,0.0,0.0,0.0,0.0,0.0,0.0,0.0,0.0,0.0,0.0,0.0,0.0,0.0,0.0,0.0,0.0,0.0,0.0,0.0,0.0,0.0,0.0,0.0,0.0,0.0,0.0,0.0,0.0,0.0,0.0,0.0,0.0,0.0,0.0,0.0,0.0,0.0,0.0,0.0,0.0,0.0,0.0,0.0,0.0,0.0,0.0,0.0,0.0,0.0,0.0,0.0,0.0,0.0,0.0,0.0,0.0,0.0,0.0,0.0,0.0,0.0,0.0,0.0,0.0,0.0,0.0,0.0,0.0,0.0,0.0,0.0,0.0,0.0,0.0,0.0,0.0,0.0,0.0,0.0,0.0,0.0,0.0,0.0,0.0,0.0,0.0,0.0,0.0,0.0,0.0,0.0,0.0,0.0,0.0,0.0,0.0,0.0,0.0,0.0,0.0,0.0,0.0,0.0,0.0,0.0,0.0,0.0,0.0,0.0,0.0,0.0,0.0,0.0,0.0,0.0,0.0,0.0,0.0,0.0,0.0,0.0,0.0,0.0,0.0,0.0,0.0,0.0,0.0,0.0,0.0,0.0,0.0,0.0,0.0,0.0,0.0,0.0,0.0,0.0,0.0,0.0,0.0,0.0,0.0,0.0,0.0,0.0,0.0,0.0,0.0,0.0,0.0,0.0,0.0,0.0,0.0,0.0,0.0,0.0,0.0,0.0,0.0,0.0,0.0,0.0,0.0,0.0,0.0,0.0,0.0,0.0,0.0,0.0,0.0,0.0,0.0,0.0,0.0,0.0,0.0,0.0,0.0,0.0,0.0,0.0,0.0,0.0,0.0,0.0,0.0,0.0,0.0,0.0,0.0,0.0,0.0,0.0,0.0,0.0,0.0,0.0,0.0,0.0,0.0,0.0,0.0,0.0,0.0,0.0,0.0,0.0,0.0,0.0,0.0,0.0,0.0,0.0,0.0,0.0,0.0,0.0,0.0,0.0,0.0,0.0,0.0,0.0,0.0,0.0,0.0,0.0,0.0,0.0,0.0,0.0,0.0,0.0,0.0,0.0,0.0,0.0,0.0,0.0,0.0,0.0,0.0,0.0,0.0,0.0,0.0,0.0,0.0,0.0,0.0,0.0,0.0,0.0,0.0,0.0,0.0,0.0,0.0,0.0,0.0,0.0,0.0,0.0,0.0,0.0,0.0,0.0,0.0,0.0,0.0,0.0,0.0,0.0,0.0,0.0,0.0,0.0,0.0,0.0,0.0,0.0,0.0,0.0,0.0,0.0,0.0,0.0,0.0,0.0,0.0,0.0,0.0,0.0,0.0,0.0,0.0,0.0,0.0,0.0,0.0,0.0,0.0,0.0,0.0,0.0,0.0,0.0,0.0,0.0,0.0,0.0,0.0,0.0,0.0,0.0,-4.113,0.0,0.0,0.0,0.0,0.0,0.0,0.0,0.0,0.0,0.0,0.0,0.0,0.0,0.0,0.0,0.0,0.0,0.0,0.0,0.0,0.0,0.0,0.0,0.0,0.0,0.0,0.0,0.0,0.0,0.0,0.0,0.0,0.0,0.0,0.0,0.0,0.0,0.0,-4.0496,-4.0496,-4.0496,-4.0496,-4.0496,-4.0496,-4.0496,0.0,0.0,0.0,0.0,0.0,0.0,0.0,0.0,0.0,0.0,0.0,0.0,0.0,0.0,0.0,0.0,0.0,0.0,0.0,0.0,0.0,0.0,0.0,0.0,0.0,0.0,0.0,0.0,0.0,0.0,0.0,0.0,0.0,0.0,0.0,0.0,0.0,0.0,0.0,0.0,0.0,0.0,0.0,0.0,0.0,0.0,0.0,0.0,0.0,0.0,0.0,0.0,0.0,0.0,0.0,0.0,0.0,0.0,0.0,0.0,0.0,0.0,0.0,0.0,0.0,0.0,0.0,0.0,0.0,0.0,0.0,-4.1131,0.0,0.0,0.0,0.0,0.0,0.0,0.0,0.0,0.0,0.0,0.0,0.0,0.0,0.0,0.0,0.0,0.0,0.0,0.0,0.0,0.0,0.0,0.0,0.0,-4.0821,-4.0888,-4.0903,0.0,0.0,0.0,0.0,0.0,0.0,0.0,0.0,-4.0566,-4.0537,-4.0537,-4.0519,-4.0504,-4.0496,-4.0496,-4.0496,-4.0496,-4.0496,0.0,0.0,0.0,0.0,0.0,0.0,0.0,0.0,0.0,0.0,0.0,0.0,0.0,0.0,0.0,0.0,0.0,0.0,0.0,0.0,0.0,0.0,0.0,0.0,0.0,0.0,0.0,0.0,0.0,0.0,0.0,0.0,0.0,0.0,0.0,0.0,0.0,0.0,0.0,0.0,0.0,0.0,0.0,0.0,0.0,0.0,0.0,0.0,0.0,0.0,0.0,0.0,0.0,0.0,0.0,0.0,0.0,0.0,0.0,0.0,0.0,0.0,0.0,0.0,-4.2554,-4.2378,-4.1656,-4.1247,-4.1112,-4.1112,-4.1152,-4.1191,0.0,0.0,0.0,0.0,0.0,0.0,0.0,0.0,0.0,0.0,0.0,0.0,0.0,0.0,0.0,0.0,0.0,0.0,0.0,0.0,0.0,0.0,-4.0836,-4.079,-4.0803,-4.1435,-4.1538,0.0,0.0,0.0,0.0,0.0,0.0,-4.0775,-4.0707,-4.0676,-4.0676,-4.0621,-4.0565,-4.0496,-4.0496,-4.0496,-4.0496,-4.0496,-4.0496,-4.0496,0.0,0.0,0.0,0.0,0.0,0.0,0.0,0.0,0.0,0.0,0.0,0.0,0.0,0.0,0.0,0.0,0.0,0.0,0.0,0.0,0.0,0.0,0.0,0.0,0.0,0.0,0.0,0.0,0.0,0.0,0.0,0.0,0.0,0.0,0.0,0.0,0.0,0.0,0.0,0.0,0.0,-4.0994,-4.1076,0.0,0.0,0.0,0.0,0.0,0.0,0.0,0.0,0.0,0.0,0.0,0.0,0.0,0.0,-4.6128,-4.5372,-4.4947,-4.483,-4.394,-4.3123,-4.24,-4.2285,-4.1855,-4.1191,-4.1191,0.0,-4.1191,-4.1191,0.0,0.0,0.0,0.0,0.0,0.0,0.0,0.0,0.0,0.0,0.0,0.0,0.0,0.0,0.0,0.0,0.0,0.0,0.0,0.0,0.0,-4.0886,-4.0809,-4.0854,-4.1135,-4.1388,-4.1521,0.0,0.0,0.0,0.0,-4.0839,-4.0855,-4.0752,-4.069,-4.063,-4.0612,-4.0565,-4.0496,-4.0496,-4.0496,-4.0496,-4.0496,-4.0496,-4.0496,-4.0496,0.0,0.0,0.0,0.0,0.0,0.0,0.0,0.0,0.0,0.0,0.0,0.0,0.0,0.0,0.0,0.0,0.0,0.0,0.0,0.0,0.0,0.0,0.0,0.0,0.0,0.0,0.0,0.0,0.0,0.0,0.0,0.0,0.0,0.0,0.0,0.0,0.0,0.0,0.0,-4.1353,-4.179,-4.1828,-4.2591,-4.3313,0.0,0.0,0.0,0.0,0.0,0.0,0.0,0.0,0.0,-4.6308,-4.6308,-4.629,-4.6294,-4.5925,-4.5731,-4.5713,-4.4857,-4.4235,-4.3846,-4.3358,-4.2949,-4.2617,-4.2617,-4.2324,-4.1836,-4.1347,-4.1152,-4.1152,0.0,0.0,0.0,0.0,0.0,-4.1191,0.0,0.0,0.0,0.0,0.0,0.0,0.0,0.0,0.0,0.0,0.0,0.0,-4.1093,-4.0953,-4.0867,-4.0923,-4.1069,-4.1431,-4.2075,-4.1764,0.0,0.0,-4.1593,-4.1167,-4.0986,-4.0867,-4.0756,-4.0654,-4.0628,-4.0586,-4.0531,-4.0542,-4.0534,-4.0496,-4.0542,-4.0534,-4.0496,-4.0496,-4.0496,-4.0496,0.0,0.0,0.0,0.0,0.0,0.0,0.0,0.0,0.0,0.0,0.0,0.0,0.0,0.0,0.0,0.0,0.0,0.0,0.0,0.0,0.0,0.0,0.0,0.0,0.0,0.0,0.0,0.0,0.0,0.0,0.0,0.0,0.0,0.0,0.0,0.0,0.0,-4.1866,-4.2474,-4.2708,-4.3509,-4.4289,0.0,0.0,0.0,0.0,0.0,0.0,-4.63,-4.63,-4.6303,-4.6309,-4.629,-4.6293,-4.6297,-4.6299,-4.63,-4.628,-4.5637,-4.5229,-4.4978,-4.4334,-4.3905,-4.3691,-4.3691,-4.332,-4.2676,-4.1796,-4.1327,-4.1172,-4.1132,-4.1152,0.0,-4.1191,-4.1191,-4.1191,0.0,0.0,0.0,0.0,0.0,0.0,0.0,0.0,0.0,0.0,0.0,-4.1109,-4.1094,-4.103,-4.0984,-4.0987,-4.1698,-4.2153,-4.2198,-4.2919,-4.3047,-4.2336,-4.2259,-4.1901,-4.1191,-4.1119,-4.0989,-4.0789,-4.0729,-4.0661,-4.0607,-4.0662,-4.0615,-4.0504,-4.0629,-4.0615,-4.0496,-4.0496,-4.0496,-4.0489,-4.0507,0.0,0.0,0.0,0.0,0.0,0.0,0.0,0.0,0.0,0.0,0.0,0.0,0.0,0.0,0.0,0.0,0.0,0.0,0.0,0.0,0.0,0.0,0.0,0.0,0.0,0.0,0.0,0.0,0.0,0.0,0.0,0.0,0.0,0.0,0.0,0.0,0.0,0.0,-4.3548,-4.4406,0.0,0.0,0.0,0.0,-4.63,-4.63,-4.63,-4.63,-4.63,-4.63,-4.6302,-4.6302,-4.6302,-4.6302,-4.6309,-4.6294,-4.6294,-4.6261,-4.5794,-4.4993,-4.4958,-4.4471,-4.3709,-4.3691,-4.3672,-4.3574,-4.2695,-4.1855,-4.1112,-4.1172,-4.1152,-4.1112,-4.1172,-4.1191,-4.1191,0.0,0.0,0.0,0.0,0.0,0.0,0.0,0.0,0.0,-4.1851,-4.1935,-4.2151,-4.271,-4.2715,-4.2669,-4.2673,-4.2389,-4.2461,-4.3053,-4.2875,-4.2614,-4.2379,-4.236,-4.1987,-4.1142,-4.1115,-4.1018,-4.0863,-4.139,-4.1621,-4.1574,-4.2158,-4.2419,-4.2379,-4.2419,-4.2367,-4.2147,-4.0985,-4.0496,-4.0496,-4.05,-4.0471,0.0,0.0,0.0,0.0,0.0,0.0,0.0,0.0,0.0,0.0,0.0,0.0,0.0,0.0,0.0,0.0,0.0,0.0,0.0,0.0,0.0,0.0,0.0,0.0,0.0,0.0,0.0,0.0,0.0,0.0,0.0,0.0,0.0,0.0,0.0,0.0,0.0,-4.4426,-4.5304,0.0,-4.5831,-4.6124,-4.63,-4.63,-4.63,-4.63,-4.63,-4.63,-4.6554,-4.712,-4.7139,-4.7393,-4.79,-4.7904,-4.7906,-4.7906,-4.7909,-4.7756,-4.7428,-4.6903,-4.6496,-4.6186,-4.5623,-4.5058,-4.4511,-4.4199,-4.3555,-4.2773,-4.2793,-4.2441,-4.1933,-4.1953,-4.1641,-4.1191,0.0,0.0,0.0,0.0,0.0,0.0,0.0,0.0,-4.1752,-4.2318,-4.2656,-4.3069,-4.3647,-4.3669,-4.3633,-4.3632,-4.3062,-4.3096,-4.4002,-4.3533,-4.3104,-4.2851,-4.2305,-4.1718,-4.1142,-4.1395,-4.1477,-4.1365,-4.2241,-4.2638,-4.2598,-4.3182,-4.3441,-4.3394,-4.3441,-4.3379,-4.3118,-4.1976,-4.1275,-4.0912,-4.0615,-4.0471,-4.049,0.0,0.0,0.0,0.0,0.0,0.0,0.0,0.0,0.0,0.0,0.0,0.0,0.0,0.0,0.0,0.0,0.0,0.0,0.0,0.0,0.0,0.0,0.0,0.0,0.0,0.0,0.0,0.0,0.0,0.0,0.0,0.0,0.0,0.0,0.0,-4.4465,-4.5324,-4.5948,-4.63,-4.63,-4.6573,-4.6749,-4.6749,-4.6983,-4.7139,-4.7139,-4.7139,-4.7412,-4.7998,-4.7998,-4.8252,-4.8798,-4.8798,-4.8798,-4.8798,-4.8798,-4.8802,-4.8787,-4.8244,-4.7993,-4.7978,-4.7418,-4.6854,-4.6326,-4.6328,-4.5976,-4.5332,-4.416,-4.3359,-4.2832,-4.2832,-4.25,-4.2031,0.0,0.0,0.0,0.0,0.0,0.0,0.0,-4.1849,-4.2415,-4.2435,-4.3194,-4.3744,-4.3785,-4.3784,-4.3787,-4.3774,-4.3759,-4.4094,-4.4934,-4.4992,-4.4604,-4.3748,-4.209,-4.1211,-4.123,-4.1992,-4.238,-4.2381,-4.3259,-4.3652,-4.3631,-4.3718,-4.3693,-4.3583,-4.372,-4.3601,-4.3337,-4.3441,-4.2865,-4.1816,-4.0929,-4.0587,-4.0551,0.0,0.0,0.0,0.0,0.0,0.0,0.0,0.0,0.0,0.0,0.0,0.0,0.0,0.0,0.0,0.0,0.0,0.0,0.0,0.0,0.0,0.0,0.0,0.0,0.0,0.0,0.0,0.0,0.0,0.0,0.0,0.0,0.0,-4.3497,-4.4417,-4.5324,-4.6222,-4.6339,-4.6358,-4.6378,-4.7139,-4.7645,-4.7645,-4.8369,-4.8798,-4.8798,-4.8798,-4.8818,-4.8837,-4.8837,-4.8857,-4.8876,-4.8876,-4.8876,-4.8876,-4.8876,-4.8876,-4.8876,-4.8846,-4.8849,-4.8831,-4.8882,-4.8904,-4.8905,-4.8906,-4.8906,-4.8555,-4.5176,-4.3848,-4.3828,-4.3828,-4.3808,-4.3789,0.0,0.0,0.0,0.0,0.0,0.0,0.0,-4.1849,-4.263,-4.3255,-4.41,-4.4881,-4.5521,-4.5586,-4.5587,-4.5581,-4.5016,-4.4746,-4.4987,-4.5006,-4.4601,-4.3748,-4.2049,-4.1425,-4.2051,-4.2285,-4.3007,-4.4256,-4.5131,-4.5867,-4.6487,-4.7147,-4.7412,-4.7394,-4.7385,-4.6958,-4.621,-4.557,-4.4688,-4.3675,-4.2818,-4.2402,-4.2315,0.0,0.0,0.0,0.0,0.0,0.0,0.0,0.0,0.0,0.0,0.0,0.0,0.0,0.0,0.0,0.0,0.0,0.0,0.0,0.0,0.0,0.0,0.0,0.0,0.0,0.0,0.0,0.0,0.0,0.0,0.0,0.0,-4.4074,-4.4355,-4.4743,-4.5556,-4.7061,-4.7237,-4.7471,-4.8057,-4.833,-4.8466,-4.8466,-4.8662,-4.8798,-4.8798,-4.8798,-4.9091,-4.9714,-4.9733,-5.0048,-5.0672,-5.0692,-5.0692,-5.0692,-5.0692,-5.0692,-5.0653,-5.003,-4.9737,-4.9719,-4.9086,-4.8858,-4.89,-4.8904,-4.8906,-4.8808,-4.7832,-4.707,-4.6523,-4.6523,-4.6133,-4.5488,0.0,0.0,0.0,0.0,0.0,0.0,0.0,-4.2376,-4.3255,-4.4133,-4.4992,-4.5734,-4.6241,-4.63,-4.63,-4.63,-4.5831,-4.554,-4.5545,-4.4865,-4.4383,-4.4254,-4.2575,-4.205,-4.293,-4.3652,-4.4531,-4.5547,-4.6777,-4.7654,-4.8162,-4.8667,-4.8898,-4.8893,-4.8852,-4.8515,-4.7901,-4.7365,-4.653,-4.5543,-4.5007,-4.4094,-4.3032,-4.3015,-4.297,-4.2944,-4.2907,-4.2898,-4.2898,-4.2898,0.0,0.0,0.0,0.0,0.0,0.0,0.0,0.0,0.0,0.0,0.0,0.0,0.0,0.0,0.0,0.0,0.0,0.0,0.0,0.0,0.0,0.0,0.0,0.0,-4.4499,-4.5307,-4.5686,-4.594,-4.6591,-4.7939,-4.8096,-4.8291,-4.8759,-4.913,-4.9345,-4.9345,-4.9677,-4.9891,-4.9891,-4.9891,-5.0126,-5.0631,-5.0631,-5.0887,-5.1394,-5.1394,-5.1394,-5.1394,-5.1394,-5.1394,-5.1375,-5.0887,-5.0631,0.0,-5.0116,-4.9907,-4.995,-4.9955,-4.9959,0.0,0.0,0.0,0.0,0.0,-4.7812,-4.7324,0.0,0.0,0.0,0.0,0.0,0.0,0.0,-4.3138,-4.4016,-4.4894,-4.5753,-4.63,-4.63,-4.63,-4.63,-4.63,-4.63,-4.63,-4.63,-4.4764,-4.4185,-4.4973,-4.3414,-4.3006,-4.3965,-4.5508,-4.6445,-4.6738,-4.828,-4.908,-4.9178,-4.9176,-4.9174,-4.9174,-4.9187,-4.905,-4.8866,-4.883,-4.8209,-4.7247,-4.7062,-4.5545,-4.3374,-4.3321,-4.3284,-4.3284,-4.324,-4.3203,-4.3203,-4.3203,0.0,0.0,0.0,0.0,0.0,0.0,0.0,0.0,0.0,0.0,0.0,0.0,0.0,0.0,0.0,0.0,0.0,0.0,0.0,0.0,0.0,0.0,0.0,0.0,-4.5445,-4.6423,-4.7386,-4.7739,-4.8152,-4.8857,-4.8954,-4.8993,-4.9072,-4.9794,-5.0241,-5.0241,-5.0965,-5.1394,-5.1394,0.0,0.0,0.0,0.0,-5.1394,-5.1394,-5.1394,-5.1394,-5.1394,-5.1394,-5.1394,-5.1394,-5.1394,-5.1394,-5.1394,-5.1405,-5.1408,-5.139,-5.1395,-5.1401,-5.1248,-4.9765,-4.918,-4.918,-4.918,-4.918,0.0,0.0,0.0,0.0,0.0,0.0,0.0,0.0,-4.3138,-4.4016,-4.4894,-4.5753,-4.63,-4.63,-4.63,-4.63,-4.63,-4.63,-4.63,-4.63,-4.5326,-4.4824,-4.4992,-4.3997,-4.4196,-4.5762,-4.6133,-4.7324,-4.9453,-4.9785,-5.0273,-5.0918,-5.0918,-5.0917,-5.0915,-5.0915,-5.0519,-4.9813,-4.9652,-4.9059,-4.8139,-4.7275,-4.6198,-4.5133,-4.5105,-4.5096,-4.5096,-4.5087,-4.5087,-4.5087,-4.5087,-4.5087,-4.5087,-4.5087,-4.5087,0.0,0.0,0.0,0.0,0.0,0.0,0.0,0.0,0.0,0.0,0.0,0.0,0.0,0.0,0.0,0.0,0.0,0.0,0.0,-4.6522,-4.7359,-4.8319,-4.9324,-4.9541,-4.9675,-4.9831,-4.985,-5.0124,-5.0828,-5.1043,-5.116,-5.116,-5.1297,-5.1394,-5.1394,-5.1394,0.0,-5.1394,-5.1394,-5.1394,-5.1394,-5.1394,-5.1394,-5.1394,0.0,0.0,-5.1394,-5.1394,-5.1394,-5.1394,-5.1396,-5.1402,-5.1409,-5.1391,-5.1398,-5.1366,-5.1035,-5.0918,-5.0918,-5.0918,-5.0918,-5.082,0.0,0.0,0.0,0.0,0.0,0.0,0.0,-4.3782,-4.466,-4.5539,-4.6027,-4.63,-4.63,-4.63,-4.63,-4.63,-4.63,-4.6495,-4.6924,-4.5734,-4.5387,-4.6257,-4.505,-4.5172,-4.6914,-4.7383,-4.8457,-5.0195,-5.0605,-5.1016,-5.1406,-5.1406,-5.1406,-5.1406,-5.1405,-5.1169,-5.0732,-5.0541,-4.9955,-4.9052,-4.7986,-4.7036,-4.6201,-4.5768,-4.5594,-4.5594,-4.5594,-4.5594,-4.5594,-4.5594,-4.5594,-4.5594,-4.5594,-4.5594,-4.5594,0.0,0.0,0.0,0.0,0.0,0.0,0.0,0.0,0.0,0.0,0.0,0.0,0.0,0.0,-4.624,-4.624,0.0,-4.7631,-4.7695,-4.8528,-4.9347,-4.9913,-5.0381,-5.0681,-5.0746,-5.0748,-5.0926,-5.1355,-5.1394,-5.1394,-5.1394,-5.1394,-5.1394,-5.1394,-5.1394,-5.1394,-5.1394,-5.1394,-5.1394,-5.1394,-5.1394,-5.1394,-5.1394,-5.1394,-5.1394,-5.1394,-5.1394,-5.1394,-5.1394,-5.1394,-5.1398,-5.1403,-5.1408,-5.1394,-5.14,-5.1405,-5.1406,-5.1406,-5.1406,-5.1406,-5.1348,0.0,0.0,0.0,0.0,0.0,0.0,0.0,0.0,-4.5304,-4.6183,-4.63,-4.63,-4.63,-4.63,-4.63,-4.63,-4.6456,-4.6788,-4.7313,-4.6181,-4.6069,-4.7287,-4.6006,-4.6069,-4.7811,-4.8535,-4.9394,-5.043,-5.1074,-5.1406,-5.1406,-5.1406,-5.1406,-5.1406,-5.1406,-5.1405,-5.1384,-5.1186,-5.07,-4.9939,-4.8709,-4.7784,-4.7037,-4.6007,-4.5603,-4.5594,-4.5594,-4.5594,-4.5594,-4.5594,-4.5594,-4.5594,-4.5594,-4.5594,-4.5594,-4.5594,-4.5594,0.0,0.0,0.0,0.0,0.0,0.0,0.0,0.0,-4.5729,-4.5845,-4.5845,-4.6547,-4.7135,-4.7135,-4.7891,-4.8531,-4.8578,-4.9401,-5.0096,-5.0244,-5.0839,-5.1284,-5.139,-5.1394,-5.1394,-5.1394,-5.1394,-5.1394,-5.1394,-5.1394,-5.1394,-5.1394,-5.1394,-5.1394,-5.1394,-5.1394,-5.1394,-5.1394,-5.1394,-5.1394,-5.1394,-5.1394,-5.1394,-5.1394,-5.1394,-5.1394,-5.1394,-5.1394,-5.1394,-5.1394,-5.1403,-5.1408,-5.1391,-5.14,-5.1405,-5.1406,-5.1406,-5.1406,-5.1406,0.0,0.0,0.0,0.0,0.0,0.0,0.0,0.0,0.0,-4.6183,-4.63,-4.63,-4.63,-4.63,-4.63,-4.63,-4.7002,-4.7178,-4.6495,-4.6983,-4.7045,-4.6468,-4.6259,-4.6968,-4.8729,-4.8847,-4.9687,-5.1269,-5.1367,-5.1406,-5.1406,-5.1406,-5.1406,-5.1406,-5.1406,-5.1406,-5.1384,-5.118,-5.1035,-5.0796,-4.9006,-4.8182,-4.7869,-4.629,-4.5648,-4.5594,-4.5594,-4.5594,-4.5594,-4.5594,-4.5594,-4.5594,-4.5594,-4.5594,-4.5594,-4.5594,-4.5594,-4.5594,-4.5594,-4.5594,-4.5594,-4.5594,-4.5594,-4.5594,0.0,-4.6201,-4.6759,-4.6759,-4.7413,-4.7971,-4.7971,-4.8682,-4.9354,-4.9581,-5.0322,-5.0948,-5.1218,-5.1327,-5.1388,-5.1394,-5.1394,-5.1394,-5.1394,-5.1394,-5.1394,-5.1394,-5.1394,-5.1394,-5.1394,-5.1394,-5.1394,-5.1394,-5.1394,-5.1394,-5.1394,-5.1394,-5.1394,-5.1394,-5.1394,-5.1394,-5.1394,-5.1394,-5.1394,-5.1394,-5.1394,-5.1394,-5.1394,-5.1396,-5.1402,-5.1409,-5.1391,-5.1399,-5.1405,-5.1406,-5.1406,-5.1406,0.0,0.0,0.0,0.0,0.0,0.0,0.0,0.0,0.0,0.0,-4.63,-4.63,-4.63,-4.63,-4.63,-4.63,-4.6632,-4.6905,-4.7042,-4.6924,-4.6907,-4.7047,-4.657,-4.6888,-4.8121,-4.8144,-4.873,-4.9941,-5.0449,-5.0703,-5.0703,-5.1172,-5.1406,-5.1406,-5.1406,-5.1406,-5.1386,-5.1235,-5.0867,-5.0286,-4.8868,-4.7973,-4.7373,-4.6158,-4.5671,-4.5648,-4.5603,-4.5594,0.0,-4.5594,-4.5594,-4.5594,-4.5594,-4.5594,-4.5594,-4.5594,-4.5594,-4.5614,-4.5648,-4.5657,-4.5764,-4.6245,-4.6352,-4.6487,-4.696,-4.7336,-4.7605,-4.7605,-4.8279,-4.8856,-4.8856,-4.963,-5.0322,0.0,-5.0855,-5.1172,-5.1367,-5.1394,-5.1394,-5.1394,-5.1394,-5.1394,-5.1394,-5.1394,-5.1394,-5.1394,-5.1394,-5.1394,-5.1394,-5.1394,-5.1394,-5.1394,-5.1394,-5.1394,-5.1394,-5.1394,-5.1394,-5.1394,-5.1394,-5.1394,-5.1394,-5.1394,-5.1394,-5.1394,-5.1394,-5.1394,-5.1394,-5.1394,-5.1396,-5.1402,-5.1407,-5.1394,-5.1399,-5.1405,-5.1406,-5.1406,0.0,0.0,0.0,0.0,0.0,0.0,0.0,0.0,0.0,0.0,-4.63,-4.63,-4.63,-4.63,-4.63,-4.63,-4.6515,-4.6827,-4.7217,-4.6885,-4.6827,-4.7217,-4.6647,-4.6712,-4.7572,-4.7597,-4.8027,-4.8906,-4.9531,-4.9844,-4.9844,-5.0449,-5.0703,-5.0703,-5.0703,-5.0703,-5.0703,-5.0577,-5.0143,-4.9461,-4.8406,-4.7608,-4.6931,-4.6071,-4.573,-4.5693,-4.564,-4.5622,-4.5594,-4.5594,-4.5594,-4.5594,-4.5594,-4.5594,-4.5594,-4.5594,-4.5594,-4.5661,-4.5954,-4.6029,-4.624,-4.706,-4.7272,-4.7409,-4.798,-4.8298,-4.8471,-4.8471,-4.9144,-4.976,-4.976,-5.0342,-5.0875,-5.0978,-5.1074,-5.1203,-5.1386,-5.1394,-5.1394,-5.1394,-5.1394,-5.1394,-5.1394,-5.1394,-5.1394,-5.1394,-5.1394,-5.1394,-5.1394,-5.1394,-5.1394,-5.1394,-5.1394,-5.1394,-5.1394,-5.1394,-5.1394,-5.1394,-5.1394,-5.1394,-5.1394,-5.1394,-5.1394,-5.1394,-5.1398,-5.1396,-5.1394,-5.1398,-5.1396,-5.1394,-5.1403,-5.1407,-5.1391,-5.14,-5.1405,-5.1406,0.0,0.0,0.0,0.0,0.0,0.0,0.0,0.0,0.0,0.0,0.0,0.0,0.0,-4.63,-4.63,-4.63,-4.7061,-4.7217,-4.6397,-4.712,-4.7198,-4.6378,-4.6315,-4.6712,-4.7572,-4.7597,-4.8027,-4.8906,-4.8926,-4.8945,-4.8945,-4.8965,-4.8984,-4.8984,-4.8984,-4.8984,-4.8965,-4.8829,-4.8728,-4.8565,-4.7607,-4.7178,-4.6997,-4.6136,-4.5754,-4.5701,-4.5701,-4.5648,-4.5594,-4.5594,-4.5594,-4.5594,-4.5594,-4.5594,-4.5594,-4.5594,-4.5594,-4.5776,-4.6628,-4.6857,-4.7069,-4.7936,-4.8167,-4.815,-4.8115,-4.8759,-4.9356,-4.9356,-5.0048,-5.0654,-5.0654,-5.0693,-5.0764,-5.0966,-5.1008,-5.1108,-5.1362,-5.1394,-5.1394,-5.1394,-5.1394,-5.1394,0.0,-5.1394,-5.1394,-5.1394,-5.1394,-5.1394,-5.1394,-5.1394,-5.1394,-5.1394,-5.1394,-5.1394,-5.1394,-5.1394,-5.1394,-5.1394,-5.1394,-5.1394,-5.1394,-5.1394,-5.1394,-5.1394,-5.1405,-5.1403,-5.1394,-5.1405,-5.1403,-5.1394,-5.1394,-5.1402,-5.1409,-5.139,-5.1398,-5.1405,0.0,0.0,0.0,0.0,0.0,0.0,0.0,0.0,0.0,0.0,0.0,0.0,0.0,0.0,0.0,0.0,-4.6573,-4.6612,-4.6319,-4.6573,-4.6612,-4.63,-4.6296,-4.6438,-4.6731,-4.6737,-4.6875,-4.7168,-4.7754,-4.8047,-4.8047,-4.8633,-4.8906,-4.8906,-4.8906,-4.8906,-4.8887,-4.8753,-4.834,-4.777,-4.7364,-4.6809,-4.6211,-4.5902,-4.5795,-4.577,0.0,-4.5679,-4.5594,-4.5594,-4.5594,-4.5594,-4.5594,-4.5594,-4.5594,-4.5594,-4.6016,-4.6532,-4.6871,-4.7386,-4.8039,-4.8908,-4.9095,-4.9195,-4.97,-5.0057,-5.0269,-5.0269,-5.05,-5.0712,-5.0712,-5.0712,-5.0758,-5.092,-5.0966,-5.1058,-5.1245,-5.1335,-5.1394,-5.1394,-5.1394,0.0,0.0,0.0,0.0,-5.2214,-5.2253,-5.2507,-5.3093,-5.3132,-5.2858,-5.2273,-5.2253,-5.198,-5.1414,-5.1394,-5.1394,-5.1394,-5.1394,-5.1394,-5.1394,-5.1394,-5.1394,-5.1394,-5.1398,-5.1402,-5.1405,-5.1408,-5.139,-5.1391,-5.1407,-5.1407,-5.1408,-5.1402,-5.1408,-5.1397,0.0,0.0,0.0,0.0,0.0,0.0,0.0,0.0,0.0,0.0,0.0,0.0,0.0,0.0,0.0,0.0,0.0,-4.63,-4.63,-4.63,-4.63,-4.63,-4.6296,-4.6301,-4.6301,-4.6308,-4.6308,-4.6308,-4.6855,-4.7148,-4.7148,-4.7715,-4.7969,-4.7969,-4.7969,-4.7969,-4.7969,-4.7883,-4.7508,-4.6953,-4.6882,-4.6474,-4.5908,-4.588,-4.5861,0.0,-4.581,-4.5727,-4.5646,-4.5646,-4.5646,-4.5646,-4.5646,-4.5646,-4.5695,-4.5986,-4.6482,-4.7083,-4.7742,-4.8334,-4.8968,-4.9856,-5.0025,-5.0117,-5.0595,-5.0692,-5.0712,-5.0693,-5.0712,-5.0712,-5.0712,-5.0712,-5.074,-5.0882,-5.0937,-5.1022,-5.1187,-5.1265,-5.1452,-5.1822,-5.1863,-5.198,0.0,0.0,0.0,-5.2685,-5.2995,-5.3405,-5.3971,-5.401,-5.36,-5.2724,-5.2704,-5.2273,-5.1414,-5.1394,-5.1394,-5.1394,-5.1394,-5.1394,-5.1394,-5.1394,-5.1394,-5.1394,-5.1398,-5.1402,-5.1405,-5.1391,-5.1394,-5.1395,-5.1391,-5.1409,-5.1408,-5.1398,-5.1398,-5.1407,0.0,0.0,0.0,0.0,0.0,0.0,0.0,0.0,0.0,0.0,0.0,0.0,0.0,0.0,0.0,0.0,0.0,0.0,-4.63,-4.6302,-4.6302,-4.63,-4.6296,-4.6301,-4.6301,-4.6308,-4.6308,-4.6308,-4.6308,-4.6308,-4.6308,-4.6308,-4.6308,-4.6308,-4.6308,-4.6308,-4.6308,-4.6308,-4.6265,-4.6202,-4.6202,-4.6155,-4.6091,-4.6027,-4.5972,-4.5894,-4.584,-4.5781,-4.5704,-4.5688,-4.5708,-4.5708,-4.5708,-4.5727,-4.5931,-4.6681,-4.7006,-4.7491,-4.9153,-4.9625,-4.9864,-5.0687,-5.0899,-5.0874,-5.0748,-5.0701,-5.0702,-5.0702,-5.0693,-5.0712,-5.0712,-5.0712,-5.073,-5.0874,-5.0906,-5.0977,-5.1165,-5.1234,-5.1622,-5.2579,-5.2741,-5.3095,-5.3912,0.0,0.0,-5.2899,0.0,-5.4088,-5.4127,-5.4127,-5.3737,-5.286,-5.2782,-5.2351,-5.1472,-5.1414,-5.1394,-5.1394,-5.1394,-5.1394,-5.1394,-5.1394,-5.1394,-5.1394,-5.1405,-5.1403,-5.1396,-5.1393,-5.1395,-5.1391,-5.139,-5.139,-5.1409,-5.14,-5.1394,-5.1396,0.0,0.0,0.0,0.0,0.0,0.0,0.0,0.0,0.0,0.0,0.0,0.0,0.0,0.0,0.0,0.0,0.0,0.0,-4.63,-4.6306,-4.6306,-4.6302,-4.63,-4.6305,-4.6301,-4.6308,-4.6308,-4.6308,-4.6308,-4.6308,-4.6308,-4.6308,-4.6308,-4.6308,-4.6308,-4.6308,-4.6308,-4.6308,-4.6265,-4.6202,-4.6202,-4.6155,-4.6098,-4.6076,-4.6068,-4.6033,-4.5966,-4.5941,-4.5892,-4.5749,-4.5708,-4.5708,-4.5708,-4.6151,-4.6711,-4.6907,-4.7923,-4.9037,-4.9489,-5.0074,-5.0612,-5.0844,-5.0905,-5.0891,-5.0855,-5.0775,-5.0692,-5.0702,-5.0693,-5.0712,-5.0712,-5.0712,-5.0712,-5.0759,-5.0825,-5.0925,-5.0958,-5.1662,-5.2267,-5.2522,-5.3208,-5.376,-5.3982,-5.4582,0.0,0.0,-5.4836,-5.5259,-5.5903,-5.5942,-5.5532,-5.4656,-5.401,-5.3249,-5.2372,-5.1726,-5.1394,-5.1394,-5.1394,-5.1394,-5.1394,-5.1394,-5.1394,-5.1394,-5.1398,-5.1402,-5.1407,-5.1391,-5.1397,-5.1402,-5.1398,-5.1399,-5.1402,-5.1391,-5.1407,-5.1405,0.0,0.0,0.0,0.0,0.0,0.0,0.0,0.0,0.0,0.0,0.0,0.0,0.0,0.0,0.0,0.0,0.0,0.0,0.0,-4.6295,-4.6295,-4.6291,-4.6303,-4.6306,-4.6305,-4.6308,-4.6308,-4.6308,-4.6308,-4.6308,-4.6308,-4.6308,-4.6308,-4.6308,-4.6308,-4.6308,-4.6308,-4.6308,-4.6288,0.0,0.0,-4.6213,-4.6173,-4.6153,-4.6142,-4.6131,-4.6036,-4.5969,-4.5886,-4.5786,-4.5742,-4.5734,-4.5739,-4.6345,-4.7106,-4.7476,-4.8543,-4.9707,-5.0074,-5.0534,-5.0898,-5.0898,-5.0901,-5.0897,-5.0863,-5.0793,-5.0623,-5.0211,-5.0125,-5.0125,-5.0125,-5.0125,-5.025,-5.0635,-5.0766,-5.083,-5.089,-5.1808,-5.2617,-5.3065,-5.3979,-5.4729,-5.5103,-5.5588,-5.5861,0.0,-5.5874,-5.6079,-5.6567,-5.6606,-5.604,-5.4771,-5.4264,-5.3405,-5.2136,-5.1648,-5.1394,-5.1394,-5.1394,-5.1394,-5.1394,-5.1394,-5.1394,-5.1394,0.0,-5.1398,-5.1403,-5.1408,-5.1394,-5.1399,-5.1396,-5.1398,-5.1402,-5.1409,-5.1407,-5.1408,0.0,0.0,0.0,0.0,0.0,0.0,0.0,0.0,0.0,0.0,0.0,0.0,0.0,0.0,0.0,0.0,0.0,0.0,0.0,0.0,-4.6302,-4.6301,-4.6306,-4.6307,-4.6307,-4.6308,-4.6308,-4.6308,-4.6308,-4.6308,-4.6308,-4.6308,-4.6308,-4.6308,-4.6308,-4.6308,-4.6308,-4.6308,-4.6308,-4.6308,-4.6308,-4.6308,-4.6289,0.0,-4.6209,-4.62,-4.6052,-4.5916,-4.5807,-4.5807,-4.5807,-4.5819,-4.5938,-4.6571,-4.7436,-4.8257,-4.9135,-5.0016,-5.0705,-5.0898,-5.0898,-5.0898,-5.0898,-5.0882,-5.0827,-5.0724,-5.0408,-4.9576,-4.9307,-4.9221,-4.9221,-4.9317,-4.9654,-5.0423,-5.0635,-5.0745,-5.0863,-5.1741,-5.2757,-5.3758,-5.4713,-5.5634,-5.6516,-5.6593,-5.6593,-5.6594,-5.66,-5.6591,-5.6591,-5.6608,-5.5806,-5.4068,-5.3893,-5.3053,-5.1414,-5.1394,-5.1394,-5.1394,-5.1394,-5.1394,-5.1394,-5.1394,-5.1394,-5.1394,0.0,0.0,-5.1394,-5.1405,-5.1408,-5.1409,-5.1409,-5.1394,-5.1397,-5.1403,-5.1402,-5.1408,0.0,0.0,0.0,0.0,0.0,0.0,0.0,0.0,0.0,0.0,-4.9193,-4.9054,0.0,0.0,0.0,0.0,0.0,0.0,0.0,0.0,0.0,-4.6301,-4.6307,-4.6308,-4.6307,-4.6308,-4.6308,-4.6308,-4.6308,-4.6308,-4.6308,-4.6308,-4.6308,-4.6308,-4.6308,-4.6308,-4.6308,-4.6308,-4.6308,-4.6308,-4.6308,-4.6308,-4.6308,-4.6289,0.0,0.0,-4.6131,-4.5968,-4.5807,-4.5807,-4.5807,-4.5942,-4.6644,-4.7482,-4.8333,-4.9196,-5.0047,-5.0724,-5.0859,-5.0898,-5.0898,-5.0898,-5.0898,-5.0909,-5.088,-5.0287,-4.9684,-4.9526,-4.8864,-4.8336,-4.8336,-4.8913,-4.9471,-4.9681,-5.0268,-5.0729,-5.0808,-5.1671,-5.2678,-5.3614,-5.4616,-5.5569,-5.6518,-5.6595,0.0,0.0,0.0,-5.6609,-5.6609,-5.6603,-5.5794,-5.4068,-5.3307,-5.2429,-5.1414,-5.1394,-5.1394,-5.1394,-5.1394,-5.1394,-5.1394,-5.1394,-5.1394,-5.1394,0.0,0.0,-5.1394,-5.1396,-5.1402,-5.1409,-5.1409,-5.1394,-5.1397,-5.139,-5.1408,-5.1408,0.0,0.0,0.0,0.0,0.0,0.0,0.0,-4.6914,-4.7246,-4.8105,-4.8222,-4.8221,-4.8221,-4.785,0.0,0.0,0.0,0.0,0.0,0.0,0.0,0.0,0.0,0.0,-4.6308,-4.6308,-4.6308,-4.6308,0.0,-4.6308,-4.6308,-4.6308,-4.6308,-4.6308,-4.6308,-4.6308,-4.6308,-4.6308,-4.6308,-4.6308,-4.6308,-4.6308,-4.6308,0.0,0.0,0.0,-4.6125,-4.5964,-4.5807,-4.5807,-4.5807,-4.5865,-4.629,-4.7328,-4.8488,-4.8894,-4.9919,-5.0898,-5.0898,-5.0898,-5.0898,-5.0898,-5.0898,-5.0882,-5.0863,-5.0154,-4.9367,-4.8863,-4.8076,-4.749,-4.749,-4.8163,-4.8884,-4.9365,-5.019,-5.0747,-5.0793,-5.169,-5.2696,-5.3647,-5.4606,-5.5578,-5.6503,-5.66,-5.66,0.0,0.0,0.0,-5.6593,-5.5731,-5.4653,-5.336,-5.2479,-5.1813,-5.1403,-5.1396,-5.1394,-5.1394,-5.1394,-5.1394,-5.1394,-5.1394,-5.1394,-5.1394,0.0,0.0,-5.1394,-5.1394,-5.1398,-5.1402,-5.1402,-5.1407,-5.1394,-5.1405,-5.1405,-5.1408,0.0,0.0,0.0,0.0,0.0,0.0,0.0,-4.6308,-4.6543,-4.7226,-4.7324,-4.7324,-4.7324,-4.748,-4.7246,0.0,0.0,0.0,0.0,0.0,0.0,0.0,0.0,0.0,0.0,0.0,0.0,-4.6308,-4.6308,0.0,0.0,0.0,0.0,0.0,-4.6308,-4.6308,-4.6308,-4.6308,-4.6308,0.0,0.0,-4.6308,0.0,0.0,0.0,0.0,0.0,-4.5998,-4.5848,-4.5814,-4.5807,-4.5807,-4.5807,-4.6999,-4.843,-4.8624,-4.9726,-5.0898,-5.0898,-5.0898,-5.0898,-5.0898,-5.0898,-5.0824,-5.0587,-4.9856,-4.8981,-4.8047,-4.7201,-4.6624,-4.6624,-4.7298,-4.8125,-4.9009,-4.992,-5.06,-5.0791,-5.1555,-5.2449,-5.3401,-5.4342,-5.5269,-5.623,-5.6484,0.0,0.0,0.0,0.0,-5.6321,-5.4857,-5.3607,-5.2726,-5.1842,-5.1409,-5.1409,-5.14,-5.1394,-5.1394,-5.1394,-5.1394,-5.1394,-5.1394,-5.1394,-5.1394,0.0,0.0,0.0,-5.1394,-5.1394,-5.1394,-5.1394,-5.14,-5.1405,-5.1398,-5.14,-5.1405,0.0,0.0,0.0,0.0,0.0,0.0,0.0,-4.6308,-4.6328,-4.6406,-4.6426,-4.6426,-4.6426,-4.7129,-4.7246,0.0,0.0,0.0,0.0,0.0,0.0,0.0,0.0,0.0,0.0,0.0,0.0,-4.6308,-4.6308,0.0,0.0,0.0,0.0,0.0,0.0,-4.6308,-4.6308,-4.6308,0.0,0.0,0.0,0.0,0.0,0.0,0.0,0.0,0.0,-4.6039,-4.5969,-4.5848,-4.5807,-4.5807,-4.5807,-4.6999,-4.8566,-4.9359,-5.0202,-5.0898,-5.0898,-5.0898,-5.0898,-5.0898,-5.0898,-5.0689,-4.9815,-4.8988,-4.8152,-4.72,-4.6317,-4.5729,-4.5729,-4.6432,-4.7287,-4.8169,-4.9044,-4.9928,-5.0767,-5.0974,-5.1436,-5.2492,-5.3381,-5.4315,-5.5312,-5.6133,0.0,0.0,0.0,0.0,0.0,-5.4529,-5.359,-5.2727,-5.1842,-5.1409,-5.1409,-5.14,-5.1394,-5.1394,-5.1394,-5.1394,-5.1394,-5.1394,-5.1394,-5.1394,0.0,0.0,0.0,-5.1394,-5.1394,-5.1394,-5.1394,-5.1394,-5.1396,-5.1394,-5.1394,-5.1396,0.0,0.0,0.0,0.0,0.0,0.0,-4.6242,-4.624,-4.6234,-4.6173,-4.6598,-4.6938,-4.702,-4.7762,-4.7728,0.0,0.0,0.0,0.0,0.0,0.0,0.0,0.0,0.0,0.0,0.0,-4.6308,-4.6308,-4.6308,0.0,0.0,0.0,0.0,0.0,0.0,-4.6308,-4.6308,-4.6308,0.0,0.0,0.0,0.0,0.0,0.0,0.0,0.0,0.0,0.0,-4.5861,-4.5827,-4.5807,-4.5807,-4.5807,-4.6631,-4.7792,-4.8662,-4.9513,-5.0279,-5.0763,-5.0898,-5.0898,-5.0898,-5.0515,-5.0,-4.9594,-4.8441,-4.7347,-4.698,-4.6201,-4.5594,-4.5594,-4.6317,-4.7163,-4.7998,-4.8911,-4.9805,-5.0659,-5.0846,-5.1273,-5.2267,-5.3141,-5.4065,0.0,0.0,0.0,0.0,0.0,0.0,0.0,-5.3691,-5.2812,-5.1952,-5.1578,-5.14,-5.14,-5.1391,-5.1403,-5.1403,-5.1398,-5.1394,-5.1394,-5.1394,-5.1394,-5.1394,0.0,0.0,0.0,-5.1394,-5.1394,-5.1394,-5.1394,-5.1394,-5.1394,-5.1394,-5.1394,-5.1394,0.0,0.0,0.0,0.0,0.0,-4.6662,-4.6889,-4.6901,-4.6889,-4.6842,-4.7338,-4.773,-4.7816,-4.8326,-4.8201,-4.7076,-4.7029,0.0,0.0,0.0,0.0,0.0,0.0,0.0,0.0,0.0,-4.6308,-4.6308,-4.6308,-4.6308,0.0,0.0,-4.6308,-4.6308,0.0,0.0,0.0,0.0,0.0,0.0,0.0,0.0,0.0,0.0,0.0,0.0,0.0,0.0,0.0,0.0,0.0,-4.5807,-4.5807,-4.6232,-4.6883,-4.7753,-4.8624,-4.9436,-5.0016,-5.0163,-5.0163,-5.0163,-4.9676,-4.9134,-4.8822,-4.7797,-4.6821,-4.6576,-4.6028,-4.5594,-4.5594,-4.6105,-4.6855,-4.7932,-4.8653,-4.9469,-5.0547,-5.0775,-5.1114,-5.1826,0.0,-5.3872,0.0,0.0,0.0,0.0,0.0,0.0,0.0,-5.2793,-5.2031,-5.1426,-5.1405,-5.1405,-5.1405,-5.1398,-5.1391,-5.1409,-5.1403,-5.1398,-5.1394,-5.1394,-5.1394,0.0,0.0,0.0,0.0,-5.1394,-5.1394,-5.1394,-5.1394,-5.1394,-5.1394,-5.1394,-5.1394,-5.1394,0.0,0.0,0.0,0.0,0.0,0.0,-4.8444,-4.8581,-4.8577,-4.8577,-4.8577,-4.8596,-4.86,-4.86,-4.86,-4.8581,-4.8769,0.0,0.0,0.0,0.0,0.0,0.0,0.0,0.0,0.0,-4.6308,-4.6308,-4.6308,-4.6308,-4.6308,-4.6308,-4.6308,-4.6308,0.0,0.0,0.0,0.0,0.0,0.0,0.0,0.0,0.0,0.0,0.0,0.0,0.0,0.0,0.0,0.0,0.0,0.0,0.0,-4.5807,-4.5981,-4.6864,-4.7734,-4.8411,-4.8411,-4.843,-4.843,-4.843,-4.8361,-4.8091,-4.7221,-4.6968,-4.6647,-4.5796,-4.5614,-4.5594,-4.5594,-4.5614,-4.6172,-4.7836,-4.8105,-4.872,-5.0461,-5.0701,-5.0789,0.0,0.0,-5.3654,-5.3801,0.0,0.0,0.0,0.0,0.0,0.0,0.0,-5.1406,-5.1406,-5.1405,-5.1405,-5.1405,-5.1401,-5.1396,-5.1409,-5.1409,-5.1405,-5.1394,-5.1394,0.0,0.0,0.0,0.0,0.0,-5.1394,-5.1394,-5.1394,-5.1394,-5.1394,-5.1394,-5.1394,-5.1394,-5.1394,0.0,0.0,0.0,0.0,0.0,0.0,0.0,-4.8525,-4.8519,-4.8476,-4.8987,-4.9368,-4.942,-4.995,-5.0325,-5.0373,-4.9386,0.0,0.0,0.0,0.0,0.0,0.0,0.0,0.0,-4.7324,-4.6894,-4.6308,-4.6308,-4.6308,-4.6308,-4.6308,-4.6308,-4.6308,-4.6308,-4.6308,0.0,0.0,0.0,0.0,0.0,0.0,0.0,0.0,0.0,0.0,0.0,0.0,0.0,0.0,0.0,0.0,0.0,0.0,0.0,-4.6119,-4.683,-4.763,-4.8176,-4.833,-4.8327,-4.8342,-4.7838,-4.7257,-4.6998,-4.6455,-4.5939,-4.5652,-4.5594,-4.5594,-4.5594,-4.5594,-4.6152,-4.7836,-4.8105,-4.8702,-5.0462,-5.073,0.0,-5.0855,-5.2446,-5.3991,0.0,0.0,0.0,0.0,0.0,0.0,0.0,0.0,-5.1341,-5.1406,-5.1406,-5.1406,-5.1406,-5.1405,-5.1402,-5.1402,-5.1398,-5.1393,-5.1405,-5.1405,0.0,0.0,0.0,0.0,0.0,-5.1394,-5.1394,-5.1394,-5.1394,-5.1394,-5.1394,-5.1394,-5.1394,-5.1394,0.0,0.0,0.0,0.0,0.0,0.0,0.0,-4.9408,-4.9401,-4.9347,-4.9823,-5.017,-5.0203,-5.0694,-5.1043,-5.1081,-5.0157,0.0,0.0,0.0,0.0,0.0,0.0,0.0,-4.8593,-4.8261,-4.7656,-4.6797,-4.6797,-4.6621,-4.6308,-4.6308,-4.6308,-4.6308,-4.6308,-4.6308,0.0,0.0,0.0,0.0,0.0,0.0,-4.6052,0.0,0.0,0.0,0.0,0.0,0.0,0.0,0.0,0.0,0.0,0.0,0.0,0.0,-4.6162,-4.6718,-4.719,-4.7325,-4.7322,-4.7317,-4.6871,-4.6452,-4.6452,-4.6014,-4.5594,-4.5594,-4.5594,-4.5594,-4.5594,-4.5883,-4.6528,-4.7875,-4.8375,-4.9077,-5.05,0.0,0.0,-5.1706,0.0,0.0,0.0,0.0,0.0,0.0,0.0,0.0,0.0,0.0,-5.1327,-5.1362,-5.1386,-5.1406,-5.1406,-5.1406,-5.1405,-5.1402,-5.14,-5.1394,-5.1403,0.0,0.0,0.0,0.0,0.0,0.0,-5.1394,-5.1394,-5.1394,-5.1394,-5.1394,-5.1394,-5.1394,-5.1394,-5.1394,0.0,0.0,0.0,0.0,0.0,0.0,0.0,-5.0898,-5.0898,-5.0898,-5.0898,-5.0898,-5.0898,-5.0898,-5.0898,-5.0898,0.0,0.0,0.0,0.0,0.0,0.0,0.0,0.0,-5.0171,-4.9371,-4.8532,-4.7675,-4.7616,-4.7167,-4.6386,-4.6328,-4.6289,-4.6289,-4.6289,-4.6289,-4.6288,-4.621,-4.6147,-4.6091,-4.6087,-4.6035,0.0,0.0,0.0,0.0,0.0,0.0,0.0,0.0,0.0,0.0,0.0,0.0,0.0,0.0,0.0,0.0,0.0,-4.57,-4.57,-4.57,-4.5687,-4.5693,-4.5693,-4.564,0.0,-4.5594,-4.5594,-4.5594,-4.5594,-4.6317,-4.7154,-4.7971,-4.8836,-4.9702,0.0,-5.0759,0.0,0.0,-5.4227,0.0,0.0,0.0,0.0,0.0,0.0,0.0,0.0,0.0,0.0,-5.1286,-5.1361,-5.1406,-5.1406,-5.1406,-5.1405,-5.1398,-5.1398,-5.1393,-5.1396,0.0,0.0,0.0,0.0,0.0,0.0,-5.1394,-5.1394,-5.1394,-5.1394,-5.1394,-5.1394,-5.1394,-5.1394,-5.1394,0.0,0.0,0.0,0.0,0.0,0.0,0.0,0.0,0.0,0.0,-5.0898,-5.0898,-5.0898,-5.0898,-5.0909,0.0,0.0,0.0,0.0,0.0,0.0,0.0,0.0,0.0,-4.9913,-4.9694,-4.9198,-4.836,-4.7694,-4.7313,-4.7206,-4.6545,-4.6215,-4.6215,-4.6215,-4.62,-4.6142,-4.6072,-4.6041,-4.6013,-4.5902,-4.5867,0.0,0.0,0.0,0.0,-4.5807,-4.5807,0.0,0.0,0.0,0.0,0.0,0.0,0.0,0.0,-4.5715,-4.5708,-4.5646,0.0,-4.569,-4.5637,-4.562,-4.5631,0.0,-4.5603,-4.5594,-4.5594,-4.5594,-4.5594,-4.5594,-4.6317,-4.7154,-4.7971,-4.8836,-4.9702,-5.0576,-5.1324,0.0,-5.3337,-5.4263,0.0,0.0,0.0,0.0,0.0,0.0,0.0,0.0,0.0,0.0,-5.1147,-5.1269,-5.1357,-5.1405,-5.1405,-5.1404,-5.1398,-5.1398,-5.1395,-5.1407,0.0,0.0,0.0,0.0,0.0,-5.1394,-5.1394,-5.1394,-5.1394,-5.1394,-5.1394,-5.1394,-5.1394,-5.1394,-5.1394,0.0,0.0,0.0,0.0,0.0,0.0,0.0,0.0,0.0,0.0,0.0,0.0,0.0,0.0,0.0,0.0,0.0,0.0,0.0,0.0,0.0,0.0,0.0,-5.0825,-5.0369,-5.0345,-4.9965,-4.9153,-4.8308,-4.7738,-4.7384,-4.6557,-4.6153,-4.6153,-4.6153,-4.6118,-4.6059,-4.6027,-4.5969,-4.5892,-4.5834,0.0,0.0,0.0,0.0,0.0,-4.5807,-4.5807,0.0,-4.5807,-4.5807,-4.5807,0.0,0.0,0.0,0.0,-4.5708,-4.5684,-4.562,-4.5631,-4.5648,-4.5622,-4.5594,-4.5594,-4.5594,-4.5594,-4.5594,-4.5594,-4.5594,-4.5729,-4.6124,-4.6912,-4.7767,-4.8567,-4.9451,0.0,0.0,0.0,-5.3086,-5.4,0.0,0.0,0.0,0.0,0.0,0.0,0.0,0.0,0.0,0.0,0.0,0.0,-5.1203,-5.1272,-5.1314,-5.1379,-5.138,-5.1357,-5.139,-5.1391,-5.1403,0.0,0.0,0.0,0.0,0.0,-5.1394,-5.1394,-5.1394,-5.1394,-5.1394,-5.1394,-5.1394,-5.1394,-5.1394,-5.1394,0.0,0.0,0.0,0.0,0.0,0.0,0.0,0.0,0.0,0.0,0.0,0.0,0.0,0.0,0.0,0.0,0.0,0.0,0.0,0.0,0.0,0.0,-5.0919,-5.094,-5.0951,-5.0957,-5.0619,-4.9937,-4.9138,-4.8307,-4.7445,-4.6633,-4.6197,-4.608,-4.6068,-4.6022,-4.5975,-4.5975,-4.5892,-4.5807,-4.5807,0.0,0.0,0.0,0.0,0.0,0.0,0.0,0.0,-4.5807,-4.5807,-4.5807,-4.5807,0.0,0.0,0.0,0.0,0.0,-4.5629,-4.5622,-4.5603,-4.5594,-4.5594,-4.5594,-4.5594,-4.5594,-4.5633,-4.5768,-4.5806,-4.6056,-4.6941,-4.7804,-4.8603,-4.9298,0.0,0.0,-5.1973,-5.2912,-5.3826,-5.4697,0.0,0.0,0.0,0.0,0.0,0.0,0.0,0.0,0.0,0.0,0.0,0.0,-5.1147,-5.1174,-5.1141,-5.1308,-5.1341,-5.1278,-5.1338,-5.1351,-5.1364,-5.1364,0.0,0.0,0.0,0.0,-5.1394,-5.1394,-5.1394,-5.1394,-5.1394,-5.1394,-5.1394,-5.1394,-5.1394,-5.1394,0.0,0.0,0.0,0.0,0.0,0.0,0.0,0.0,0.0,0.0,0.0,0.0,0.0,0.0,0.0,0.0,0.0,0.0,0.0,0.0,0.0,-5.073,-5.0749,-5.0748,-5.0757,-5.0754,-5.0694,-5.0559,-4.9819,-4.9025,-4.8202,-4.74,-4.6664,-4.6003,-4.5904,-4.5841,-4.5841,-4.5841,-4.5827,-4.5807,-4.5807,0.0,0.0,0.0,0.0,0.0,0.0,0.0,0.0,-4.5807,-4.5807,-4.5807,-4.5807,0.0,0.0,0.0,0.0,0.0,-4.5682,-4.5673,-4.5665,-4.5603,-4.5594,-4.5594,-4.5594,-4.5594,-4.5806,-4.6547,-4.6701,-4.696,-4.7841,-4.8662,-4.9268,-4.9469,0.0,-5.1099,0.0,0.0,-5.3826,0.0,0.0,0.0,0.0,0.0,0.0,0.0,0.0,0.0,0.0,0.0,0.0,0.0,0.0,-5.1062,-5.0954,-5.1147,-5.1206,-5.1123,-5.1138,-5.1174,-5.1222,-5.1222,-5.1294,0.0,0.0,0.0,-5.1394,-5.1394,-5.1394,-5.1394,-5.1394,-5.1394,-5.1394,-5.1394,-5.1394,-5.1394,0.0,0.0,0.0,0.0,0.0,0.0,0.0,0.0,0.0,0.0,0.0,0.0,0.0,0.0,0.0,0.0,0.0,0.0,0.0,0.0,-5.0712,-5.0712,-5.0712,-5.0712,-5.0712,-5.0693,-5.0702,-5.0702,-4.9928,-4.9137,-4.8322,-4.7029,-4.6248,-4.5899,-4.5834,-4.5807,-4.5807,-4.5807,-4.5807,-4.5807,0.0,0.0,0.0,0.0,0.0,0.0,0.0,0.0,0.0,0.0,-4.5807,-4.5807,-4.5807,0.0,0.0,0.0,0.0,0.0,-4.5665,-4.5665,-4.5693,-4.5657,-4.5646,-4.5778,-4.6249,-4.6339,-4.6544,-4.7419,-4.7566,-4.7826,-4.8727,-4.9208,-4.9639,-5.0162,0.0,-5.1316,-5.2672,0.0,0.0,0.0,0.0,0.0,0.0,0.0,0.0,0.0,0.0,0.0,0.0,0.0,0.0,0.0,0.0,-5.0954,-5.0898,-5.0991,-5.1049,-5.1056,-5.1089,-5.1102,-5.1084,-5.1084,-5.1178,0.0,0.0,-5.133,-5.1394,-5.1394,-5.1394,-5.1394,-5.1394,-5.1394,-5.1394,-5.1394,-5.1394,-5.1394,0.0,0.0,0.0,0.0,0.0,0.0,0.0,0.0,0.0,0.0,0.0,0.0,0.0,0.0,0.0,0.0,0.0,0.0,0.0,-5.0712,-5.0712,-5.0712,-5.0712,-5.0712,-5.0712,-5.0712,-5.0712,-5.0712,-5.0076,-4.9274,-4.8265,-4.658,-4.5778,-4.5778,-4.5778,-4.5778,-4.5778,-4.5786,-4.5793,-4.5793,0.0,0.0,0.0,0.0,0.0,0.0,0.0,0.0,0.0,0.0,0.0,0.0,0.0,0.0,0.0,-4.5734,-4.5704,-4.5692,-4.5646,-4.5665,-4.5701,-4.5701,-4.5841,-4.6155,-4.6838,-4.7086,-4.7428,-4.8312,-4.8459,-4.871,-4.9613,-4.9802,0.0,-5.0769,-5.0897,-5.1438,0.0,0.0,0.0,0.0,0.0,0.0,0.0,0.0,0.0,0.0,0.0,0.0,0.0,0.0,0.0,0.0,0.0,0.0,-5.0898,-5.0898,-5.0929,-5.0981,-5.1005,-5.1017,-5.0972,-5.0985,-5.105,-5.115,-5.115,-5.1207,-5.1319,-5.1319,-5.1327,-5.1357,-5.1357,-5.1364,-5.1394,-5.1394,-5.1394,-5.1394,0.0,0.0,0.0,0.0,0.0,0.0,0.0,0.0,0.0,0.0,0.0,0.0,0.0,0.0,0.0,0.0,0.0,0.0,0.0,-5.0712,-5.0712,-5.0712,-5.0712,-5.0712,-5.0712,-5.0712,-5.0712,-5.0712,-5.0635,-4.9823,-4.8254,-4.6526,-4.5715,-4.5715,-4.5715,-4.5715,-4.5715,-4.5773,-4.5788,-4.5795,-4.5793,0.0,0.0,0.0,0.0,0.0,0.0,0.0,0.0,0.0,0.0,0.0,0.0,0.0,-4.5807,-4.58,-4.5749,-4.5708,-4.57,-4.5706,-4.5701,-4.5701,-4.6251,-4.6838,-4.6965,-4.7523,-4.8278,-4.9209,-4.9401,-4.9652,-5.047,-5.067,-5.0724,-5.081,-5.0855,0.0,0.0,0.0,0.0,0.0,0.0,0.0,0.0,0.0,0.0,0.0,0.0,0.0,0.0,0.0,0.0,0.0,0.0,0.0,-5.0898,-5.0898,-5.0901,-5.0916,-5.0844,-5.0855,-5.0923,-5.0905,-5.0951,-5.102,-5.102,-5.1025,-5.1031,-5.1031,-5.1094,-5.1211,-5.1211,-5.1291,-5.1394,-5.1394,-5.1394,-5.1394,0.0,0.0,0.0,0.0,0.0,0.0,0.0,0.0,0.0,0.0,0.0,0.0,0.0,0.0,0.0,0.0,0.0,0.0,0.0,-5.0712,-5.0712,-5.0712,-5.0712,-5.0712,-5.0712,-5.0712,-5.0712,-5.0712,-4.9653,-4.8841,-4.8204,-4.6502,-4.5708,-4.5708,-4.5708,-4.5708,-4.5708,-4.5723,-4.575,-4.5731,-4.5746,-4.5769,0.0,0.0,0.0,0.0,0.0,0.0,0.0,0.0,-4.5807,-4.58,-4.5798,-4.5805,-4.5793,-4.5758,-4.575,-4.575,-4.5703,-4.573,-4.5889,-4.6378,-4.7133,-4.7786,-4.7796,-4.8411,-4.9236,-5.013,-5.0303,-5.04,-5.0708,-5.0827,-5.0869,-5.0863,-5.0869,0.0,0.0,0.0,0.0,0.0,0.0,0.0,0.0,0.0,0.0,0.0,0.0,0.0,0.0,0.0,0.0,0.0,0.0,0.0,0.0,-5.0898,-5.089,-5.0893,-5.0836,-5.0791,-5.0789,-5.0784,-5.0822,-5.0937,-5.0937,-5.0972,-5.1002,-5.1002,-5.1031,-5.1074,-5.1074,-5.1118,-5.115,-5.115,-5.115,-5.1159,0.0,0.0,0.0,0.0,0.0,0.0,0.0,0.0,0.0,0.0,0.0,0.0,0.0,0.0,0.0,0.0,0.0,0.0,-5.0712,-5.0712,-5.0712,-5.0712,-5.0712,-5.0712,-5.0712,-5.0712,-5.0712,-5.0712,-4.8999,-4.8035,-4.7766,-4.6318,-4.5668,-4.5668,-4.5668,-4.5668,-4.5668,-4.5703,-4.5703,-4.5703,-4.57,-4.5723,0.0,0.0,0.0,0.0,0.0,0.0,0.0,0.0,-4.5771,-4.5764,-4.5773,-4.5769,-4.5757,-4.5711,-4.5727,-4.5758,-4.5714,-4.5727,-4.597,-4.6788,-4.7667,-4.837,-4.8651,-4.9324,-5.0061,-5.0694,-5.0793,-5.0784,-5.081,-5.0852,0.0,0.0,0.0,0.0,0.0,0.0,0.0,0.0,0.0,0.0,0.0,0.0,0.0,0.0,0.0,0.0,0.0,0.0,0.0,0.0,0.0,0.0,0.0,-5.0898,-5.0898,-5.0898,-5.0836,-5.0784,-5.072,-5.0712,-5.0739,-5.0833,-5.0833,-5.0859,-5.0911,-5.0911,-5.0926,-5.0966,-5.099,-5.1002,-5.1002,-5.1002,-5.1002,-5.102,0.0,0.0,0.0,0.0,0.0,0.0,0.0,0.0,0.0,0.0,0.0,0.0,0.0,0.0,0.0,0.0,0.0,0.0,-5.0712,-5.0712,-5.0712,-5.0712,-5.0712,-5.0712,-5.0712,-5.0693,-5.0693,-5.0693,-4.8952,-4.7702,-4.6885,-4.6009,-4.5594,-4.5594,-4.5594,-4.5594,-4.5594,-4.5665,-4.5701,-4.5701,-4.5703,-4.5708,-4.5708,0.0,0.0,0.0,0.0,0.0,0.0,0.0,-4.5708,-4.5708,-4.5708,-4.5708,-4.5708,-4.5708,-4.5708,-4.5708,-4.5708,-4.5708,-4.592,-4.6788,-4.7656,-4.8533,-4.9404,-5.0175,-5.0748,-5.0863,-5.0784,-5.0729,-5.0883,-5.0846,0.0,0.0,0.0,0.0,0.0,0.0,0.0,0.0,0.0,0.0,0.0,0.0,0.0,0.0,0.0,0.0,0.0,0.0,0.0,0.0,0.0,0.0,0.0,-5.0898,-5.0898,-5.0898,-5.0836,-5.0801,-5.0801,-5.072,-5.0692,-5.0712,-5.0712,-5.0712,-5.0712,-5.0712,-5.0785,-5.091,-5.0972,-5.1002,-5.1002,-5.1002,-5.1002,-5.102,0.0,0.0,0.0,0.0,0.0,0.0,0.0,0.0,0.0,0.0,0.0,0.0,0.0,0.0,0.0,0.0,0.0,0.0,-5.0712,-5.0712,-5.0712,-5.0712,-5.0712,-5.0712,-5.0712,-5.0087,-4.9779,-4.9779,-4.8644,-4.7702,-4.6885,-4.6009,-4.5594,-4.5594,-4.5594,-4.5594,-4.5594,-4.5631,-4.5631,-4.5631,-4.5629,-4.5654,-4.5698,0.0,0.0,0.0,0.0,0.0,0.0,0.0,0.0,0.0,-4.5687,-4.5703,-4.5692,-4.5635,-4.5703,-4.5765,-4.5715,-4.5727,-4.6112,-4.755,-4.8102,-4.8689,-5.0185,-5.0645,-5.0793,-5.0891,-5.0883,-5.0846,-5.0899,-5.0877,0.0,0.0,0.0,0.0,0.0,0.0,0.0,0.0,0.0,0.0,0.0,0.0,0.0,0.0,0.0,0.0,0.0,0.0,0.0,0.0,0.0,0.0,0.0,0.0,-5.0909,-5.0897,-5.0872,-5.0846,-5.0793,-5.073,-5.0702,-5.0712,-5.0712,-5.0712,-5.0712,-5.0712,-5.0721,-5.0767,-5.0782,-5.078,-5.078,-5.078,-5.078,-5.0805,0.0,0.0,0.0,0.0,0.0,0.0,0.0,0.0,0.0,0.0,-5.0901,-5.0897,0.0,0.0,0.0,0.0,0.0,0.0,0.0,-5.0712,-5.0712,-5.0712,-5.0712,-5.0712,-5.0712,-4.9856,-4.9221,-4.8875,-4.8048,-4.7201,-4.6374,-4.5845,-4.5594,-4.5594,-4.5594,-4.5594,-4.5594,-4.5594,-4.5594,-4.5594,-4.5594,-4.5631,-4.5657,0.0,0.0,0.0,0.0,0.0,0.0,0.0,0.0,0.0,-4.5665,-4.5654,-4.5671,-4.5629,-4.5687,-4.5758,-4.5731,-4.5776,-4.6206,-4.7917,-4.8334,-4.8798,-5.0521,-5.0872,-5.0852,-5.0897,-5.0888,-5.0908,-5.0905,-5.0893,0.0,0.0,0.0,0.0,0.0,0.0,0.0,0.0,0.0,0.0,0.0,0.0,0.0,0.0,0.0,0.0,0.0,0.0,0.0,0.0,0.0,0.0,0.0,0.0,0.0,-5.0899,-5.0846,-5.0793,-5.0766,-5.0721,-5.0702,-5.0712,-5.0712,-5.0712,-5.0712,-5.0712,-5.0712,-5.0712,-5.0712,-5.0712,-5.0712,-5.0712,-5.0712,-5.0721,0.0,0.0,0.0,0.0,0.0,0.0,0.0,0.0,0.0,0.0,-5.0898,-5.0901,0.0,0.0,0.0,0.0,0.0,0.0,0.0,-5.0712,-5.0712,-5.0712,-5.0712,-5.0654,-5.0577,-4.9721,-4.8856,-4.799,-4.725,-4.6451,-4.5594,-4.5594,-4.5594,-4.5594,-4.5594,-4.5594,-4.5594,-4.5594,-4.5594,-4.5594,-4.5594,-4.5594,-4.5614,-4.5676,0.0,0.0,0.0,0.0,0.0,0.0,0.0,0.0,-4.5594,-4.5594,-4.5603,-4.5665,-4.5706,-4.5715,-4.5773,-4.5791,-4.6213,-4.7966,-4.8508,-4.9042,-5.0549,-5.0893,-5.0898,-5.0898,-5.0905,-5.0897,-5.089,-5.0893,0.0,0.0,0.0,0.0,0.0,0.0,0.0,0.0,0.0,0.0,0.0,0.0,0.0,0.0,0.0,0.0,0.0,0.0,0.0,0.0,0.0,0.0,0.0,0.0,0.0,0.0,-5.0766,-5.0692,-5.0692,-5.0692,-5.0712,-5.0712,-5.0712,-5.0712,-5.0712,-5.0712,-5.0712,-5.0712,-5.0712,-5.0712,-5.0712,-5.0712,-5.0712,-5.0721,0.0,0.0,0.0,0.0,0.0,0.0,0.0,0.0,0.0,0.0,0.0,0.0,0.0,0.0,0.0,0.0,0.0,0.0,0.0,-5.0712,-5.0712,-5.0712,-5.0712,-5.0385,-4.9683,-4.8836,-4.799,-4.7154,-4.6981,-4.6451,-4.5594,-4.5594,-4.5594,-4.5594,-4.5594,-4.5594,-4.5594,-4.5594,-4.5594,-4.5594,-4.5594,-4.5594,-4.5594,-4.5622,-4.5631,0.0,0.0,0.0,0.0,0.0,0.0,0.0,-4.5594,-4.5594,-4.5594,-4.5622,-4.5662,-4.5708,-4.5715,-4.5749,-4.6213,-4.7966,-4.9397,-5.0453,-5.0813,-5.089,-5.089,-5.0897,-5.0893,-5.0909,-5.0898,0.0,0.0,0.0,0.0,0.0,0.0,0.0,0.0,0.0,0.0,0.0,0.0,0.0,0.0,0.0,0.0,0.0,0.0,0.0,0.0,0.0,0.0,0.0,-5.0897,-5.0855,-5.0793,0.0,-5.071,-5.0702,-5.0702,-5.0702,-5.0702,-5.0712,-5.0712,-5.0712,-5.0712,-5.0712,-5.0712,-5.0712,-5.0712,-5.0712,-5.0712,-5.0712,-5.0712,-5.0693,0.0,0.0,0.0,0.0,0.0,0.0,0.0,0.0,0.0,0.0,0.0,0.0,0.0,0.0,0.0,0.0,0.0,0.0,0.0,0.0,-5.0712,-5.0712,-5.0712,-5.0289,-4.9413,-4.8548,-4.7721,-4.6904,-4.649,-4.6047,-4.5594,-4.5594,-4.5825,-4.622,-4.622,-4.6432,-4.6797,-4.6797,-4.6797,-4.6797,-4.6797,-4.6567,-4.622,-4.622,-4.5951,-4.5594,-4.5594,0.0,0.0,0.0,0.0,0.0,0.0,0.0,-4.5614,-4.564,-4.5682,-4.5703,-4.5743,-4.5769,-4.6223,-4.7966,-4.9668,-5.0898,-5.0898,-5.0898,-5.089,-5.0893,-5.0901,-5.0898,0.0,0.0,0.0,0.0,0.0,0.0,0.0,0.0,0.0,0.0,0.0,0.0,0.0,0.0,0.0,0.0,0.0,0.0,0.0,0.0,0.0,0.0,0.0,0.0,-5.0855,-5.0784,-5.0729,-5.0701,-5.0692,-5.0693,-5.0712,-5.0712,-5.0712,-5.0712,-5.0712,-5.0712,-5.0712,-5.0712,-5.0712,-5.0712,-5.0712,-5.0712,-5.0712,-5.0712,-5.0712,-5.0712,0.0,0.0,0.0,0.0,0.0,0.0,0.0,0.0,0.0,0.0,0.0,0.0,0.0,0.0,0.0,0.0,0.0,0.0,0.0,0.0,0.0,-5.0481,-5.0481,-4.999,-4.899,-4.8259,-4.749,-4.6682,-4.6105,-4.5825,-4.5825,-4.5825,-4.6278,-4.7096,-4.7096,-4.749,-4.8105,-4.8105,-4.8105,-4.8105,-4.8105,-4.7702,-4.7077,-4.6942,-4.6451,-4.5806,-4.5652,-4.5594,-4.5594,-4.5594,0.0,0.0,0.0,0.0,-4.5603,-4.5676,-4.5693,-4.5717,-4.577,-4.5889,-4.6414,-4.7997,-4.9571,-5.0724,-5.0859,-5.0898,-5.0898,-5.0898,-5.0898,-5.0898,0.0,0.0,0.0,0.0,0.0,0.0,0.0,0.0,0.0,0.0,0.0,0.0,0.0,0.0,0.0,0.0,0.0,0.0,0.0,0.0,0.0,0.0,0.0,-5.0784,-5.0784,-5.073,-5.0711,-5.0702,-5.0712,-5.0712,-5.0712,-5.0712,-5.0712,-5.0712,-5.0712,-5.0712,-5.0712,-5.0712,-5.0712,-5.0712,-5.0712,-5.0712,-5.0712,-5.0712,-5.0712,-5.0712,0.0,0.0,0.0,0.0,0.0,0.0,0.0,0.0,0.0,0.0,-5.0905,-5.0863,0.0,0.0,0.0,0.0,0.0,0.0,0.0,0.0,0.0,-4.9606,-4.9567,-4.8836,-4.7278,-4.7115,-4.6644,-4.5768,-4.6413,-4.674,-4.674,-4.674,-4.7163,-4.7952,-4.7952,-4.8009,-4.8105,-4.8105,-4.8105,-4.8105,-4.8105,-4.8048,-4.7855,-4.7173,-4.6836,-4.6624,-4.5874,-4.5594,-4.5594,-4.5594,-4.5594,0.0,0.0,0.0,-4.5594,-4.5622,-4.5648,-4.5701,-4.5717,-4.6314,-4.7167,-4.8152,-4.9146,-5.0035,-5.0743,-5.0898,-5.0898,0.0,-5.0898,0.0,0.0,0.0,0.0,0.0,0.0,0.0,0.0,0.0,0.0,0.0,0.0,0.0,0.0,0.0,0.0,0.0,0.0,0.0,0.0,0.0,-5.0801,-5.0801,-5.0738,0.0,-5.071,-5.0702,-5.0702,-5.0702,-5.0693,-5.0712,-5.0712,-5.0712,-5.0712,-5.0712,-5.0712,-5.0712,-5.0712,-5.0712,-5.0712,-5.0712,-5.0712,-5.0712,-5.0712,-5.0712,-5.0712,-5.0712,0.0,0.0,0.0,0.0,0.0,0.0,0.0,0.0,0.0,0.0,0.0,-5.0775,0.0,0.0,0.0,0.0,0.0,0.0,0.0,0.0,0.0,-4.9413,-4.8787,-4.7952,-4.6923,-4.6743,-4.6551,-4.6336,-4.6721,-4.7375,-4.8298,-4.8298,-4.849,-4.8836,-4.8836,-4.9106,-4.9548,-4.9548,-4.9548,-4.9548,-4.9548,-4.8971,-4.8105,-4.8259,-4.7413,-4.6182,-4.6297,-4.6009,-4.5594,-4.5594,-4.5594,-4.5594,-4.5594,0.0,0.0,0.0,-4.5622,-4.5657,-4.5687,-4.6399,-4.7187,-4.7572,-4.8682,-4.9784,-5.0152,-5.0569,-5.0898,-5.0898,0.0,0.0,0.0,0.0,0.0,0.0,0.0,0.0,0.0,0.0,0.0,0.0,0.0,0.0,0.0,0.0,0.0,0.0,0.0,0.0,-5.074,-5.0739,-5.0739,-5.074,-5.0712,0.0,-5.0702,-5.0702,-5.0712,-5.0712,-5.0712,-5.0712,-5.0712,-5.0712,-5.0712,-5.0712,-5.0712,-5.0712,-5.0712,-5.0712,-5.0712,-5.0712,-5.0712,-5.0712,-5.0712,-5.0712,-5.0712,-5.0712,0.0,0.0,0.0,0.0,0.0,0.0,0.0,0.0,0.0,0.0,0.0,0.0,0.0,0.0,0.0,0.0,0.0,0.0,0.0,0.0,0.0,-4.8574,-4.7745,-4.7092,-4.6684,-4.6481,-4.6577,-4.6991,-4.7201,-4.7959,-4.9177,-4.9459,-4.9604,-4.9604,-4.9702,-5.0087,-5.0712,-5.0712,-5.0712,-5.0673,-5.0462,-4.9586,-4.8452,-4.8682,-4.7586,-4.599,-4.6413,-4.6144,-4.5594,-4.5594,-4.5594,-4.5594,-4.5594,-4.5594,0.0,0.0,0.0,-4.5612,-4.5687,-4.6217,-4.6789,-4.7035,-4.8087,-4.915,-4.9602,0.0,-5.0647,0.0,0.0,0.0,0.0,0.0,0.0,0.0,0.0,0.0,0.0,0.0,0.0,0.0,0.0,0.0,0.0,0.0,0.0,0.0,0.0,0.0,-5.0693,-5.0702,-5.0702,-5.0693,-5.0712,-5.0712,-5.0712,-5.0712,-5.0712,-5.0712,-5.0712,-5.0712,-5.0712,-5.0712,-5.0712,-5.0712,-5.0712,-5.0712,-5.0712,-5.0712,-5.0712,-5.0712,-5.0712,-5.0712,-5.0712,-5.0712,-5.0712,-5.0712,0.0,0.0,0.0,0.0,0.0,0.0,0.0,0.0,0.0,0.0,0.0,0.0,-5.0701,-5.0702,-5.0712,-5.0712,-5.0712,0.0,0.0,0.0,0.0,-4.6303,-4.6215,0.0,-4.6045,-4.6032,-4.6436,-4.7283,-4.8035,-4.8452,-4.8579,-4.9642,-5.0161,-5.0172,-5.0497,-5.0654,-5.0712,-5.0712,-5.0712,-5.0635,-4.9798,-4.9413,-4.9163,-4.7625,-4.6942,-4.674,-4.5951,-4.5633,-4.5594,-4.5594,-4.5594,-4.5594,-4.5594,-4.5594,-4.5594,0.0,0.0,0.0,-4.5673,-4.5748,-4.5995,-4.6874,-4.716,-4.767,-4.9312,0.0,0.0,0.0,0.0,0.0,0.0,0.0,0.0,0.0,0.0,0.0,0.0,0.0,0.0,0.0,0.0,0.0,0.0,0.0,0.0,0.0,0.0,0.0,-5.0712,-5.0693,-5.0693,-5.0712,-5.0712,-5.0712,-5.0712,-5.0712,-5.0712,-5.0712,-5.0712,-5.0712,-5.0712,-5.0712,-5.0712,-5.0712,-5.0712,-5.0712,-5.0712,-5.0712,-5.0712,-5.0712,-5.0712,-5.0712,-5.0712,-5.0712,-5.0712,-5.0712,0.0,0.0,0.0,0.0,0.0,0.0,0.0,0.0,0.0,0.0,0.0,0.0,0.0,-4.9865,-4.9807,-4.9614,-4.9927,0.0,0.0,0.0,0.0,-4.7649,-4.6979,-4.6687,-4.6833,-4.6674,-4.707,-4.8058,-4.8356,-4.8878,-4.9605,-5.0007,-5.0306,-5.0534,-5.0653,-5.0712,-5.0712,-5.0712,-5.0712,-5.0616,-4.974,-4.9067,-4.8509,-4.7894,-4.7009,-4.6105,-4.6355,-4.6067,-4.5594,-4.5594,-4.5594,-4.5594,-4.5594,-4.5594,-4.5568,-4.5381,-4.5222,-4.5096,-4.518,-4.5191,-4.5269,-4.5589,-4.6282,-4.7015,-4.763,-4.8337,-4.9107,0.0,0.0,0.0,0.0,0.0,0.0,0.0,0.0,0.0,0.0,0.0,0.0,0.0,0.0,0.0,0.0,0.0,0.0,0.0,0.0,0.0,-5.0712,-5.0712,-5.0712,-5.0712,-5.0712,-5.0712,-5.0712,-5.0712,-5.0712,-5.0712,-5.0712,-5.0712,-5.0712,-5.0712,-5.0712,-5.0712,-5.0712,-5.0712,-5.0712,-5.0712,-5.0712,-5.0712,-5.0712,-5.0712,-5.0712,-5.0712,-5.0712,-5.0712,0.0,0.0,0.0,0.0,0.0,0.0,0.0,0.0,0.0,-4.9827,0.0,0.0,0.0,0.0,-4.9608,-4.9423,-4.9391,-4.944,-4.9531,-4.8551,-4.7956,-4.7956,-4.7181,-4.6994,-4.7414,-4.6994,-4.7369,-4.8629,-4.8365,-4.8763,-4.9771,-4.9878,-5.0057,-5.0264,-5.0355,-5.0513,-5.0712,-5.0712,-5.0712,-5.0596,-4.9433,-4.8798,-4.8471,-4.7913,-4.7009,-4.6105,-4.6701,-4.6336,-4.5594,-4.5594,-4.5594,-4.5577,-4.5495,-4.541,-4.5302,-4.5107,-4.495,-4.48,-4.4849,-4.4879,-4.4872,-4.4893,-4.5491,-4.6194,-4.657,0.0,0.0,0.0,0.0,0.0,0.0,0.0,0.0,0.0,0.0,0.0,0.0,0.0,0.0,0.0,0.0,0.0,0.0,0.0,0.0,0.0,0.0,0.0,-5.0712,-5.0712,-5.0712,-5.0712,-5.0712,-5.0712,-5.0712,-5.0712,-5.0712,-5.0712,-5.0712,-5.0712,-5.0712,-5.0712,-5.0712,-5.0712,-5.0712,-5.0712,-5.0712,-5.0712,-5.0712,-5.0712,-5.0712,-5.0712,-5.0712,-5.0712,-5.0712,-5.0712,0.0,0.0,0.0,0.0,0.0,0.0,0.0,0.0,-4.8105,-4.8125,0.0,0.0,0.0,0.0,0.0,-5.0168,-4.9214,-4.8739,-4.8991,-4.7727,-4.6955,-4.6955,0.0,0.0,-4.772,-4.6977,-4.7348,-4.8909,-4.8129,-4.8129,-4.8926,-4.9257,-4.9396,-4.9411,-4.9679,-5.013,-5.0683,-5.0683,-5.0683,-5.0548,-4.8836,-4.8625,-4.9183,-4.7528,-4.6885,-4.6846,-4.6846,-4.6317,-4.5594,-4.5586,-4.5586,-4.5531,-4.5263,-4.5007,-4.4788,-4.4788,-4.4776,-4.4776,0.0,0.0,0.0,-4.4868,-4.4872,0.0,-4.6289,0.0,0.0,0.0,0.0,0.0,0.0,0.0,0.0,0.0,0.0,0.0,0.0,0.0,0.0,0.0,0.0,0.0,0.0,0.0,0.0,0.0,0.0,-5.0712,-5.0712,-5.0712,-5.0712,-5.0712,-5.0712,-5.0712,-5.0712,-5.0712,-5.0712,-5.0712,-5.0712,-5.0712,-5.0712,-5.0712,-5.0712,-5.0712,-5.0712,-5.0712,-5.0712,-5.0712,-5.0712,-5.0712,-5.0712,-5.0712,-5.0712,-5.0712,-5.0712,-5.0712,0.0,0.0,0.0,0.0,0.0,0.0,-4.8144,-4.8105,-4.8336,0.0,0.0,0.0,-4.9297,-4.9302,-4.9335,-4.9335,-4.9232,-4.9204,-4.9273,-4.8709,-4.8354,-4.8354,-4.8272,-4.8333,-4.8556,-4.8351,-4.8444,-4.8909,-4.8686,-4.8822,-4.9255,-4.9368,-4.9499,-4.9679,-4.9776,-5.0,-5.0347,-5.0347,-5.0347,-5.0262,-4.9394,-4.8817,-4.8355,-4.7298,-4.6509,-4.5951,-4.5951,-4.5806,-4.5568,0.0,-4.5312,-4.5253,-4.4996,-4.4726,-4.4506,-4.4506,-4.4374,-4.4221,-4.4221,0.0,0.0,0.0,0.0,0.0,0.0,0.0,0.0,0.0,0.0,0.0,0.0,0.0,0.0,0.0,0.0,0.0,0.0,0.0,0.0,0.0,0.0,0.0,0.0,0.0,0.0,0.0,0.0,-5.0712,-5.0712,-5.0712,-5.0712,-5.0712,-5.0712,-5.0712,-5.0712,-5.0712,-5.0712,-5.0712,-5.0712,-5.0712,-5.0712,-5.0712,-5.0712,-5.0712,-5.0712,-5.0712,-5.0712,-5.0712,-5.0712,-5.0712,-5.0712,-5.0712,-5.0712,-5.0712,-5.0712,-5.0712,0.0,0.0,0.0,0.0,0.0,-4.7605,-4.7605,-4.7605,-4.7894,0.0,0.0,0.0,-4.954,-4.9321,-4.9174,-4.9174,-4.9309,-4.9442,-4.9573,-4.9286,-4.911,-4.911,-4.8959,-4.8909,-4.8909,-4.8574,-4.8556,-4.8909,-4.8556,-4.8658,-4.9193,-4.9193,-4.9268,-4.9416,-4.9416,-4.9594,-4.987,-5.0,-5.0171,-5.0306,-4.9288,-4.8779,-4.8509,-4.7336,-4.6797,0.0,0.0,0.0,-4.5937,-4.5622,-4.5228,0.0,-4.4688,-4.4457,-4.4236,-4.4236,-4.4121,-4.4005,-4.4005,-4.4005,-4.4005,-4.4005,0.0,0.0,-4.4425,-4.4574,0.0,0.0,0.0,0.0,0.0,0.0,0.0,0.0,0.0,0.0,0.0,0.0,0.0,0.0,0.0,0.0,0.0,0.0,0.0,0.0,-5.0614,-5.0712,-5.0712,-5.0712,-5.0712,-5.0712,-5.0712,-5.0712,-5.0712,-5.0712,-5.0712,-5.0712,-5.0712,-5.0712,-5.0712,-5.0712,-5.0712,-5.0712,-5.0712,-5.0712,-5.0712,-5.0712,-5.0712,-5.0712,-5.0712,-5.0712,-5.0712,-5.0712,-5.0712,-5.0712,0.0,0.0,0.0,-4.6874,-4.6789,-4.6838,-4.6838,-4.6887,-4.7223,0.0,-4.8904,-4.9535,-4.9762,-4.9612,-4.9488,-4.9442,-4.9442,-4.9529,-4.9749,-4.9499,-4.9334,-4.9334,-4.9061,-4.8909,-4.8909,-4.8203,-4.8184,-4.8909,-4.8184,-4.8203,-4.8909,-4.8909,-4.8909,-4.8909,-4.8909,-4.9094,-4.943,-4.9655,-5.0037,-5.0384,-4.8865,-4.8644,-4.9086,-4.7578,-4.7376,-4.7886,-4.7718,-4.7201,-4.653,-4.6095,-4.5238,0.0,0.0,0.0,-4.4005,-4.4005,-4.4005,-4.4005,-4.4005,-4.4005,-4.4005,-4.4005,0.0,0.0,-4.4289,-4.436,-4.4392,0.0,0.0,0.0,0.0,0.0,0.0,0.0,0.0,0.0,0.0,0.0,0.0,0.0,0.0,0.0,0.0,0.0,-4.9923,-5.0007,-5.0393,-5.0614,-5.0634,-5.0634,-5.0663,-5.0712,-5.0712,-5.0712,-5.0712,-5.0712,-5.0712,-5.0712,-5.0712,-5.0712,-5.0712,-5.0712,-5.0712,-5.0712,-5.0712,-5.0712,-5.0712,-5.0712,-5.0712,-5.0712,-5.0712,-5.0712,-5.0712,-5.0712,-5.0712,-5.0712,0.0,-4.5979,-4.6037,-4.5883,-4.6215,-4.6505,-4.6505,-4.6912,-4.751,-4.8333,-4.9182,-4.9733,-4.9779,-4.9962,-4.9962,-4.9735,-4.9721,-4.9655,-4.9503,-4.9174,-4.8993,-4.8993,-4.8925,-4.8909,-4.8909,-4.876,-4.8742,-4.8909,-4.8742,-4.876,-4.8909,-4.8909,-4.8909,-4.8909,-4.8909,-4.9094,-4.9396,-4.9457,-4.9416,-4.933,-4.9211,-4.8836,-4.8298,-4.7756,-4.7204,-4.6778,-4.7231,-4.7283,-4.698,-4.6016,-4.4963,-4.4079,0.0,0.0,0.0,-4.4005,-4.4005,-4.4005,-4.4005,-4.4005,-4.4005,0.0,0.0,0.0,-4.4064,-4.4079,-4.3923,0.0,0.0,0.0,0.0,0.0,0.0,0.0,0.0,0.0,0.0,0.0,0.0,0.0,0.0,0.0,0.0,0.0,-4.8156,-4.8865,-4.9569,-5.0062,-5.0283,-5.0294,-5.0421,-5.0683,-5.0712,-5.0712,-5.0712,-5.0712,-5.0712,-5.0712,-5.0712,-5.0712,-5.0712,-5.0712,-5.0712,-5.0712,-5.0712,-5.0712,-5.0712,-5.0712,-5.0712,-5.0712,-5.0712,-5.0712,-5.0712,-5.0712,-5.0712,-5.0712,-4.5161,-4.5201,-4.5201,-4.5201,-4.5761,-4.6354,-4.6773,-4.746,-4.8257,-4.9214,-4.9875,-5.013,-4.9844,-5.0031,-4.9968,-4.9401,-4.951,-4.9484,-4.9176,-4.8993,-4.8909,-4.8909,-4.8909,-4.8909,-4.8909,-4.8909,-4.8909,-4.8909,-4.8909,-4.8909,-4.8909,-4.8909,-4.8686,-4.8314,-4.8723,-4.8628,-4.8176,-4.8589,-4.8513,-4.8153,-4.8289,0.0,-4.7259,-4.6973,-4.6849,-4.6908,-4.7497,-4.7607,-4.729,-4.59,-4.5093,0.0,-4.4135,-4.4005,-4.4005,0.0,-4.4005,-4.4005,0.0,0.0,0.0,-4.4005,0.0,0.0,0.0,-4.4005,-4.3763,0.0,0.0,0.0,0.0,0.0,0.0,0.0,0.0,0.0,0.0,0.0,0.0,0.0,0.0,0.0,0.0,0.0,-4.7335,-4.7915,-4.8731,-4.9257,-4.9384,-4.9784,-5.0075,-5.0245,-5.0256,-5.0333,-5.0442,-5.0442,-5.0525,-5.0712,-5.0712,-5.0712,-5.0712,-5.0712,-5.0712,-5.0712,-5.0712,-5.0712,-5.0712,-5.0712,-5.0712,-5.0712,-5.0712,-5.0712,-5.0712,-5.0712,-5.0712,-5.0712,-4.4739,-4.4788,-4.4845,-4.4996,-4.5666,-4.646,-4.7324,-4.8083,-4.8913,-4.9835,-5.019,-5.0166,-4.9693,-4.9917,-4.9825,-4.9059,-4.9331,-4.9393,-4.9027,-4.8993,-4.8978,-4.8909,-4.8909,-4.8909,-4.8909,-4.8909,-4.8909,-4.8909,-4.8909,-4.8909,-4.8909,-4.8742,-4.8314,-4.772,-4.8221,-4.7849,-4.6881,-4.7522,-4.7471,-4.6966,0.0,-4.6727,-4.6404,-4.6234,-4.6611,-4.7303,-4.8007,-4.8026,-4.7478,-4.6011,-4.5417,-4.5103,-4.4283,-4.3974,0.0,0.0,0.0,0.0,0.0,0.0,0.0,0.0,0.0,-4.3974,0.0,0.0,0.0,0.0,0.0,0.0,0.0,0.0,0.0,0.0,0.0,0.0,0.0,0.0,0.0,0.0,0.0,0.0,0.0,0.0,-4.6665,-4.6892,-4.7718,-4.8205,-4.8272,-4.9035,-4.9503,-4.957,-4.9709,-4.9891,-5.0123,-5.0123,-5.0272,-5.0604,-5.0604,-5.0653,-5.0712,-5.0712,-5.0712,-5.0712,-5.0712,-5.0712,-5.0712,-5.0712,-5.0712,-5.0712,-5.0712,-5.0712,-5.0712,-5.0712,-5.0712,-5.0712,-4.4701,-4.4788,-4.5015,-4.5742,-4.6382,-4.706,-4.7886,-4.8482,-4.8915,-4.9023,-4.9073,-4.9092,-4.9008,-4.9506,-4.9707,-4.9365,-4.9817,-4.9897,-4.9365,-4.9334,-4.9209,-4.8926,-4.8909,-4.8909,-4.8909,-4.8909,-4.8909,-4.8909,-4.8909,-4.8909,-4.889,-4.8166,-4.7794,-4.7664,-4.7051,-4.6678,-4.6559,-4.6634,-4.634,0.0,-4.5596,-4.5787,0.0,-4.6624,-4.6868,-4.7105,-4.8369,-4.833,-4.7553,0.0,-4.5813,-4.5004,0.0,-4.3913,-4.3853,-4.3976,0.0,0.0,0.0,0.0,0.0,0.0,-4.3867,0.0,0.0,0.0,0.0,0.0,0.0,0.0,0.0,0.0,0.0,0.0,0.0,0.0,0.0,0.0,0.0,0.0,0.0,0.0,0.0,0.0,0.0,-4.5525,-4.6289,-4.6844,-4.7089,-4.7859,-4.8423,-4.8717,-4.9438,-4.9798,-4.9857,-4.9857,-4.9968,-5.026,-5.026,-5.0421,-5.0712,-5.0712,-5.0712,-5.0712,-5.0712,-5.0712,-5.0712,-5.0712,-5.0712,-5.0712,-5.0712,-5.0712,-5.0712,-5.0712,-5.0712,-5.0712,-4.4294,-4.4351,-4.4599,-4.5442,-4.6199,0.0,-4.7748,-4.8618,-4.9193,-4.9193,-4.9331,-4.9358,-4.9209,-4.9569,-4.9608,-4.9141,-4.9495,-4.9554,0.0,-4.911,-4.9044,-4.8909,-4.8909,-4.8909,-4.8909,-4.8909,-4.8909,-4.8909,-4.8909,-4.8667,-4.8203,-4.7868,-4.72,-4.6308,-4.6438,-4.5955,-4.5082,-4.5584,-4.535,0.0,0.0,0.0,0.0,-4.6377,-4.7245,-4.8126,-4.8649,-4.8635,-4.8191,0.0,-4.6439,0.0,0.0,0.0,0.0,-4.3867,0.0,0.0,0.0,0.0,0.0,0.0,0.0,0.0,-4.3835,0.0,-4.3481,0.0,0.0,0.0,0.0,0.0,0.0,0.0,0.0,0.0,0.0,0.0,0.0,0.0,0.0,0.0,0.0,0.0,0.0,0.0,0.0,-4.5853,-4.5973,-4.6738,-4.723,-4.7384,-4.8171,-4.866,-4.8815,-4.9309,-4.9693,-4.9974,-4.9974,-5.0038,-5.0178,-5.0336,-5.041,-5.0421,-5.0614,-5.0712,-5.0712,-5.0712,-5.0712,-5.0712,-5.0712,-5.0712,-5.0712,-5.0712,-5.0712,-5.0712,-4.4005,-4.4191,-4.4618,-4.5472,-4.629,-4.7107,-4.7906,-4.8737,-4.9273,-4.9273,-4.9435,-4.9495,-4.927,-4.951,-4.9525,-4.9077,-4.9334,-4.938,0.0,0.0,-4.8993,-4.8909,-4.8909,0.0,-4.8909,-4.8909,-4.8909,-4.8909,-4.8686,-4.8277,-4.7683,-4.7256,-4.642,-4.5324,-4.5658,-4.5138,-4.4042,-4.4676,-4.4517,-4.3897,-4.3929,-4.4524,-4.5493,-4.6446,-4.7667,-4.8856,-4.8768,-4.8751,-4.8621,-4.7699,-4.6852,0.0,-4.5246,0.0,0.0,0.0,0.0,0.0,-4.3736,0.0,0.0,0.0,0.0,0.0,0.0,0.0,0.0,0.0,0.0,0.0,0.0,0.0,0.0,-3.9101,0.0,0.0,0.0,0.0,0.0,0.0,0.0,0.0,0.0,0.0,0.0,0.0,0.0,0.0,-4.4599,-4.5602,-4.616,-4.616,-4.694,-4.7558,-4.7982,-4.8618,-4.9201,-4.9679,-4.9679,-4.9721,-4.9817,-4.9993,-5.0099,-5.0111,-5.0355,-5.0502,-5.0565,-5.0565,-5.0614,-5.0712,-5.0712,-5.0712,-5.0712,-5.0712,-5.0712,-5.0712,-4.3989,-4.4674,-4.5509,-4.6308,-4.7125,-4.7924,0.0,-4.889,-4.8926,-4.8926,-4.8907,-4.8943,-4.8926,-4.9206,-4.9415,-4.9384,0.0,-4.9665,-4.9396,0.0,-4.9241,0.0,0.0,-4.8909,0.0,0.0,-4.8909,-4.8909,-4.8129,-4.7738,-4.7664,-4.6104,-4.5342,-4.5249,-4.4451,-4.4061,-4.4005,-4.3947,-4.3934,-4.3881,-4.3818,-4.4746,-4.6259,0.0,-4.8082,-4.8787,-4.866,0.0,0.0,-4.7664,-4.6816,0.0,0.0,0.0,0.0,0.0,0.0,0.0,0.0,0.0,0.0,-4.3515,0.0,0.0,0.0,0.0,-4.3324,0.0,0.0,0.0,0.0,-3.8993,-3.9021,-3.9087,-3.9101,0.0,0.0,0.0,0.0,0.0,0.0,0.0,0.0,0.0,0.0,0.0,0.0,0.0,-4.2872,-4.4432,-4.5342,-4.5342,-4.6122,-4.6921,-4.77,-4.7737,-4.831,-4.9396,-4.9396,-4.9558,-4.9803,-4.9817,-4.9798,-4.9798,-4.9811,-4.9987,-5.0218,-5.0218,-5.041,-5.0712,-5.0712,-5.0712,-5.0712,-5.0712,-5.0712,-5.0712,-4.3867,-4.499,-4.6075,-4.644,-4.7163,-4.798,0.0,-4.8909,0.0,0.0,-4.8909,0.0,0.0,-4.9144,-4.916,0.0,0.0,-4.9155,-4.9077,-4.9061,0.0,0.0,0.0,-4.8909,0.0,0.0,0.0,-4.811,-4.7831,-4.7163,-4.6104,-4.5547,-4.4957,-4.4371,-4.4075,-4.3913,-4.3867,0.0,0.0,0.0,0.0,-4.5986,-4.709,0.0,0.0,-4.866,-4.8569,-4.8532,0.0,-4.8107,-4.7445,-4.6618,-4.5845,-4.5001,-4.4212,-4.3749,-4.3549,0.0,0.0,0.0,-4.3515,-4.3515,0.0,0.0,0.0,0.0,0.0,0.0,0.0,0.0,0.0,-3.8921,-3.8935,-3.8964,-3.9007,-3.9036,0.0,0.0,0.0,0.0,0.0,0.0,0.0,0.0,0.0,0.0,0.0,0.0,0.0,-4.3336,-4.3893,-4.4413,-4.5249,-4.6085,-4.6903,-4.7423,-4.8159,-4.9061,-4.9061,-4.9108,-4.9201,-4.9439,-4.9544,-4.9544,-4.9721,-4.9838,-4.9949,-4.9949,-5.0,-5.013,-5.0302,-5.0369,-5.041,-5.0614,-5.0712,-5.0712,-4.3788,-4.5129,-4.6306,-4.6409,-4.7369,0.0,0.0,0.0,0.0,0.0,-4.8993,0.0,-4.9209,0.0,-4.9127,0.0,-4.9027,-4.8909,-4.8909,-4.8909,0.0,-4.8909,-4.8909,0.0,0.0,0.0,0.0,0.0,0.0,-4.6308,-4.5287,-4.4957,-4.4482,-4.3897,-4.3883,-4.3835,-4.3788,-4.3736,-4.3667,0.0,0.0,-4.6525,0.0,0.0,-4.8532,0.0,0.0,-4.8438,-4.8419,-4.8325,-4.759,-4.6581,-4.6067,-4.5149,-4.4176,-4.3662,-4.3515,-4.3515,-4.3515,-4.3515,0.0,0.0,-4.3515,0.0,-4.3515,0.0,0.0,0.0,0.0,0.0,0.0,0.0,-3.8862,-3.891,-3.8939,-3.895,0.0,-3.9007,0.0,0.0,0.0,0.0,0.0,0.0,0.0,0.0,0.0,0.0,0.0,0.0,-4.3008,-4.3559,-4.4363,-4.5347,-4.6494,-4.7014,-4.7813,-4.8909,-4.8909,-4.8909,-4.8909,-4.9127,-4.9225,-4.9222,-4.9404,-4.955,-4.967,-4.967,-4.9707,-4.983,-4.9981,-5.0062,-5.0111,-5.0544,-5.0712,-5.0712,0.0,-4.5135,-4.6277,0.0,-4.7782,0.0,0.0,0.0,-4.8891,0.0,-4.9176,-4.9257,-4.8959,-4.9193,-4.9257,-4.8942,-4.8909,-4.8909,-4.8909,-4.8909,0.0,0.0,-4.8909,-4.8537,-4.7776,0.0,0.0,0.0,0.0,-4.5268,-4.5212,-4.4318,-4.3897,-4.3881,-4.382,-4.3788,-4.3788,-4.3651,-4.3617,-4.3784,-4.5258,-4.6324,-4.7113,-4.7902,0.0,-4.8365,-4.8252,-4.8251,-4.8233,-4.8196,-4.7168,-4.5883,-4.5847,-4.4782,-4.3551,-4.3515,-4.3515,-4.3515,-4.3515,-4.3515,-4.3515,-4.3515,0.0,0.0,0.0,0.0,-4.3276,0.0,0.0,0.0,0.0,0.0,-3.8859,-3.8881,-3.8877,-3.891,-3.891,0.0,0.0,0.0,0.0,0.0,0.0,0.0,0.0,0.0,0.0,0.0,0.0,0.0,0.0,-4.2782,-4.3503,-4.4707,-4.6403,-4.6459,-4.7257,-4.8836,-4.8873,-4.8891,-4.8891,-4.8909,-4.8909,-4.8891,-4.8909,-4.9077,-4.9384,-4.9384,-4.9529,-4.9762,-4.9757,-4.979,-4.987,-5.0462,-5.0683,-5.0712,-4.4578,-4.5843,-4.7223,0.0,-4.8382,-4.8714,0.0,0.0,0.0,0.0,-4.8959,-4.9094,-4.9257,-4.9127,-4.9094,-4.9257,-4.9044,0.0,0.0,0.0,0.0,-4.8909,-4.8909,-4.8797,-4.8612,-4.8017,-4.7311,-4.6494,0.0,-4.4939,-4.4244,-4.4008,-4.3816,-4.3684,-4.3667,-4.3617,-4.3566,-4.3549,-4.3881,-4.4451,-4.4856,-4.5498,0.0,0.0,-4.6544,-4.6636,-4.7205,-4.7406,-4.7314,-4.6728,-4.6232,-4.5792,-4.5204,-4.4727,-4.4268,-4.368,-4.3515,-4.3515,-4.3515,-4.3515,-4.3515,-4.3515,-4.3515,-4.3515,0.0,0.0,0.0,0.0,0.0,0.0,0.0,0.0,0.0,-3.886,-3.8792,-3.8833,-3.8877,0.0,0.0,-3.8921,0.0,0.0,0.0,0.0,0.0,0.0,0.0,0.0,0.0,0.0,0.0,-4.2628,-4.3428,-4.4317,-4.5367,-4.5978,-4.6773,-4.779,-4.849,-4.8768,-4.8678,-4.882,-4.8874,-4.884,-4.8874,-4.8942,-4.9027,-4.9027,-4.9059,-4.9155,-4.9408,-4.9627,-4.9838,-5.0202,-5.0493,-5.0712,-4.5314,0.0,0.0,-4.8329,0.0,0.0,-4.8769,-4.8787,0.0,-4.8891,-4.9027,0.0,-4.9176,-4.9144,-4.9144,-4.9176,-4.901,0.0,-4.8909,0.0,0.0,-4.8909,-4.8909,-4.8742,-4.8389,-4.7924,0.0,-4.5888,0.0,-4.4744,-4.3851,-4.38,-4.3718,-4.3599,-4.3565,-4.3549,-4.3515,-4.3515,-4.3956,-4.4691,-4.4691,0.0,0.0,-4.5902,-4.5902,-4.5902,-4.5993,-4.6269,-4.6526,-4.6049,-4.5663,-4.5296,-4.4838,-4.447,-4.4085,-4.3626,-4.3515,-4.3515,-4.3515,-4.3515,-4.3515,-4.3515,-4.3515,-4.3515,-4.3515,-4.3515,-4.3369,0.0,0.0,0.0,0.0,0.0,0.0,-3.8836,-3.8575,-3.851,0.0,0.0,0.0,0.0,0.0,0.0,0.0,0.0,0.0,0.0,0.0,0.0,0.0,0.0,0.0,0.0,-4.2775,-4.3771,-4.4986,-4.5798,-4.6593,-4.7405,-4.829,-4.8678,-4.8605,-4.8732,-4.875,-4.8715,-4.875,-4.8803,-4.8856,-4.8856,-4.8874,-4.8926,-4.911,-4.9362,-4.9641,-4.979,-5.0025,-5.0313,0.0,0.0,0.0,0.0,0.0,0.0,0.0,-4.8769,0.0,-4.8874,0.0,-4.9321,-4.8926,-4.922,-4.9305,-4.8909,0.0,-4.8891,-4.8909,-4.8909,-4.8909,-4.8909,-4.8909,-4.8574,-4.7868,-4.774,-4.6945,0.0,0.0,-4.4683,-4.3919,-4.3688,-4.3599,-4.3582,-4.3532,-4.3515,0.0,-4.3515,-4.3901,-4.4544,-4.4544,-4.4966,-4.559,-4.559,-4.559,-4.548,-4.48,-4.5057,-4.5736,-4.5626,-4.5131,-4.4544,-4.4544,-4.4066,-4.3515,-4.3515,-4.3515,-4.3515,-4.3515,-4.3515,-4.3515,-4.3515,-4.3515,-4.3515,-4.3515,-4.3515,-4.3497,-4.3427,-4.286,0.0,0.0,0.0,0.0,-3.8805,0.0,0.0,0.0,0.0,0.0,0.0,0.0,0.0,0.0,0.0,0.0,0.0,0.0,0.0,0.0,0.0,0.0,0.0,-4.2009,0.0,-4.4786,0.0,-4.6502,-4.7203,-4.8144,-4.8569,-4.855,-4.8587,-4.8587,-4.8605,-4.8587,-4.866,-4.8769,-4.8769,-4.8804,-4.8855,-4.8855,-4.9044,-4.9321,-4.9321,-4.9465,-4.9735,0.0,0.0,0.0,0.0,0.0,-4.8363,-4.8513,-4.8606,-4.8678,-4.8804,-4.9451,-4.9617,-4.8896,-4.9361,-4.9472,-4.8878,-4.8822,0.0,0.0,0.0,0.0,-4.8909,-4.8909,-4.8834,-4.8686,-4.7986,-4.747,0.0,0.0,0.0,-4.4608,-4.3911,-4.3565,-4.3532,-4.3515,-4.3515,-4.3515,-4.3515,0.0,-4.3699,-4.3699,-4.3791,-4.392,-4.392,-4.392,-4.39,-4.3772,-4.4232,-4.4819,-4.414,-4.3828,-4.3699,-4.3699,-4.3608,-4.3515,-4.3515,-4.3515,-4.3515,-4.3515,-4.3515,-4.3515,-4.3515,-4.3515,-4.3515,-4.3515,-4.3515,-4.341,-4.3069,-4.2886,-4.2595,-4.1851,0.0,0.0,0.0,0.0,0.0,0.0,0.0,0.0,0.0,0.0,0.0,0.0,0.0,0.0,0.0,0.0,0.0,0.0,0.0,0.0,0.0,0.0,0.0,0.0,0.0,0.0,-4.6177,-4.7758,-4.8457,-4.8363,-4.8514,-4.8569,-4.8513,-4.8569,-4.8605,-4.8642,-4.8642,-4.8623,-4.8641,-4.8641,-4.875,-4.891,-4.891,-4.8959,-4.9139,0.0,0.0,0.0,0.0,0.0,0.0,0.0,-4.9139,0.0,-4.9307,-5.0047,-5.0416,-5.0047,-4.988,-4.9658,-4.9344,-4.8937,-4.8696,-4.875,-4.875,-4.875,-4.875,-4.8821,0.0,-4.8857,-4.8451,-4.7973,-4.7494,0.0,0.0,-4.5368,-4.4541,-4.4156,-4.4103,-4.3681,-4.3515,0.0,0.0,0.0,-4.3515,-4.3515,-4.3515,-4.3515,-4.3515,-4.3515,-4.3515,-4.3515,-4.3736,-4.4011,-4.3643,-4.3515,-4.3515,-4.3515,-4.3515,-4.3515,-4.3515,-4.3515,-4.3515,-4.3515,-4.3515,-4.3515,-4.3515,-4.3515,-4.3463,-4.325,-4.3196,-4.3069,-4.2634,-4.2555,-4.2284,-4.1438,-4.0685,0.0,0.0,0.0,0.0,0.0,0.0,0.0,0.0,0.0,0.0,0.0,0.0,0.0,0.0,0.0,0.0,0.0,0.0,0.0,0.0,0.0,0.0,0.0,0.0,0.0,-4.592,-4.7591,-4.8363,-4.8306,-4.8401,-4.842,-4.8401,-4.842,-4.8476,-4.855,-4.8587,-4.8605,-4.8605,-4.8605,-4.8642,-4.8697,-4.8697,-4.8714,-4.8819,0.0,-4.8306,0.0,0.0,-4.8581,0.0,-4.9721,-5.0037,-5.0151,-5.0063,-5.0783,-5.1171,-5.0839,-5.034,-4.9878,-4.9547,-4.8938,-4.8569,-4.8605,-4.8605,-4.8605,-4.8605,-4.8715,-4.8769,-4.8769,-4.8751,-4.8383,0.0,0.0,0.0,0.0,-4.5094,0.0,0.0,0.0,0.0,0.0,0.0,-4.3515,-4.3515,-4.3515,-4.3515,-4.3515,-4.3515,-4.3515,-4.3515,-4.3515,-4.3515,-4.3515,-4.3515,-4.3515,-4.3515,-4.3515,-4.3515,-4.3515,-4.3515,-4.3515,-4.3515,-4.3515,-4.3497,-4.3463,-4.3357,-4.3303,-4.3178,-4.2751,-4.2673,-4.2537,-4.2056,-4.1969,-4.1753,-4.1049,-4.0884,0.0,0.0,0.0,0.0,0.0,0.0,0.0,0.0,0.0,0.0,0.0,0.0,0.0,0.0,0.0,0.0,0.0,0.0,0.0,0.0,0.0,0.0,-4.3479,0.0,-4.5902,0.0,-4.7535,-4.8306,-4.8306,-4.8306,-4.8306,-4.8306,-4.8306,-4.8363,-4.8457,-4.8513,-4.8532,-4.8532,-4.8532,-4.855,-4.8587,-4.8587,-4.8605,-4.866,0.0,0.0,0.0,0.0,0.0,0.0,0.0,-5.1318,-5.1561,-5.0887,-5.1495,-5.144,-5.0005,-5.0349,-5.0146,-4.8752,-4.855,-4.855,-4.8587,-4.8605,-4.8605,-4.8605,-4.8605,-4.8605,-4.8605,-4.8569,-4.8495,0.0,0.0,0.0,0.0,0.0,0.0,0.0,0.0,0.0,0.0,-4.3515,-4.3515,-4.3515,-4.3515,-4.3515,-4.3515,-4.3515,-4.3515,-4.3515,-4.3515,-4.3515,-4.3515,-4.3515,-4.3515,-4.3515,-4.3515,-4.3515,-4.3515,-4.3515,-4.3515,-4.3515,-4.3515,-4.3464,-4.3323,-4.2883,-4.2675,-4.2464,-4.2021,-4.1895,-4.1768,-4.1303,-4.1213,-4.1099,-4.0791,-4.049,-3.9922,0.0,0.0,0.0,0.0,0.0,0.0,-3.6364,0.0,0.0,0.0,0.0,0.0,0.0,0.0,0.0,0.0,0.0,0.0,0.0,0.0,-4.1502,-4.3479,-4.5094,0.0,-4.592,-4.7535,-4.8306,-4.8306,-4.8306,-4.8306,-4.8306,-4.8306,-4.8306,-4.8306,-4.8325,-4.8325,-4.8325,-4.8325,-4.8401,-4.8494,-4.8494,-4.855,-4.8623,0.0,0.0,0.0,0.0,0.0,0.0,0.0,-5.1775,-5.2071,-5.2257,-5.255,-5.2534,-5.1873,-5.1208,-5.0565,-4.9943,-4.897,-4.8401,-4.842,-4.842,-4.842,-4.842,-4.8495,-4.8532,-4.8532,-4.8513,-4.8513,0.0,0.0,0.0,0.0,0.0,0.0,0.0,0.0,-4.3515,-4.3515,-4.3515,-4.3515,-4.3515,-4.3515,-4.3515,-4.3515,-4.3515,-4.3515,-4.3515,-4.3515,-4.3515,-4.3515,-4.3515,-4.3515,-4.3515,-4.3515,-4.3515,-4.3515,-4.3515,-4.3515,-4.3497,-4.3464,-4.3196,-4.292,-4.2637,-4.2324,-4.1958,-4.1486,-4.1375,-4.1258,-4.0825,-4.0748,-4.0717,-4.0607,-4.0476,-4.0083,0.0,0.0,0.0,0.0,0.0,0.0,0.0,0.0,-3.6148,0.0,0.0,0.0,0.0,0.0,0.0,0.0,0.0,0.0,-4.0091,0.0,-4.0939,-4.2714,-4.4593,-4.5547,-4.5565,-4.713,-4.8035,-4.8287,-4.8015,-4.8035,-4.8306,-4.8306,-4.8306,-4.8306,-4.8306,-4.8306,-4.8306,-4.8306,-4.8325,-4.8382,-4.8382,-4.8401,-4.8439,-4.8366,0.0,-4.9757,0.0,-5.0765,-5.1426,-5.2234,-5.2344,-5.2564,-5.3133,-5.3185,-5.3023,-5.2564,-5.1481,-5.06,-5.0105,-4.8985,-4.8306,-4.8306,-4.8306,-4.8306,-4.8306,-4.8382,0.0,-4.8438,-4.8438,-4.8438,-4.8438,-4.8343,0.0,0.0,0.0,0.0,0.0,-4.3515,-4.3515,-4.3515,-4.3515,-4.3515,-4.3515,-4.3515,-4.3515,-4.3515,-4.3515,-4.3515,-4.3515,-4.3515,-4.3515,-4.3515,-4.3515,-4.3515,-4.3515,-4.3515,-4.3515,-4.3515,-4.3515,-4.348,-4.3428,-4.3251,-4.2901,-4.2518,-4.2124,-4.1771,-4.1375,-4.0908,-4.0808,-4.0731,-4.0444,-4.037,-4.0395,-4.0436,-4.0436,-4.0222,0.0,0.0,0.0,0.0,0.0,0.0,0.0,-3.6122,-3.6101,-3.6187,0.0,0.0,0.0,0.0,0.0,0.0,0.0,0.0,0.0,0.0,0.0,0.0,0.0,-4.5183,-4.5415,-4.6768,-4.7569,-4.7895,-4.7692,-4.7795,-4.8094,-4.8248,-4.8306,-4.8306,-4.8306,-4.8306,-4.8306,-4.8306,-4.8306,-4.8306,-4.8306,-4.8306,-4.8306,-4.8537,-4.9236,-5.0106,-5.1683,-5.1977,-5.2252,-5.3078,-5.3206,-5.3185,-5.3185,-5.3185,-5.2601,-5.1004,-5.082,-5.0141,-4.8471,-4.8324,-4.8306,-4.8306,-4.8306,-4.8306,0.0,0.0,-4.8306,-4.8306,-4.8306,-4.8306,-4.8306,0.0,0.0,-4.5883,0.0,0.0,-4.3515,-4.3515,-4.3515,-4.3515,-4.3515,-4.3515,-4.3515,-4.3515,-4.3515,-4.3515,-4.3515,-4.3515,-4.3515,-4.3515,-4.3515,-4.3515,-4.3515,-4.3515,-4.3515,-4.3515,-4.3515,-4.3515,-4.3515,-4.3464,-4.3305,-4.2826,-4.2575,-4.2177,-4.1155,-4.0885,-4.0683,-4.0221,-4.0121,-4.0096,-4.0113,-4.0096,-4.0163,-4.028,-4.0305,-4.0099,-3.9512,0.0,0.0,0.0,0.0,0.0,0.0,-3.6204,-3.6204,-3.6204,0.0,0.0,0.0,0.0,0.0,0.0,0.0,0.0,-3.9091,-3.9929,0.0,-4.328,-4.4107,-4.491,-4.5691,-4.6516,-4.6908,-4.6931,-4.7399,-4.7611,-4.7632,-4.8113,-4.8306,-4.8306,-4.8306,-4.8306,-4.8306,-4.8306,-4.8306,-4.8306,-4.8306,-4.8306,-4.8306,-4.8764,-4.9735,-5.0693,-5.1322,-5.2206,-5.2913,-5.317,-5.3185,-5.3185,-5.3185,-5.2729,-5.1977,-5.093,-5.0802,-5.0362,0.0,-4.8636,-4.8306,0.0,-4.8306,-4.8306,-4.8306,-4.8306,-4.8306,-4.8306,-4.8306,-4.8306,-4.8306,0.0,0.0,0.0,-4.425,-4.3515,-4.3515,-4.3515,-4.3515,-4.3515,-4.3515,-4.3515,-4.3515,-4.3515,-4.3515,-4.3515,-4.3515,-4.3515,-4.3515,-4.3515,-4.3515,-4.3515,-4.3515,-4.3515,-4.3515,-4.3515,-4.3515,-4.3515,-4.3515,-4.3464,-4.3287,-4.2714,-4.2259,-4.1756,-4.1001,-4.0563,-4.0279,-4.0121,-4.0096,-4.0096,-4.0096,-4.0096,-4.0096,-4.0163,-4.0163,-4.0103,-3.9915,0.0,0.0,0.0,0.0,0.0,0.0,-3.5861,-3.5839,0.0,-3.5927,0.0,0.0,0.0,0.0,0.0,0.0,0.0,0.0,-3.9623,0.0,-4.2258,-4.3476,-4.4458,-4.5229,-4.6023,-4.6411,-4.6435,-4.6908,-4.7115,-4.7138,-4.727,-4.7545,-4.7816,-4.7816,-4.8015,-4.8306,-4.8306,-4.8306,-4.8306,-4.8306,-4.8306,-4.8306,-4.8921,-4.9873,-5.0731,-5.1167,-5.2155,-5.289,-5.289,-5.306,-5.3096,-5.2803,-5.2307,-5.1573,-5.0472,-5.0343,0.0,-4.9169,-4.8618,-4.8306,-4.8306,-4.8306,-4.8306,-4.8306,-4.8306,-4.8306,-4.8306,0.0,0.0,-4.8306,-4.77,-4.6874,-4.5865,-4.425,-4.3515,-4.3515,-4.3515,-4.3515,-4.3515,-4.3515,-4.3515,-4.3515,-4.3515,-4.3515,-4.3515,-4.3515,-4.3515,-4.3515,-4.3515,-4.3515,-4.3515,-4.3515,-4.3515,-4.3497,-4.3463,-4.3339,-4.3232,-4.341,-4.3268,-4.2939,-4.2362,-4.1782,-4.1225,-4.0676,-4.0303,-4.0096,-4.0096,-4.0096,-4.0096,-4.0096,-4.0096,-4.0096,-4.0096,-4.0096,-4.0096,-4.0096,0.0,-3.8836,0.0,0.0,0.0,0.0,0.0,0.0,0.0,-3.6633,0.0,0.0,0.0,0.0,0.0,0.0,0.0,-3.9286,-3.9953,0.0,-4.2132,-4.3296,-4.4307,-4.5062,-4.5635,-4.5905,-4.593,-4.6411,-4.6631,-4.6649,-4.6817,-4.7066,-4.7335,-4.7335,-4.7611,-4.8035,-4.8035,-4.8152,-4.8306,-4.8306,-4.8306,-4.8306,-4.9028,-4.9697,0.0,0.0,-5.1837,0.0,-5.2312,-5.2755,-5.2797,-5.2013,-5.1867,-5.1263,-4.9757,-4.9555,-4.9169,-4.8379,0.0,0.0,0.0,-4.8306,-4.8306,-4.8306,-4.8306,0.0,-4.8306,-4.8306,-4.8306,-4.8306,-4.6746,-4.5957,-4.5865,-4.4305,-4.3551,-4.3515,-4.3515,-4.3515,-4.3515,-4.3515,-4.3515,-4.3515,-4.3515,-4.3515,-4.3515,-4.3515,-4.3515,-4.3515,-4.3515,-4.3515,-4.3515,-4.3515,-4.3515,-4.348,-4.3394,-4.3068,-4.2788,-4.3214,-4.292,-4.2324,-4.1799,-4.1225,-4.07,-4.0221,-4.0096,-4.0096,-4.0096,-4.0096,-4.0096,-4.0096,-4.0096,-4.0096,-4.0096,-4.0096,-4.0096,-4.0096,-3.9512,-3.9056,-3.9005,0.0,0.0,0.0,0.0,0.0,0.0,-3.7986,-3.799,0.0,0.0,0.0,0.0,0.0,0.0,-3.9329,-4.0847,-4.2031,-4.2765,-4.3526,-4.4323,-4.5194,-4.53,-4.5397,-4.5397,-4.5905,-4.6137,-4.6161,-4.6607,-4.6817,-4.6863,-4.6863,-4.7138,-4.7548,-4.7548,-4.7816,-4.8209,-4.8248,-4.8267,-4.8267,0.0,0.0,-5.0223,-5.0626,-5.1173,-5.1549,-5.1506,-5.1592,-5.1519,-5.1147,-5.0545,-5.0033,-4.9647,-4.9003,-4.8526,-4.8324,-4.8306,-4.8306,-4.8306,-4.8306,-4.8306,-4.8306,-4.8306,-4.8306,-4.8306,-4.8306,-4.8306,-4.8306,-4.7296,-4.6507,-4.5883,-4.4874,-4.4085,-4.3515,-4.3515,-4.3515,-4.3515,-4.3515,-4.3515,-4.3515,-4.3515,-4.3515,-4.3515,-4.3515,-4.3515,-4.3515,-4.3515,-4.3515,-4.3515,-4.3515,-4.3515,-4.3427,-4.3123,-4.2882,-4.2693,-4.2714,-4.2322,-4.1782,-4.1241,-4.0955,-4.07,-4.0221,-4.0096,-4.0096,-4.0096,-4.0096,-4.0096,-4.0096,-4.0096,-4.0096,-4.0096,-4.0096,-4.0096,-4.0096,-3.996,-3.9656,-3.9073,0.0,0.0,0.0,-3.7936,-3.7936,-3.7936,-3.7936,-3.8149,0.0,0.0,0.0,0.0,0.0,-4.0756,-4.0747,-4.1732,-4.266,-4.3452,-4.3746,-4.4287,-4.5059,-4.5194,-4.5247,-4.5274,-4.5485,-4.5589,-4.5589,-4.5701,-4.5988,-4.6363,-4.6363,-4.6631,-4.7066,-4.7066,-4.7138,-4.727,-4.7632,-4.7775,-4.7775,-4.9077,-4.9424,-4.9744,-4.9873,-5.0218,-5.0415,-5.0385,-5.0342,-5.0227,-4.9922,-4.951,-4.919,-4.9021,-4.8581,-4.8306,-4.8306,-4.8306,-4.8306,-4.8306,-4.8306,-4.8306,-4.8306,-4.8306,-4.8306,-4.8306,-4.8306,-4.8306,-4.8306,-4.748,-4.6691,-4.5883,-4.5094,-4.4268,-4.3515,-4.3515,-4.3515,-4.3515,-4.3515,-4.3515,-4.3515,-4.3515,-4.3515,-4.3515,-4.3515,-4.3515,-4.3515,-4.3515,-4.3515,-4.3515,-4.3515,-4.3515,-4.341,-4.2939,-4.2616,-4.2302,-4.1934,-4.1591,-4.1258,-4.0938,-4.0666,-4.0427,-4.0171,-4.0096,-4.0096,-4.0096,-4.0096,-4.0096,-4.0096,-4.0096,-4.0096,-4.0096,-4.0096,-4.0096,-4.0096,-4.0096,-3.996,-3.9571,-3.9503,0.0,-3.8937,-3.8903,-3.8903,-3.8903,-3.9208,-3.958,-3.9986,0.0,0.0,-4.166,-4.2033,-4.2066,-4.1711,-4.2475,-4.3122,-4.3545,-4.4065,-4.4521,-4.4913,-4.5032,-4.5113,-4.5113,-4.5167,-4.5238,-4.522,-4.5274,-4.5468,-4.5735,-4.5803,-4.6137,-4.656,-4.656,-4.6701,-4.6931,-4.7182,-4.727,-4.727,-4.9001,-4.8992,-4.8999,-4.9029,-4.9022,-4.9034,-4.9037,-4.8985,-4.8853,-4.854,-4.8562,-4.8517,-4.8225,-4.8267,-4.8306,-4.8306,-4.8306,-4.8306,-4.8306,-4.8306,-4.8306,-4.8306,-4.8306,-4.8306,-4.8306,-4.8306,-4.8306,-4.8306,-4.7608,-4.6801,-4.5883,-4.5204,-4.4397,-4.3515,-4.3515,-4.3515,-4.3515,-4.3515,-4.3515,-4.3515,-4.3515,-4.3515,-4.3515,-4.3515,-4.3515,-4.3515,-4.3515,-4.3515,-4.3515,-4.3515,-4.3515,-4.3392,-4.2826,-4.2342,-4.1853,-4.1157,-4.0902,-4.0797,-4.0731,-4.0385,-4.0096,-4.0096,-4.0096,-4.0096,-4.0096,-4.0096,-4.0096,-4.0096,-4.0096,-4.0096,-4.0096,-4.0096,-4.0096,-4.0096,-4.0096,-4.0096,-4.0096,0.0,-4.0146,-4.0265,-4.0282,-4.0316,-4.0417,-4.1001,-4.1373,-4.1373,-4.1948,0.0,0.0,-4.3064,-4.3183,-4.2658,-4.325,-4.3589,-4.3589,-4.437,-4.4776,-4.4776,-4.4913,-4.4951,-4.4951,-4.4978,-4.5005,-4.5005,-4.514,-4.5203,-4.5203,-4.5327,-4.5667,-4.6062,-4.6062,-4.6315,-4.6678,-4.6771,-4.6794,-4.6794,-4.9001,-4.8511,-4.8132,-4.8248,-4.7766,-4.7346,-4.7299,-4.7377,-4.7336,-4.7061,-4.7471,-4.7777,-4.7713,-4.8055,-4.8306,-4.8306,-4.8306,-4.8306,-4.8306,-4.8306,-4.8306,-4.8306,-4.8306,-4.8306,-4.8306,-4.8306,-4.8306,-4.8306,-4.8177,-4.7352,-4.5902,-4.5773,-4.4911,-4.3515,-4.3515,-4.3515,-4.3515,-4.3515,-4.3515,-4.3515,-4.3515,-4.3515,-4.3515,-4.3515,-4.3515,-4.3515,-4.3515,-4.3515,-4.3515,-4.3515,-4.3515,-4.3375,-4.2537,-4.2139,-4.1828,-4.1001,-4.0583,-4.037,-4.0246,-4.0146,-4.0096,-4.0096,-4.0096,-4.0096,-4.0096,-4.0096,-4.0096,-4.0096,-4.0096,-4.0096,-4.0096,-4.0096,-4.0096,-4.0096,-4.0096,-4.0096,0.0,0.0,-4.0333,-4.095,-4.1035,-4.1271,-4.1897,-4.2049,-4.2117,-4.2117,-4.2236,-4.2574,-4.3217,-4.3325,-4.3673,-4.4242,-4.4361,-4.4401,-4.4401,-4.4547,-4.4626,-4.4626,-4.4765,-4.4831,-4.4831,-4.4951,-4.5005,-4.5005,-4.514,-4.5203,-4.5203,-4.5327,-4.545,-4.5511,-4.5511,-4.5563,-4.5675,-4.6137,-4.6308,-4.6308,-4.8494,-4.8125,-4.7784,-4.745,-4.6843,-4.6402,-4.6361,-4.6138,-4.6022,-4.6242,-4.6507,-4.6905,-4.753,-4.7795,-4.8015,-4.8287,-4.8306,-4.8306,-4.8306,-4.8306,-4.8306,-4.8306,-4.8306,-4.8306,-4.8306,-4.8306,-4.8306,-4.8306,-4.8306,-4.748,-4.5902,-4.5902,-4.5039,-4.3515,-4.3515,-4.3515,-4.3515,-4.3515,-4.3515,-4.3515,-4.3515,-4.3515,-4.3515,-4.3515,-4.3515,-4.3515,-4.3515,-4.3515,-4.3515,-4.3515,-4.3357,-4.3069,-4.2418,-4.1973,-4.1587,-4.0901,-4.0502,-4.0263,-4.0138,-4.0096,-4.0096,-4.0096,-4.0096,-4.0214,-4.0595,-4.0679,-4.0798,-4.1187,-4.1297,-4.1297,-4.1297,-4.1297,-4.1297,-4.1297,-4.1297,0.0,0.0,-4.1297,-4.139,-4.1745,-4.1779,-4.1931,-4.2252,-4.2658,-4.2895,-4.2895,-4.3284,-4.3701,-4.4028,-4.4045,-4.4215,-4.4598,-4.4615,-4.4615,-4.4615,-4.4615,-4.4615,-4.4615,-4.4654,-4.4682,-4.4709,-4.4765,-4.4776,-4.4776,-4.494,-4.4978,-4.5005,-4.5194,-4.53,-4.53,-4.5371,-4.5397,-4.5423,-4.5693,-4.5752,-4.5752,-4.78,-4.753,-4.7225,-4.6633,-4.6009,-4.5603,-4.5603,-4.5233,-4.5123,-4.558,-4.5792,-4.6227,-4.7124,-4.7338,-4.7569,-4.7935,-4.8075,-4.8132,-4.8132,-4.8248,-4.8306,-4.8306,-4.8306,-4.8306,-4.8306,-4.8306,-4.8306,-4.8306,-4.8306,-4.7572,-4.6177,-4.5993,-4.5131,-4.3754,-4.3588,-4.3515,-4.3515,-4.3515,-4.3515,-4.3515,-4.3515,-4.3515,-4.3515,-4.3515,-4.3515,-4.3515,-4.3515,-4.3515,-4.3515,-4.3515,-4.3232,-4.2825,-4.2358,-4.1885,-4.1401,-4.0877,-4.0551,-4.0313,-4.0121,-4.0096,-4.0146,-4.0316,-4.0367,-4.057,-4.1288,-4.1457,-4.1627,-4.2168,-4.2286,-4.2286,-4.2286,-4.2286,-4.2286,-4.2286,0.0,0.0,0.0,-4.2286,-4.2354,-4.254,-4.2557,-4.2625,-4.2838,-4.3352,-4.369,-4.369,-4.4248,-4.4615,-4.4615,-4.4615,-4.4615,-4.4615,-4.4615,-4.4615,-4.4615,-4.4615,-4.4615,-4.4615,-4.4615,-4.4615,-4.4615,-4.4615,-4.4615,-4.4615,-4.4737,-4.4803,-4.4831,-4.5059,-4.515,-4.5203,-4.53,-4.5371,-4.5397,-4.5397,-4.5397,-4.5397,-4.7022,-4.6329,-4.5838,-4.5788,-4.519,-4.4682,-4.4682,-4.4771,-4.4831,-4.4886,-4.5494,-4.5925,-4.6024,-4.6572,-4.6976,-4.6999,-4.7399,-4.7653,-4.7653,-4.8055,-4.8306,-4.8306,-4.8306,-4.8306,-4.8306,-4.8306,-4.8306,-4.8306,-4.8306,-4.7846,-4.7003,-4.625,-4.5443,-4.458,-4.3828,-4.3515,-4.3515,-4.3515,-4.3515,-4.3515,-4.3515,-4.3515,-4.3515,-4.3515,-4.3515,-4.3515,-4.3515,-4.3515,-4.3515,-4.3515,-4.3232,-4.2825,-4.2358,-4.1885,-4.1423,-4.1012,-4.0704,-4.0436,-4.0171,-4.0096,-4.0265,-4.095,-4.1119,-4.1322,-4.2049,-4.2219,-4.2219,-4.2286,-4.2286,-4.2286,-4.2286,-4.2286,-4.2286,-4.2286,0.0,0.0,-4.2286,-4.2286,-4.254,-4.3223,-4.3308,-4.3623,-4.4378,-4.4496,-4.4513,-4.4513,-4.4581,-4.4615,-4.4615,-4.4615,-4.4615,-4.4615,-4.4615,-4.4615,-4.4615,-4.4615,-4.4615,-4.4615,-4.4615,-4.4615,-4.4615,-4.4615,-4.4615,-4.4615,-4.4737,-4.4803,-4.4803,-4.4968,-4.5086,-4.5203,-4.5203,-4.53,-4.5397,-4.5397,-4.5397,-4.5397,-4.6261,-4.5889,-4.5568,-4.5094,-4.4801,-4.4615,-4.4615,-4.4654,-4.4709,-4.4776,-4.5042,-4.539,-4.5868,-4.614,-4.6454,-4.6863,-4.7335,-4.7485,-4.7182,-4.7609,-4.7995,-4.8287,-4.8306,-4.8306,-4.8306,-4.8306,-4.8306,-4.8306,-4.8306,-4.7902,-4.7076,-4.6287,-4.548,-4.4654,-4.3864,-4.3515,-4.3515,-4.3515,-4.3515,-4.3515,-4.3515,-4.3515,-4.3515,-4.3515,-4.3515,-4.3515,-4.3515,-4.3515,-4.3444,-4.3214,-4.2826,-4.2378,-4.1906,-4.1468,-4.1065,-4.0752,-4.0583,-4.0539,-4.0722,-4.0781,-4.0849,-4.1136,-4.1542,-4.2083,-4.2811,-4.298,-4.3115,-4.3633,-4.3735,-4.3735,-4.3735,-4.3735,-4.3735,-4.3735,0.0,-4.3735,-4.3735,-4.3735,-4.3836,-4.4096,-4.413,-4.4248,-4.4581,-4.4615,-4.4615,-4.4615,-4.4615,-4.4615,-4.4615,-4.4615,-4.4615,-4.4615,-4.4615,-4.4615,-4.4615,-4.4615,-4.4615,-4.4615,-4.4615,-4.4615,-4.4615,-4.4615,-4.4615,-4.4598,-4.4654,-4.4682,-4.4682,-4.4831,-4.4951,-4.5086,-4.515,-4.5274,-4.5397,-4.5397,-4.5397,-4.5397,-4.55,-4.5348,-4.5196,-4.4699,-4.4615,-4.4615,-4.4615,-4.4615,-4.4626,-4.4737,-4.4776,-4.4988,-4.5503,-4.558,-4.5835,-4.6328,-4.6804,-4.6963,-4.6701,-4.7115,-4.7591,-4.8055,-4.821,-4.8306,-4.8306,-4.8306,-4.8306,-4.8306,-4.8306,-4.8012,-4.7461,-4.6654,-4.5847,-4.5039,-4.4232,-4.3736,-4.3515,-4.3515,-4.3515,-4.3515,-4.3515,-4.3515,-4.3515,-4.3515,-4.3515,-4.3515,-4.3515,-4.3515,-4.3427,-4.305,-4.2595,-4.2115,-4.1648,-4.1214,-4.0847,-4.0583,-4.0664,-4.0897,-4.1146,-4.1542,-4.1897,-4.1897,-4.2269,-4.2844,-4.3606,-4.3792,-4.3927,-4.4496,-4.4615,-4.4615,-4.4615,-4.4615,-4.4615,-4.4615,-4.4615,-4.4615,-4.4615,-4.4615,-4.4615,-4.4615,-4.4615,-4.4615,-4.4615,-4.4615,-4.4615,-4.4615,-4.4615,-4.4615,-4.4615,-4.4615,-4.4615,-4.4615,-4.4615,-4.4615,-4.4615,-4.4615,-4.4615,-4.4615,-4.4615,-4.4615,-4.4615,-4.4615,-4.4615,-4.4615,-4.4615,-4.4626,-4.4654,-4.4709,-4.4858,-4.5059,-4.5113,-4.5247,-4.5397,-4.5397,-4.5397,-4.5363,-4.475,-4.4615,-4.4615,-4.4615,-4.4615,-4.4615,-4.4615,-4.4615,-4.4615,-4.4615,-4.4709,-4.4803,-4.4803,-4.4913,-4.5059,-4.5194,-4.5631,-4.5968,-4.6186,-4.6631,-4.7093,-4.7569,-4.8035,-4.8287,-4.8306,-4.8306,-4.8306,-4.8306,-4.8306,-4.8306,-4.8288,-4.748,-4.6654,-4.5865,-4.5057,-4.4268,-4.3515,-4.3515,-4.3515,-4.3515,-4.3515,-4.3515,-4.3515,-4.3515,-4.3515,-4.3515,-4.3515,-4.3515,-4.3427,-4.3032,-4.2595,-4.2115,-4.1648,-4.1214,-4.0864,-4.0583,-4.1032,-4.1537,-4.1298,-4.2303,-4.3392,-4.3392,-4.3392,-4.3639,-4.4429,-4.4615,-4.4615,-4.4615,-4.4615,-4.4615,-4.4615,-4.4615,-4.4615,-4.4615,-4.4615,-4.4615,-4.4615,-4.4615,-4.4615,-4.4615,-4.4615,-4.4615,-4.4615,-4.4615,-4.4615,-4.4615,-4.4615,-4.4615,-4.4615,-4.4615,-4.4615,-4.4615,-4.4615,-4.4615,-4.4615,-4.4615,-4.4615,-4.4615,-4.4615,-4.4615,-4.4615,-4.4615,-4.4615,-4.4615,-4.4615,-4.4682,-4.4776,-4.4654,-4.4831,-4.5177,-4.5059,-4.514,-4.5397,-4.5397,-4.5397,-4.5276,-4.4649,-4.4615,-4.4615,-4.4615,-4.4615,-4.4615,-4.4615,-4.4615,-4.4615,-4.4615,-4.4626,-4.4709,-4.4776,-4.4831,-4.4896,-4.5059,-4.5494,-4.5817,-4.5985,-4.6249,-4.6483,-4.6607,-4.7378,-4.7975,-4.8287,-4.8306,-4.8306,-4.8306,-4.8306,-4.8306,-4.8288,-4.748,-4.6966,-4.6672,-4.5296,-4.458,-4.4305,-4.3736,-4.3515,-4.3515,-4.3515,-4.3515,-4.3515,-4.3515,-4.3515,-4.3515,-4.3515,-4.3515,-4.3392,-4.2655,-4.2318,-4.2053,-4.1323,-4.0942,-4.0824,-4.1167,-4.1349,-4.1656,-4.2499,-4.3054,-4.3392,-4.3392,-4.3826,-4.4282,-4.4564,-4.4615,-4.4615,-4.4615,-4.4615,-4.4615,-4.4615,-4.4615,-4.4615,-4.4615,-4.4615,-4.4615,-4.4615,-4.4615,-4.4615,-4.4615,-4.4615,-4.4615,-4.4615,-4.4615,-4.4615,-4.4615,-4.4615,-4.4615,-4.4615,-4.4615,-4.4615,-4.4615,-4.4615,-4.4615,-4.4615,-4.4615,-4.4615,-4.4615,-4.4615,-4.4615,-4.4615,-4.4615,-4.4615,-4.4615,-4.4615,-4.4626,-4.4654,-4.4615,-4.4737,-4.4913,-4.4886,-4.5005,-4.5274,-4.5274,-4.53,-4.5276,-4.4615,-4.4615,-4.4615,-4.4615,-4.4615,-4.4615,-4.4615,-4.4615,-4.4615,-4.4615,-4.4615,-4.4626,-4.4709,-4.4737,-4.4776,-4.4913,-4.5239,-4.5494,-4.5606,-4.5743,-4.5938,-4.6186,-4.673,-4.727,-4.7733,-4.7752,-4.7752,-4.7752,-4.7752,-4.7836,-4.7997,-4.7522,-4.7235,-4.7058,-4.6085,-4.5461,-4.5131,-4.4323,-4.3975,-4.3956,-4.3643,-4.3515,-4.3515,-4.3515,-4.3515,-4.3515,-4.3515,-4.3392,-4.316,-4.2458,-4.1969,-4.1578,-4.1065,-4.103,-4.1278,-4.1526,-4.1989,-4.255,-4.321,-4.3639,-4.3876,-4.3876,-4.4231,-4.4615,-4.4615,-4.4615,-4.4615,-4.4615,-4.4615,-4.4615,-4.4615,-4.4615,-4.4615,-4.4615,-4.4615,-4.4615,-4.4615,-4.4615,-4.4615,-4.4615,-4.4615,-4.4615,-4.4615,-4.4615,-4.4615,-4.4615,-4.4615,-4.4615,-4.4615,-4.4615,-4.4615,-4.4615,-4.4615,-4.4615,-4.4615,-4.4615,-4.4615,-4.4615,-4.4615,-4.4615,-4.4615,-4.4615,-4.4615,-4.4615,-4.4615,-4.4626,-4.4682,-4.4626,-4.4709,-4.4886,-4.4831,-4.494,-4.5113,-4.5113,-4.5032,-4.4793,-4.4615,-4.4615,-4.4615,-4.4615,-4.4615,-4.4615,-4.4615,-4.4615,-4.4615,-4.4615,-4.4615,-4.4615,-4.4615,-4.4615,-4.4654,-4.4776,-4.4896,-4.5032,-4.5177,-4.5177,-4.5494,-4.6087,-4.6137,-4.6339,-4.6747,-4.6863,-4.6908,-4.6908,-4.6908,-4.7115,-4.7548,-4.7548,-4.7354,-4.7072,-4.7037,-4.6597,-4.5828,-4.5113,-4.4765,-4.462,-4.3923,-4.3574,-4.3484,-4.3484,-4.3465,-4.3427,-4.3392,-4.3196,-4.2825,-4.2318,-4.1596,-4.0912,-4.0981,-4.144,-4.1977,-4.1859,-4.2791,-4.3822,-4.3586,-4.4045,-4.4615,-4.4615,-4.4615,-4.4615,-4.4615,-4.4615,-4.4615,-4.4615,-4.4615,-4.4615,-4.4615,-4.4615,-4.4615,-4.4615,-4.4615,-4.4615,-4.4615,-4.4615,-4.4615,-4.4615,-4.4615,-4.4615,-4.4615,-4.4615,-4.4615,-4.4615,-4.4615,-4.4615,-4.4615,-4.4615,-4.4615,-4.4615,-4.4615,-4.4615,-4.4615,-4.4615,-4.4615,-4.4615,-4.4615,-4.4615,-4.4615,-4.4615,-4.4615,-4.4615,-4.4615,-4.4682,-4.4776,-4.4654,-4.472,-4.4951,-4.4831,-4.4886,-4.5005,-4.5005,-4.4624,-4.3984,-4.457,-4.4615,-4.4615,-4.4615,-4.4615,-4.4615,-4.4615,-4.4615,-4.4615,-4.4615,-4.4615,-4.4615,-4.4615,-4.4615,-4.4598,-4.4626,-4.4765,-4.4913,-4.5032,-4.514,-4.531,-4.5563,-4.5563,-4.5615,-4.5727,-4.6489,-4.6908,-4.6908,-4.6908,-4.6954,-4.7049,-4.7049,-4.7004,-4.6934,-4.6662,-4.6261,-4.5734,-4.5659,-4.5235,-4.4558,-4.4744,-4.4233,-4.3337,-4.3337,-4.3197,-4.2976,-4.2616,-4.2655,-4.2769,-4.1927,-4.1328,-4.1015,-4.1585,-4.1805,-4.206,-4.3082,-4.3549,-4.3834,-4.4219,-4.4479,-4.4615,-4.4615,-4.4615,-4.4615,-4.4615,-4.4615,-4.4615,-4.4615,-4.4615,-4.4615,-4.4615,-4.4615,-4.4615,-4.4615,-4.4615,-4.4615,-4.4615,-4.4615,-4.4615,-4.4615,-4.4615,-4.4615,-4.4615,-4.4615,-4.4615,-4.4615,-4.4615,-4.4615,-4.4615,-4.4615,-4.4615,-4.4615,-4.4615,-4.4615,-4.4615,-4.4615,-4.4615,-4.4615,-4.4615,-4.4615,-4.4615,-4.4615,-4.4615,-4.4615,-4.4615,-4.4615,-4.4626,-4.4598,-4.4626,-4.4682,-4.4654,-4.4776,-4.5005,-4.5005,-4.4687,-4.4053,-4.444,-4.4542,-4.4615,-4.4615,-4.4615,-4.4615,-4.4615,-4.4615,-4.4615,-4.4615,-4.4615,-4.4615,-4.4615,-4.4615,-4.4615,-4.4615,-4.4654,-4.4748,-4.4913,-4.5032,-4.5167,-4.53,-4.5371,-4.5397,-4.5397,-4.5912,-4.6175,-4.6175,-4.6175,-4.6315,-4.6578,-4.6578,-4.6678,-4.689,-4.6725,-4.6506,-4.6253,-4.5938,-4.5513,-4.5066,-4.4928,-4.4453,-4.3864,-4.3864,-4.3802,-4.3593,-4.2956,-4.2519,-4.2169,-4.1843,-4.1585,-4.1567,-4.2327,-4.2777,-4.3107,-4.3803,-4.415,-4.4364,-4.4635,-4.4654,-4.4615,-4.4615,-4.4615,-4.4615,-4.4615,-4.4615,-4.4615,-4.4615,-4.4615,-4.4615,-4.4615,-4.4615,-4.4615,-4.4615,-4.4615,-4.4615,-4.4615,-4.4615,-4.4615,-4.4615,-4.4615,-4.4615,-4.4615,-4.4615,-4.4615,-4.4615,-4.4615,-4.4615,-4.4615,-4.4615,-4.4615,-4.4615,-4.4615,-4.4615,-4.4615,-4.4615,-4.4615,-4.4615,-4.4615,-4.4615,-4.4615,-4.4615,-4.4615,-4.4615,-4.4615,-4.4615,-4.4615,-4.4615,-4.4615,-4.4615,-4.4615,-4.4682,-4.4752,-4.4395,-4.3678,-4.2757,-4.3989,-4.4207,-4.4412,-4.4412,-4.4412,-4.444,-4.457,-4.4468,-4.4468,-4.457,-4.4615,-4.4615,-4.4615,-4.4615,-4.4615,-4.4615,-4.4615,-4.4654,-4.4776,-4.4896,-4.5032,-4.5177,-4.53,-4.5371,-4.5397,-4.5397,-4.5397,-4.5397,-4.5397,-4.5641,-4.6062,-4.6062,-4.6266,-4.6654,-4.6747,-4.6724,-4.6601,-4.6122,-4.5815,-4.5602,-4.5031,-4.4671,-4.4458,-4.4458,-4.4414,-4.4285,-4.3545,-4.2626,-4.1822,-4.2102,-4.2223,-4.2344,-4.3138,-4.3785,-4.4251,-4.4259,-4.458,-4.494,-4.4803,-4.4682,-4.4615,-4.4615,-4.4615,-4.4615,-4.4615,-4.4615,-4.4615,-4.4615,-4.4615,-4.4615,-4.4615,-4.4615,-4.4615,-4.4615,-4.4615,-4.4615,-4.4615,-4.4615,-4.4615,-4.4615,-4.4615,-4.4615,-4.4615,-4.4615,-4.4615,-4.4615,-4.4615,-4.4615,-4.4615,-4.4615,-4.4615,-4.4615,-4.4615,-4.4615,-4.4615,-4.4615,-4.4615,-4.4615,-4.4615,-4.4615,-4.4615,-4.4615,-4.4615,-4.4615,-4.4615,-4.4615,-4.4615,-4.4615,-4.4615,-4.4615,-4.4615,-4.4598,-4.4524,-4.361,-4.2487,-4.1367,-4.2676,-4.3243,-4.3647,-4.3647,-4.3647,-4.3869,-4.4497,-4.4076,-4.3869,-4.4514,-4.4615,-4.4615,-4.4615,-4.4615,-4.4615,-4.4615,-4.4615,-4.4654,-4.4776,-4.4803,-4.4923,-4.5177,-4.522,-4.5274,-4.5397,-4.5397,-4.5397,-4.5397,-4.5397,-4.545,-4.5528,-4.5528,-4.5537,-4.5624,-4.6087,-4.6038,-4.5649,-4.6413,-4.6235,-4.5468,-4.5824,-4.5296,-4.4341,-4.4341,-4.4154,-4.3834,-4.3378,-4.3096,-4.2995,-4.3024,-4.3034,-4.3172,-4.3914,-4.4148,-4.4242,-4.4717,-4.4855,-4.4803,-4.4654,-4.4598,-4.4615,-4.4615,-4.4615,-4.4615,-4.4615,-4.4615,-4.4615,-4.4615,-4.4615,-4.4615,-4.4615,-4.4615,-4.4615,-4.4615,-4.4615,-4.4615,-4.4615,-4.4615,-4.4615,-4.4615,-4.4615,-4.4615,-4.4615,-4.4615,-4.4615,-4.4615,-4.4615,-4.4615,-4.4615,-4.4615,-4.4615,-4.4615,-4.4615,-4.4615,-4.4615,-4.4615,-4.4615,-4.4615,-4.4615,-4.4615,-4.4615,-4.4615,-4.4615,-4.4615,-4.4615,-4.4615,-4.4615,-4.4615,-4.4615,-4.4615,-4.4615,-4.4682,-4.4606,-4.3284,-4.2262,-4.1476,-4.2157,-4.2536,-4.2862,-4.2923,-4.2953,-4.3183,-4.3885,-4.3706,-4.3764,-4.4497,-4.4615,-4.4615,-4.4615,-4.4615,-4.4615,-4.4615,-4.4615,-4.4643,-4.4682,-4.4748,-4.4858,-4.4951,-4.5059,-4.5167,-4.5274,-4.5274,-4.5327,-4.5397,-4.5397,-4.5397,-4.5397,-4.5397,-4.5397,-4.5397,-4.5641,-4.5615,-4.5423,-4.5862,-4.5803,-4.5423,-4.5667,-4.5407,-4.4906,-4.4906,-4.4828,-4.4617,-4.4042,-4.3552,-4.3258,-4.3672,-4.381,-4.3949,-4.4682,-4.4871,-4.4887,-4.5135,-4.5076,-4.4913,-4.4831,-4.4709,-4.4615,-4.4615,-4.4615,-4.4615,-4.4615,-4.4615,-4.4615,-4.4615,-4.4615,-4.4615,-4.4615,-4.4615,-4.4615,-4.4615,-4.4615,-4.4615,-4.4615,-4.4615,-4.4615,-4.4615,-4.4615,-4.4615,-4.4615,-4.4615,-4.4615,-4.4615,-4.4615,-4.4615,-4.4615,-4.4615,-4.4615,-4.4615,-4.4615,-4.4615,-4.4615,-4.4615,-4.4615,-4.4615,-4.4615,-4.4615,-4.4615,-4.4615,-4.4615,-4.4615,-4.4615,-4.4615,-4.4615,-4.4615,-4.4615,-4.4615,-4.4615,-4.4101,-4.3325,-4.27,-4.1767,-4.0738]},{"header":{"parameterUnit":"m.s-1","parameterCategory":1,"la1":30.6,"la2":28.766,"lo1":-90.7593,"lo2":-88.6598,"dy":0.0162,"dx":0.0183,"nx":116,"ny":114,"refTime":"2023-05-04T12:00:00:Z","depth":0,"parameterNumber":3,"parameterNumberName":"V-component_of_WINDS"},"data":[0.0,0.0,0.0,0.0,0.0,0.0,0.0,0.0,0.0,0.0,0.0,0.0,0.0,0.0,0.0,0.0,0.0,0.0,0.0,0.0,0.0,0.0,0.0,0.0,0.0,0.0,0.0,0.0,0.0,0.0,0.0,0.0,0.0,0.0,0.0,0.0,0.0,0.0,0.0,0.0,0.0,0.0,0.0,0.0,0.0,0.0,0.0,0.0,0.0,0.0,0.0,0.0,0.0,0.0,0.0,0.0,0.0,0.0,0.0,0.0,0.0,0.0,0.0,0.0,0.0,0.0,0.0,0.0,0.0,0.0,0.0,0.0,0.0,0.0,0.0,0.0,0.0,0.0,0.0,0.0,0.0,0.0,0.0,0.0,0.0,0.0,0.0,0.0,0.0,0.0,0.0,0.0,0.0,0.0,0.0,0.0,0.0,0.0,0.0,0.0,0.0,0.0,0.0,0.0,0.0,0.0,0.0,0.0,0.0,0.0,0.0,0.0,0.0,0.0,0.0,0.0,0.0,0.0,0.0,0.0,0.0,0.0,0.0,0.0,0.0,0.0,0.0,0.0,0.0,0.0,0.0,0.0,0.0,0.0,0.0,0.0,0.0,0.0,0.0,0.0,0.0,0.0,0.0,0.0,0.0,0.0,0.0,0.0,0.0,0.0,0.0,0.0,0.0,0.0,0.0,0.0,0.0,0.0,0.0,0.0,0.0,0.0,0.0,0.0,0.0,0.0,0.0,0.0,0.0,0.0,0.0,0.0,0.0,0.0,0.0,0.0,0.0,0.0,0.0,0.0,0.0,0.0,0.0,0.0,0.0,0.0,0.0,0.0,0.0,0.0,0.0,0.0,0.0,0.0,0.0,0.0,0.0,0.0,0.0,0.0,0.0,0.0,0.0,0.0,0.0,0.0,0.0,0.0,0.0,0.0,0.0,0.0,0.0,0.0,0.0,0.0,0.0,0.0,0.0,0.0,0.0,0.0,0.0,0.0,0.0,0.0,0.0,0.0,0.0,0.0,0.0,0.0,0.0,0.0,0.0,0.0,0.0,0.0,0.0,0.0,0.0,0.0,0.0,0.0,0.0,0.0,0.0,0.0,0.0,0.0,0.0,0.0,0.0,0.0,0.0,0.0,0.0,0.0,0.0,0.0,0.0,0.0,0.0,0.0,0.0,0.0,0.0,0.0,0.0,0.0,0.0,0.0,0.0,0.0,0.0,0.0,0.0,0.0,0.0,0.0,0.0,0.0,0.0,0.0,0.0,0.0,0.0,0.0,0.0,0.0,0.0,0.0,0.0,0.0,0.0,0.0,0.0,0.0,0.0,0.0,0.0,0.0,0.0,0.0,0.0,0.0,0.0,0.0,0.0,0.0,0.0,0.0,0.0,0.0,0.0,0.0,0.0,0.0,0.0,0.0,0.0,0.0,0.0,0.0,0.0,0.0,0.0,0.0,0.0,0.0,0.0,0.0,0.0,0.0,0.0,0.0,0.0,0.0,0.0,0.0,0.0,0.0,0.0,0.0,0.0,0.0,0.0,0.0,0.0,0.0,0.0,0.0,0.0,0.0,0.0,0.0,0.0,0.0,0.0,0.0,0.0,0.0,0.0,0.0,0.0,0.0,0.0,0.0,0.0,0.0,0.0,0.0,0.0,0.0,0.0,0.0,0.0,0.0,0.0,0.0,0.0,0.0,0.0,0.0,0.0,0.0,0.0,0.0,0.0,0.0,0.0,0.0,0.0,0.0,0.0,0.0,0.0,0.0,0.0,0.0,0.0,0.0,0.0,0.0,0.0,0.0,0.0,0.0,0.0,0.0,0.0,0.0,0.0,0.0,0.0,0.0,0.0,0.0,0.0,0.0,0.0,0.0,0.0,0.0,0.0,0.0,0.0,0.0,0.0,0.0,0.0,0.0,0.0,0.0,0.0,0.0,0.0,0.0,0.0,0.0,0.0,0.0,0.0,0.0,0.0,0.0,0.0,0.0,0.0,0.0,0.0,0.0,0.0,0.0,0.0,0.0,0.0,0.0,0.0,0.0,0.0,0.0,0.0,0.0,0.0,0.0,0.0,0.0,0.0,0.0,0.0,0.0,0.0,0.0,0.0,0.0,0.0,0.0,0.0,0.0,0.0,0.0,0.0,0.0,0.0,0.0,0.0,0.0,0.0,0.0,0.0,0.0,0.0,0.0,0.0,0.0,0.0,0.0,0.0,0.0,0.0,0.0,0.0,0.0,0.0,0.0,0.0,0.0,0.0,0.0,0.0,0.0,0.0,0.0,0.0,0.0,0.0,0.0,0.0,0.0,0.0,0.0,0.0,0.0,0.0,0.0,0.0,0.0,0.0,0.0,0.0,0.0,0.0,0.0,0.0,0.0,0.0,0.0,0.0,0.0,0.0,0.0,0.0,0.0,0.0,0.0,0.0,0.0,0.0,0.0,0.0,0.0,0.0,0.0,0.0,0.0,0.0,0.0,0.0,0.0,0.0,0.0,0.0,0.0,0.0,0.0,0.0,0.0,0.0,0.0,0.0,0.0,0.0,0.0,0.0,0.0,0.0,0.0,0.0,0.0,0.0,0.0,0.0,0.0,0.0,0.0,0.0,0.0,0.0,0.0,0.0,0.0,0.0,0.0,0.0,0.0,0.0,0.0,0.0,0.0,0.0,0.0,0.0,0.0,0.0,0.0,0.0,0.0,0.0,0.0,0.0,0.0,0.0,0.0,0.0,0.0,0.0,0.0,0.0,0.0,0.0,0.0,0.0,0.0,0.0,0.0,0.0,0.0,0.0,0.0,0.0,0.0,0.0,0.0,0.0,0.0,0.0,0.0,0.0,0.0,0.0,0.0,0.0,0.0,0.0,0.0,0.0,0.0,0.0,0.0,0.0,0.0,0.0,0.0,0.0,0.0,0.0,0.0,0.0,0.0,0.0,0.0,0.0,0.0,0.0,0.0,0.0,0.0,0.0,0.0,0.0,0.0,0.0,0.0,0.0,0.0,0.0,0.0,0.0,0.0,0.0,0.0,0.0,0.0,0.0,0.0,0.0,0.0,0.0,0.0,0.0,0.0,0.0,0.0,0.0,0.0,0.0,0.0,0.0,0.0,0.0,0.0,0.0,0.0,0.0,0.0,0.0,0.0,0.0,0.0,0.0,0.0,0.0,0.0,0.0,0.0,0.0,0.0,0.0,0.0,0.0,0.0,0.0,0.0,0.0,0.0,0.0,0.0,0.0,0.0,0.0,0.0,0.0,0.0,0.0,0.0,0.0,0.0,0.0,0.0,0.0,0.0,0.0,0.0,0.0,0.0,0.0,0.0,0.0,0.0,0.0,0.0,0.0,0.0,0.0,0.0,0.0,0.0,0.0,0.0,0.0,0.0,0.0,0.0,0.0,0.0,0.0,0.0,0.0,0.0,0.0,0.0,0.0,0.0,0.0,0.0,0.0,0.0,0.0,0.0,0.0,0.0,0.0,0.0,0.0,0.0,0.0,0.0,0.0,0.0,0.0,0.0,0.0,0.0,0.0,0.0,0.0,0.0,0.0,0.0,0.0,0.0,0.0,0.0,0.0,0.0,0.0,0.0,0.0,0.0,0.0,0.0,0.0,0.0,0.0,0.0,0.0,0.0,0.0,0.0,0.0,0.0,0.0,0.0,0.0,0.0,0.0,0.0,0.0,0.0,0.0,0.0,0.0,0.0,0.0,0.0,0.0,0.0,0.0,0.0,0.0,0.0,0.0,0.0,0.0,0.0,0.0,0.0,0.0,0.0,0.0,0.0,0.0,0.0,0.0,0.0,0.0,0.0,0.0,0.0,0.0,0.0,0.0,0.0,0.0,0.0,0.0,0.0,0.0,0.0,0.0,0.0,0.0,0.0,0.0,0.0,0.0,0.0,0.0,0.0,0.0,0.0,0.0,0.0,0.0,0.0,0.0,0.0,0.0,0.0,0.0,0.0,0.0,0.0,0.0,0.0,0.0,0.0,0.0,0.0,0.0,0.0,0.0,0.0,0.0,0.0,0.0,0.0,0.0,0.0,0.0,0.0,0.0,0.0,0.0,0.0,0.0,0.0,0.0,0.0,0.0,0.0,0.0,0.0,0.0,0.0,0.0,0.0,0.0,0.0,0.0,0.0,0.0,0.0,0.0,0.0,0.0,0.0,0.0,0.0,0.0,0.0,0.0,0.0,0.0,0.0,0.0,0.0,0.0,0.0,0.0,0.0,0.0,0.0,0.0,0.0,0.0,0.0,0.0,0.0,0.0,0.0,0.0,0.0,0.0,0.0,0.0,0.0,0.0,0.0,0.0,0.0,0.0,0.0,0.0,0.0,0.0,0.0,0.0,0.0,0.0,0.0,0.0,0.0,0.0,0.0,0.0,0.0,0.0,0.0,0.0,0.0,0.0,0.0,0.0,0.0,0.0,0.0,0.0,0.0,0.0,0.0,0.0,0.0,0.0,0.0,0.0,0.0,0.0,0.0,0.0,0.0,0.0,0.0,0.0,0.0,0.0,0.0,0.0,0.0,0.0,0.0,0.0,0.0,0.0,0.0,0.0,0.0,0.0,0.0,0.0,0.0,0.0,0.0,0.0,0.0,0.0,0.0,0.0,0.0,0.0,0.0,0.0,0.0,0.0,0.0,0.0,0.0,0.0,0.0,0.0,0.0,0.0,0.0,0.0,0.0,0.0,0.0,0.0,0.0,0.0,0.0,0.0,0.0,0.0,0.0,0.0,0.0,0.0,0.0,0.0,0.0,0.0,0.0,0.0,0.0,0.0,0.0,0.0,0.0,0.0,0.0,0.0,0.0,0.0,0.0,0.0,0.0,0.0,0.0,0.0,0.0,0.0,0.0,0.0,0.0,0.0,0.0,0.0,0.0,0.0,0.0,0.0,0.0,0.0,0.0,0.0,0.0,0.0,0.0,0.0,0.0,0.0,0.0,0.0,0.0,0.0,0.0,0.0,0.0,0.0,0.0,0.0,0.0,0.0,0.0,0.0,0.0,0.0,0.0,0.0,0.0,0.0,0.0,0.0,0.0,0.0,0.0,0.0,0.0,0.0,0.0,0.0,0.0,0.0,0.0,0.0,0.0,0.0,0.0,0.0,0.0,0.0,0.0,0.0,0.0,0.0,0.0,0.0,0.0,0.0,0.0,0.0,0.0,0.0,0.0,0.0,0.0,0.0,0.0,0.0,0.0,0.0,0.0,0.0,0.0,0.0,0.0,0.0,0.0,0.0,0.0,0.0,0.0,0.0,0.0,0.0,0.0,0.0,0.0,0.0,0.0,0.0,0.0,0.0,0.0,0.0,0.0,0.0,0.0,0.0,0.0,0.0,0.0,0.0,0.0,0.0,0.0,0.0,0.0,0.0,0.0,0.0,0.0,0.0,0.0,0.0,0.0,0.0,0.0,0.0,0.0,0.0,0.0,0.0,0.0,0.0,0.0,0.0,0.0,0.0,0.0,0.0,0.0,0.0,0.0,0.0,0.0,0.0,0.0,0.0,0.0,0.0,0.0,0.0,0.0,0.0,0.0,0.0,0.0,0.0,0.0,0.0,0.0,0.0,0.0,0.0,0.0,0.0,0.0,0.0,0.0,0.0,0.0,0.0,0.0,0.0,0.0,0.0,0.0,0.0,0.0,0.0,0.0,0.0,0.0,0.0,0.0,0.0,0.0,0.0,0.0,0.0,0.0,0.0,0.0,0.0,0.0,0.0,0.0,0.0,0.0,0.0,0.0,0.0,0.0,0.0,0.0,0.0,0.0,0.0,0.0,0.0,0.0,0.0,0.0,0.0,0.0,0.0,0.0,0.0,0.0,0.0,0.0,0.0,0.0,0.0,0.0,0.0,0.0,0.0,0.0,0.0,0.0,0.0,0.0,0.0,0.0,0.0,0.0,0.0,0.0,0.0,0.0,0.0,0.0,0.0,0.0,0.0,0.0,0.0,0.0,0.0,0.0,0.0,0.0,0.0,0.0,0.0,0.0,0.0,0.0,0.0,0.0,0.0,0.0,0.0,0.0,0.0,0.0,0.0,0.0,0.0,0.0,0.0,0.0,0.0,0.0,0.0,0.0,0.0,0.0,0.0,0.0,0.0,0.0,0.0,0.0,0.0,0.0,0.0449,0.0,0.0,0.0,0.0,0.0,0.0,0.0,0.0,0.0,0.0,0.0,0.0,0.0,0.0,0.0,0.0,0.0,0.0,0.0,0.0,0.0,0.0,0.0,0.0,0.0,0.0,0.0,0.0,0.0,0.0,0.0,0.0,0.0,0.0,0.0,0.0,0.0,0.0,0.7095,0.7095,0.7095,0.7095,0.7095,0.7095,0.7095,0.0,0.0,0.0,0.0,0.0,0.0,0.0,0.0,0.0,0.0,0.0,0.0,0.0,0.0,0.0,0.0,0.0,0.0,0.0,0.0,0.0,0.0,0.0,0.0,0.0,0.0,0.0,0.0,0.0,0.0,0.0,0.0,0.0,0.0,0.0,0.0,0.0,0.0,0.0,0.0,0.0,0.0,0.0,0.0,0.0,0.0,0.0,0.0,0.0,0.0,0.0,0.0,0.0,0.0,0.0,0.0,0.0,0.0,0.0,0.0,0.0,0.0,0.0,0.0,0.0,0.0,0.0,0.0,0.0,0.0,0.0,0.0359,0.0,0.0,0.0,0.0,0.0,0.0,0.0,0.0,0.0,0.0,0.0,0.0,0.0,0.0,0.0,0.0,0.0,0.0,0.0,0.0,0.0,0.0,0.0,0.0,0.5057,0.4297,0.534,0.0,0.0,0.0,0.0,0.0,0.0,0.0,0.0,0.6561,0.6738,0.6738,0.6962,0.7051,0.7095,0.7095,0.7095,0.7095,0.7095,0.0,0.0,0.0,0.0,0.0,0.0,0.0,0.0,0.0,0.0,0.0,0.0,0.0,0.0,0.0,0.0,0.0,0.0,0.0,0.0,0.0,0.0,0.0,0.0,0.0,0.0,0.0,0.0,0.0,0.0,0.0,0.0,0.0,0.0,0.0,0.0,0.0,0.0,0.0,0.0,0.0,0.0,0.0,0.0,0.0,0.0,0.0,0.0,0.0,0.0,0.0,0.0,0.0,0.0,0.0,0.0,0.0,0.0,0.0,0.0,0.0,0.0,0.0,0.0,0.065,0.0647,0.0591,0.0495,0.0314,0.0314,0.0224,0.0,0.0,0.0,0.0,0.0,0.0,0.0,0.0,0.0,0.0,0.0,0.0,0.0,0.0,0.0,0.0,0.0,0.0,0.0,0.0,0.0,0.0,0.0,0.3393,0.4107,0.3974,0.5179,0.5884,0.0,0.0,0.0,0.0,0.0,0.0,0.4061,0.4863,0.5265,0.5265,0.6343,0.6925,0.7095,0.7095,0.7095,0.7095,0.7095,0.7095,0.7095,0.0,0.0,0.0,0.0,0.0,0.0,0.0,0.0,0.0,0.0,0.0,0.0,0.0,0.0,0.0,0.0,0.0,0.0,0.0,0.0,0.0,0.0,0.0,0.0,0.0,0.0,0.0,0.0,0.0,0.0,0.0,0.0,0.0,0.0,0.0,0.0,0.0,0.0,0.0,0.0,0.0,0.2867,0.1749,0.0,0.0,0.0,0.0,0.0,0.0,0.0,0.0,0.0,0.0,0.0,0.0,0.0,0.0,0.151,0.1287,0.1128,0.1125,0.0671,0.0423,0.0416,0.0185,0.0091,0.0045,0.0045,0.0,0.0,0.0045,0.0,0.0,0.0,0.0,0.0,0.0,0.0,0.0,0.0,0.0,0.0,0.0,0.0,0.0,0.0,0.0,0.0,0.0,0.0,0.0,0.0,0.2725,0.3705,0.317,0.4732,0.5541,0.496,0.0,0.0,0.0,0.0,0.3798,0.3395,0.4463,0.5312,0.6027,0.6523,0.6925,0.7095,0.7095,0.7095,0.7095,0.7095,0.7095,0.7095,0.7095,0.0,0.0,0.0,0.0,0.0,0.0,0.0,0.0,0.0,0.0,0.0,0.0,0.0,0.0,0.0,0.0,0.0,0.0,0.0,0.0,0.0,0.0,0.0,0.0,0.0,0.0,0.0,0.0,0.0,0.0,0.0,0.0,0.0,0.0,0.0,0.0,0.0,0.0,0.0,0.33,0.1962,0.1506,0.1487,0.1513,0.0,0.0,0.0,0.0,0.0,0.0,0.0,0.0,0.0,0.1364,0.1364,0.1313,0.1162,0.1052,0.0998,0.0948,0.0734,0.0531,0.0383,0.0284,0.0141,0.0,0.0,0.0,0.0,0.018,0.0224,0.018,0.0,0.0,0.0,0.0,0.0,0.0,0.0,0.0,0.0,0.0,0.0,0.0,0.0,0.0,0.0,0.0,0.0,0.0,-0.0269,0.1878,0.2992,0.21,0.3864,0.472,0.4005,0.3975,0.0,0.0,0.2681,0.2608,0.2372,0.3486,0.4779,0.6257,0.6299,0.6564,0.701,0.683,0.6874,0.7095,0.683,0.6874,0.7095,0.7095,0.7095,0.7095,0.0,0.0,0.0,0.0,0.0,0.0,0.0,0.0,0.0,0.0,0.0,0.0,0.0,0.0,0.0,0.0,0.0,0.0,0.0,0.0,0.0,0.0,0.0,0.0,0.0,0.0,0.0,0.0,0.0,0.0,0.0,0.0,0.0,0.0,0.0,0.0,0.0,0.2698,0.1483,0.1491,0.1519,0.1547,0.0,0.0,0.0,0.0,0.0,0.0,0.1617,0.1617,0.1516,0.1314,0.1313,0.1212,0.101,0.096,0.0909,0.0909,0.0846,0.0691,0.0491,0.0435,0.0287,0.0095,0.0048,0.0,0.0,0.0228,0.0225,0.0135,0.0224,0.0224,0.0,0.0045,0.0,0.0,0.0,0.0,0.0,0.0,0.0,0.0,0.0,0.0,0.0,0.0,0.0,-0.0583,-0.1256,0.0627,0.161,0.085,0.2231,0.3086,0.2997,0.3048,0.2586,0.1525,0.1476,0.1051,0.018,0.1077,0.2642,0.4828,0.5001,0.5669,0.6795,0.6077,0.6251,0.7051,0.6163,0.6251,0.7095,0.7095,0.7095,0.7139,0.737,0.0,0.0,0.0,0.0,0.0,0.0,0.0,0.0,0.0,0.0,0.0,0.0,0.0,0.0,0.0,0.0,0.0,0.0,0.0,0.0,0.0,0.0,0.0,0.0,0.0,0.0,0.0,0.0,0.0,0.0,0.0,0.0,0.0,0.0,0.0,0.0,0.0,0.0,0.1521,0.1551,0.0,0.0,0.0,0.0,0.1617,0.1617,0.1617,0.1617,0.1617,0.1617,0.1566,0.1566,0.1566,0.1566,0.1314,0.1162,0.1162,0.0908,0.0799,0.0785,0.0539,0.0388,0.0381,0.0095,0.0,0.0,0.0,0.0183,0.0359,0.0135,0.018,0.0359,0.009,0.0,0.0,0.0,0.0,0.0,0.0,0.0,0.0,0.0,0.0,0.0,-0.1416,-0.1235,-0.1196,-0.1445,-0.0093,0.0745,0.0466,0.1665,0.2225,0.1692,0.1731,0.1395,0.0555,0.0508,0.0641,0.0898,0.1211,0.215,0.3755,0.3985,0.442,0.5013,0.4896,0.5021,0.5344,0.5021,0.5437,0.644,0.6904,0.7095,0.7095,0.7187,0.7455,0.0,0.0,0.0,0.0,0.0,0.0,0.0,0.0,0.0,0.0,0.0,0.0,0.0,0.0,0.0,0.0,0.0,0.0,0.0,0.0,0.0,0.0,0.0,0.0,0.0,0.0,0.0,0.0,0.0,0.0,0.0,0.0,0.0,0.0,0.0,0.0,0.0,0.1551,0.1582,0.0,0.16,0.1611,0.1617,0.1617,0.1617,0.1617,0.1617,0.1617,0.1626,0.1645,0.1646,0.1655,0.1673,0.1568,0.1516,0.1516,0.1411,0.1303,0.1138,0.1023,0.0862,0.0705,0.0398,0.0246,0.0243,0.0048,0.0048,0.014,0.0047,0.0046,0.0137,0.0046,0.0,0.0,0.0,0.0,0.0,0.0,0.0,0.0,0.0,0.0,-0.1458,-0.1478,-0.1303,-0.1222,-0.1477,-0.0524,0.0048,-0.019,0.0611,0.0893,0.0432,0.0427,0.0282,-0.014,-0.0046,0.0273,0.0898,0.0948,0.1494,0.2575,0.2954,0.3402,0.3867,0.392,0.4087,0.437,0.4087,0.4703,0.6012,0.6133,0.6583,0.7214,0.7207,0.7455,0.7779,0.0,0.0,0.0,0.0,0.0,0.0,0.0,0.0,0.0,0.0,0.0,0.0,0.0,0.0,0.0,0.0,0.0,0.0,0.0,0.0,0.0,0.0,0.0,0.0,0.0,0.0,0.0,0.0,0.0,0.0,0.0,0.0,0.0,0.0,0.0,0.1553,0.1583,0.1605,0.1617,0.1617,0.1626,0.1633,0.1633,0.1641,0.1646,0.1646,0.1646,0.1656,0.1676,0.1676,0.1685,0.1704,0.1704,0.1704,0.1704,0.1704,0.1598,0.1437,0.1316,0.1204,0.0995,0.0569,0.0409,0.0404,0.0101,0.0,0.0,0.0,0.0,0.0,0.0,0.0,0.0,0.0,0.0,0.0,0.0,0.0,0.0,0.0,-0.1461,-0.1481,-0.1482,-0.0895,-0.0716,-0.1433,-0.0669,-0.043,-0.1146,-0.0955,-0.0818,-0.0833,-0.0834,-0.0681,-0.043,-0.0138,0.0,0.0,0.0,0.0462,0.1341,0.1889,0.2622,0.3482,0.3105,0.3439,0.4245,0.3345,0.4054,0.585,0.4853,0.5548,0.7373,0.7447,0.7476,0.7561,0.0,0.0,0.0,0.0,0.0,0.0,0.0,0.0,0.0,0.0,0.0,0.0,0.0,0.0,0.0,0.0,0.0,0.0,0.0,0.0,0.0,0.0,0.0,0.0,0.0,0.0,0.0,0.0,0.0,0.0,0.0,0.0,0.0,0.3185,0.2231,0.1583,0.1614,0.1618,0.1619,0.162,0.1646,0.1716,0.1716,0.1689,0.1704,0.1704,0.1704,0.1705,0.1705,0.1705,0.1706,0.1707,0.1707,0.1707,0.1707,0.1707,0.1707,0.1707,0.1439,0.1332,0.1279,0.0693,0.0427,0.0373,0.0107,0.0,0.0,0.0,0.0,0.0,0.0,0.0,0.0,0.0,0.0,0.0,0.0,0.0,0.0,0.0,-0.1461,-0.1489,-0.151,-0.1347,-0.1371,-0.154,-0.1343,-0.1293,-0.1492,-0.1425,-0.1318,-0.108,-0.108,-0.0876,-0.043,-0.0321,-0.0181,0.0,0.0,0.0141,0.0386,0.0739,0.1051,0.1268,0.1389,0.1656,0.2121,0.1862,0.2615,0.4043,0.4388,0.5289,0.6527,0.6447,0.6953,0.7795,0.0,0.0,0.0,0.0,0.0,0.0,0.0,0.0,0.0,0.0,0.0,0.0,0.0,0.0,0.0,0.0,0.0,0.0,0.0,0.0,0.0,0.0,0.0,0.0,0.0,0.0,0.0,0.0,0.0,0.0,0.0,0.0,0.4438,0.4173,0.2688,0.1641,0.1643,0.165,0.1658,0.1678,0.1688,0.1692,0.1692,0.1699,0.1704,0.1704,0.1704,0.1714,0.179,0.1791,0.1748,0.177,0.177,0.177,0.177,0.177,0.177,0.1769,0.1692,0.1683,0.1628,0.1232,0.0959,0.0747,0.0427,0.016,0.0,0.0,0.0,0.0,0.0,0.0,0.0,0.0,0.0,0.0,0.0,0.0,0.0,0.0,-0.148,-0.151,-0.1541,-0.1571,-0.1597,-0.1615,-0.1617,-0.1617,-0.1617,-0.16,-0.1541,-0.1392,-0.1273,-0.1017,-0.0579,-0.0464,-0.0275,0.0,0.0,0.0,0.0,0.0255,0.0416,0.042,0.069,0.0907,0.112,0.1226,0.1959,0.3192,0.3832,0.4993,0.6299,0.6325,0.6885,0.7782,0.7875,0.8013,0.8153,0.8243,0.829,0.829,0.829,0.0,0.0,0.0,0.0,0.0,0.0,0.0,0.0,0.0,0.0,0.0,0.0,0.0,0.0,0.0,0.0,0.0,0.0,0.0,0.0,0.0,0.0,0.0,0.0,0.6007,0.5212,0.4802,0.2961,0.1678,0.1674,0.168,0.1686,0.1703,0.1716,0.1723,0.1723,0.1735,0.1742,0.1742,0.1742,0.175,0.1823,0.1823,0.1777,0.1795,0.1795,0.1795,0.1795,0.1795,0.1795,0.1794,0.1777,0.1823,0.0,0.1422,0.1198,0.1035,0.0763,0.0436,0.0,0.0,0.0,0.0,0.0,0.0,0.0,0.0,0.0,0.0,0.0,0.0,0.0,0.0,-0.1506,-0.1537,-0.1568,-0.1598,-0.1617,-0.1617,-0.1617,-0.1617,-0.1617,-0.1617,-0.1617,-0.1617,-0.1368,-0.1109,-0.0834,-0.0568,-0.0328,0.0,0.0,0.0,0.0,0.0263,0.0375,0.0376,0.059,0.0751,0.0751,0.1073,0.1766,0.2775,0.3361,0.4695,0.6378,0.6719,0.7214,0.7648,0.7834,0.7925,0.7925,0.8161,0.8251,0.8251,0.8251,0.0,0.0,0.0,0.0,0.0,0.0,0.0,0.0,0.0,0.0,0.0,0.0,0.0,0.0,0.0,0.0,0.0,0.0,0.0,0.0,0.0,0.0,0.0,0.0,0.6842,0.5906,0.4876,0.2972,0.1734,0.1706,0.171,0.1711,0.1714,0.1739,0.1809,0.1809,0.178,0.1795,0.1795,0.0,0.0,0.0,0.0,0.1795,0.1795,0.1795,0.1795,0.1795,0.1795,0.1795,0.1795,0.1795,0.1795,0.1795,0.1458,0.1346,0.129,0.1065,0.0729,0.0391,0.0109,0.0,0.0,0.0,0.0,0.0,0.0,0.0,0.0,0.0,0.0,0.0,0.0,-0.1506,-0.1537,-0.1568,-0.1598,-0.1617,-0.1617,-0.1617,-0.1617,-0.1617,-0.1617,-0.1617,-0.1617,-0.1533,-0.1321,-0.0834,-0.0768,-0.0482,0.0,0.0,0.0,0.0,0.0054,0.0055,0.0056,0.0111,0.0278,0.05,0.0555,0.0937,0.174,0.3635,0.4832,0.5538,0.7276,0.7938,0.7907,0.7953,0.8002,0.8002,0.8052,0.8052,0.8052,0.8052,0.8052,0.8052,0.8052,0.8052,0.0,0.0,0.0,0.0,0.0,0.0,0.0,0.0,0.0,0.0,0.0,0.0,0.0,0.0,0.0,0.0,0.0,0.0,0.0,0.6901,0.5972,0.4972,0.3828,0.2596,0.1789,0.1795,0.1795,0.1805,0.1775,0.1782,0.1787,0.1787,0.1791,0.1795,0.1795,0.1795,0.0,0.1795,0.1795,0.1795,0.1795,0.1795,0.1795,0.1795,0.0,0.0,0.1795,0.1795,0.1795,0.1795,0.1739,0.157,0.129,0.1234,0.0897,0.0392,0.0111,0.0,0.0,0.0,0.0,0.0,0.0,0.0,0.0,0.0,0.0,0.0,0.0,-0.1529,-0.156,-0.159,-0.1607,-0.1617,-0.1617,-0.1617,-0.1617,-0.1617,-0.1617,-0.1624,-0.1639,-0.1597,-0.1436,-0.106,-0.0885,-0.0591,-0.0205,-0.0052,0.0,0.0,0.0,0.0,0.0,0.0,0.0056,0.0224,0.0336,0.0558,0.0996,0.3534,0.47,0.5101,0.7279,0.8135,0.8147,0.8019,0.7988,0.7988,0.7988,0.7988,0.7988,0.7988,0.7988,0.7988,0.7988,0.7988,0.7988,0.0,0.0,0.0,0.0,0.0,0.0,0.0,0.0,0.0,0.0,0.0,0.0,0.0,0.0,0.8153,0.8153,0.0,0.7278,0.6703,0.5744,0.4697,0.3545,0.2971,0.249,0.1883,0.1828,0.1778,0.1793,0.1795,0.1795,0.1795,0.1795,0.1795,0.1795,0.1795,0.1795,0.1795,0.1795,0.1795,0.1795,0.1795,0.1795,0.1795,0.1795,0.1795,0.1795,0.1795,0.1795,0.1795,0.1795,0.1683,0.1514,0.1346,0.1121,0.0785,0.0393,0.0112,0.0,0.0,0.0,0.0,0.0,0.0,0.0,0.0,0.0,0.0,0.0,0.0,-0.1582,-0.1613,-0.1617,-0.1617,-0.1617,-0.1617,-0.1617,-0.1617,-0.1622,-0.1634,-0.1704,-0.1663,-0.1508,-0.129,-0.0954,-0.0653,-0.0417,-0.0159,0.0,0.0,0.0,0.0,0.0,0.0,0.0,0.0,0.0224,0.0336,0.0561,0.3243,0.4491,0.4864,0.7063,0.805,0.8241,0.8009,0.7939,0.7988,0.7988,0.7988,0.7988,0.7988,0.7988,0.7988,0.7988,0.7988,0.7988,0.7988,0.7988,0.0,0.0,0.0,0.0,0.0,0.0,0.0,0.0,0.8012,0.8032,0.8032,0.8208,0.8364,0.8364,0.7639,0.6929,0.6449,0.5683,0.4658,0.3293,0.3165,0.2912,0.1907,0.1795,0.1795,0.1795,0.1795,0.1795,0.1795,0.1795,0.1795,0.1795,0.1795,0.1795,0.1795,0.1795,0.1795,0.1795,0.1795,0.1795,0.1795,0.1795,0.1795,0.1795,0.1795,0.1795,0.1795,0.1795,0.1795,0.1795,0.1514,0.1346,0.1234,0.0785,0.0393,0.0056,0.0,0.0,0.0,0.0,0.0,0.0,0.0,0.0,0.0,0.0,0.0,0.0,-0.1613,-0.1617,-0.1617,-0.1617,-0.1617,-0.1617,-0.1617,-0.1641,-0.1647,-0.1624,-0.1641,-0.154,-0.1217,-0.0959,-0.0666,-0.0425,-0.016,0.0,0.0,0.0,0.0,0.0,0.0,0.0,0.0,0.0056,0.0168,0.0561,0.3018,0.4241,0.4723,0.6778,0.7793,0.8011,0.7746,0.7793,0.7988,0.7988,0.7988,0.7988,0.7988,0.7988,0.7988,0.7988,0.7988,0.7988,0.7988,0.7988,0.7988,0.7988,0.7988,0.7988,0.7988,0.7988,0.7988,0.0,0.8147,0.8245,0.8245,0.836,0.8459,0.8459,0.8474,0.7762,0.5649,0.5345,0.4569,0.2292,0.2017,0.1963,0.1795,0.1795,0.1795,0.1795,0.1795,0.1795,0.1795,0.1795,0.1795,0.1795,0.1795,0.1795,0.1795,0.1795,0.1795,0.1795,0.1795,0.1795,0.1795,0.1795,0.1795,0.1795,0.1795,0.1795,0.1795,0.1795,0.1795,0.1795,0.1739,0.157,0.129,0.1234,0.0841,0.0336,0.0112,0.0,0.0,0.0,0.0,0.0,0.0,0.0,0.0,0.0,0.0,0.0,0.0,-0.1617,-0.1617,-0.1617,-0.1617,-0.1617,-0.1617,-0.1628,-0.1638,-0.1643,-0.1639,-0.1587,-0.1489,-0.1067,-0.0767,-0.063,-0.021,0.0,0.0,0.0,0.0,0.0,0.0,0.0,0.0,0.0,0.0056,0.0336,0.2741,0.3892,0.4289,0.6488,0.7491,0.7662,0.7466,0.754,0.7793,0.7939,0.7988,0.0,0.7988,0.7988,0.7988,0.7988,0.7988,0.7988,0.7988,0.7988,0.7992,0.7793,0.7743,0.7812,0.7894,0.7965,0.7988,0.8228,0.8347,0.8394,0.8394,0.8513,0.8615,0.8615,0.8138,0.724,0.0,0.4729,0.3747,0.2018,0.1795,0.1795,0.1795,0.1795,0.1795,0.1795,0.1795,0.1795,0.1795,0.1795,0.1795,0.1795,0.1795,0.1795,0.1795,0.1795,0.1795,0.1795,0.1795,0.1795,0.1795,0.1795,0.1795,0.1795,0.1795,0.1795,0.1795,0.1795,0.1795,0.1795,0.1795,0.1739,0.157,0.1402,0.1121,0.0841,0.0393,0.0112,0.0,0.0,0.0,0.0,0.0,0.0,0.0,0.0,0.0,0.0,0.0,-0.1617,-0.1617,-0.1617,-0.1617,-0.1617,-0.1617,-0.1624,-0.1635,-0.1649,-0.1637,-0.1635,-0.1649,-0.112,-0.0815,-0.0778,-0.026,0.0,0.0,0.0,0.0,0.0,0.0,0.0,0.0,0.0,0.0,0.0111,0.2208,0.3341,0.3838,0.5783,0.6903,0.7328,0.7142,0.7294,0.7646,0.7842,0.7942,0.7988,0.7988,0.7988,0.7988,0.7988,0.7988,0.7988,0.7988,0.7988,0.7949,0.7742,0.7651,0.7686,0.7875,0.7911,0.804,0.8406,0.8516,0.8547,0.8547,0.8665,0.8774,0.8774,0.8142,0.7093,0.5639,0.4693,0.358,0.2019,0.1795,0.1795,0.1795,0.1795,0.1795,0.1795,0.1795,0.1795,0.1795,0.1795,0.1795,0.1795,0.1795,0.1795,0.1795,0.1795,0.1795,0.1795,0.1795,0.1795,0.1795,0.1795,0.1795,0.1795,0.1795,0.1795,0.1795,0.1683,0.1739,0.1795,0.1683,0.1739,0.1795,0.1514,0.1402,0.1234,0.0785,0.0393,0.0112,0.0,0.0,0.0,0.0,0.0,0.0,0.0,0.0,0.0,0.0,0.0,0.0,0.0,-0.1617,-0.1617,-0.1617,-0.1643,-0.1649,-0.162,-0.1645,-0.1648,-0.162,-0.1112,-0.0815,-0.0778,-0.026,0.0,0.0,0.0,0.0,0.0,0.0,0.0,0.0,0.0,0.0,0.0107,0.1332,0.2447,0.3502,0.4636,0.5845,0.7024,0.6844,0.7144,0.7596,0.7596,0.7793,0.7988,0.7988,0.7988,0.7988,0.7988,0.7988,0.7988,0.7988,0.7988,0.7969,0.7855,0.7789,0.7824,0.7968,0.8006,0.8111,0.843,0.8598,0.8703,0.8703,0.8825,0.8875,0.8875,0.8881,0.8097,0.575,0.5361,0.4528,0.213,0.1795,0.1795,0.1795,0.1795,0.1795,0.0,0.1795,0.1795,0.1795,0.1795,0.1795,0.1795,0.1795,0.1795,0.1795,0.1795,0.1795,0.1795,0.1795,0.1795,0.1795,0.1795,0.1795,0.1795,0.1795,0.1795,0.1795,0.1458,0.1514,0.1795,0.1458,0.1514,0.1795,0.1795,0.157,0.129,0.129,0.0897,0.0393,0.0,0.0,0.0,0.0,0.0,0.0,0.0,0.0,0.0,0.0,0.0,0.0,0.0,0.0,0.0,0.0,-0.1626,-0.1628,-0.1618,-0.1626,-0.1628,-0.1617,-0.1061,-0.0811,-0.0816,-0.0255,0.0,0.0,0.0,0.0,0.0,0.0,0.0,0.0,0.0,0.0,0.0053,0.1277,0.2375,0.3393,0.4508,0.5644,0.6597,0.6553,0.6742,0.7045,0.0,0.749,0.7988,0.7988,0.7988,0.7988,0.7988,0.7988,0.7988,0.7988,0.7959,0.7839,0.7581,0.7452,0.7448,0.7582,0.7776,0.8012,0.8429,0.8658,0.8807,0.8807,0.8848,0.8885,0.8885,0.8885,0.838,0.676,0.5919,0.486,0.3246,0.2297,0.1795,0.1795,0.1795,0.0,0.0,0.0,0.0,0.1823,0.1825,0.1834,0.1854,0.1855,0.1846,0.1825,0.1825,0.1815,0.1795,0.1795,0.1795,0.1795,0.1795,0.1795,0.1795,0.1795,0.1795,0.1795,0.1683,0.157,0.1458,0.1346,0.129,0.1234,0.1402,0.1402,0.1346,0.157,0.1346,0.0953,0.0,0.0,0.0,0.0,0.0,0.0,0.0,0.0,0.0,0.0,0.0,0.0,0.0,0.0,0.0,0.0,0.0,-0.1617,-0.1617,-0.1617,-0.1617,-0.1617,-0.1061,-0.0808,-0.0808,-0.0253,0.0,0.0,0.0,0.0,0.0,0.0,0.0,0.0,0.0,0.0,0.0052,0.0836,0.1711,0.2718,0.3484,0.4373,0.5281,0.5684,0.5987,0.0,0.6642,0.7191,0.769,0.769,0.769,0.769,0.769,0.769,0.7749,0.7902,0.7778,0.7615,0.7455,0.7331,0.7318,0.7451,0.7644,0.7938,0.841,0.8654,0.8771,0.8881,0.8885,0.8885,0.8885,0.8885,0.8491,0.7321,0.648,0.5419,0.3804,0.2911,0.2303,0.1866,0.1811,0.1815,0.0,0.0,0.0,0.1782,0.1851,0.1865,0.1885,0.1886,0.1872,0.1784,0.1783,0.1825,0.1795,0.1795,0.1795,0.1795,0.1795,0.1795,0.1795,0.1795,0.1795,0.1795,0.1683,0.157,0.1458,0.1234,0.1121,0.1065,0.1234,0.129,0.1346,0.1683,0.1683,0.1402,0.0,0.0,0.0,0.0,0.0,0.0,0.0,0.0,0.0,0.0,0.0,0.0,0.0,0.0,0.0,0.0,0.0,0.0,-0.1617,-0.1566,-0.1566,-0.1617,-0.1061,-0.0808,-0.0808,-0.0253,0.0,0.0,0.0,0.0,0.0,0.0,0.0,0.0,0.0,0.0,0.0,0.0,0.0606,0.1613,0.1613,0.2267,0.3324,0.4331,0.4883,0.5229,0.6289,0.6842,0.7086,0.7185,0.7188,0.7188,0.7188,0.7191,0.7275,0.7655,0.7603,0.7416,0.7401,0.7416,0.7397,0.7575,0.7607,0.7773,0.8322,0.8484,0.8598,0.8826,0.8881,0.8885,0.8885,0.8885,0.8546,0.7376,0.7154,0.6316,0.4083,0.3695,0.3157,0.2008,0.1842,0.1796,0.1883,0.0,0.0,0.179,0.0,0.1889,0.189,0.189,0.1877,0.1788,0.1786,0.1828,0.1797,0.1795,0.1795,0.1795,0.1795,0.1795,0.1795,0.1795,0.1795,0.1795,0.1458,0.1514,0.1739,0.1177,0.1065,0.1234,0.129,0.129,0.129,0.1627,0.1795,0.1739,0.0,0.0,0.0,0.0,0.0,0.0,0.0,0.0,0.0,0.0,0.0,0.0,0.0,0.0,0.0,0.0,0.0,0.0,-0.1617,-0.1415,-0.1415,-0.1566,-0.0909,-0.0606,-0.0808,-0.0253,0.0,0.0,0.0,0.0,0.0,0.0,0.0,0.0,0.0,0.0,0.0,0.0,0.0606,0.1613,0.1613,0.2267,0.3224,0.3525,0.3626,0.3825,0.4933,0.5336,0.5584,0.6786,0.7188,0.7188,0.7188,0.7258,0.7346,0.7482,0.743,0.7383,0.7396,0.7316,0.7282,0.7315,0.7438,0.7662,0.7771,0.8156,0.854,0.8598,0.8768,0.8885,0.8885,0.8885,0.8771,0.8494,0.7709,0.6874,0.6313,0.469,0.3483,0.3155,0.2381,0.176,0.1531,0.1727,0.0,0.0,0.1735,0.193,0.1952,0.1954,0.1939,0.1849,0.1886,0.1859,0.1772,0.1806,0.1795,0.1795,0.1795,0.1795,0.1795,0.1795,0.1795,0.1795,0.1683,0.157,0.1402,0.1234,0.0953,0.0673,0.0897,0.0841,0.0673,0.1234,0.1402,0.1458,0.0,0.0,0.0,0.0,0.0,0.0,0.0,0.0,0.0,0.0,0.0,0.0,0.0,0.0,0.0,0.0,0.0,0.0,0.0,-0.1111,-0.1111,-0.1263,-0.0707,-0.0455,-0.0606,-0.0202,0.0,0.0,0.0,0.0,0.0,0.0,0.0,0.0,0.0,0.0,0.0,0.0,0.0353,0.0,0.0,0.1261,0.1865,0.2318,0.2519,0.272,0.423,0.5085,0.5634,0.6537,0.6836,0.6886,0.6989,0.703,0.7093,0.7254,0.7255,0.7262,0.7316,0.7271,0.721,0.721,0.7324,0.7493,0.7715,0.8045,0.8358,0.8571,0.8726,0.8838,0.8838,0.8838,0.8804,0.8871,0.8211,0.754,0.6982,0.5217,0.3795,0.3246,0.218,0.1373,0.1262,0.1395,0.1402,0.0,0.1646,0.1958,0.1975,0.1977,0.1957,0.1913,0.1895,0.1865,0.1821,0.1804,0.1795,0.1795,0.1795,0.1795,0.1795,0.1795,0.1795,0.1795,0.0,0.1683,0.1514,0.1346,0.1121,0.0841,0.1009,0.0897,0.0673,0.129,0.1402,0.1346,0.0,0.0,0.0,0.0,0.0,0.0,0.0,0.0,0.0,0.0,0.0,0.0,0.0,0.0,0.0,0.0,0.0,0.0,0.0,0.0,-0.0758,-0.0808,-0.0505,-0.0354,-0.0404,-0.0152,0.0,0.0,0.0,0.0,0.0,0.0,0.0,0.0,0.0,0.0,0.0,0.0,0.0,0.0,0.0,0.0,0.0101,0.0,0.1412,0.1664,0.3827,0.5384,0.6387,0.6387,0.6387,0.6439,0.6712,0.6701,0.672,0.7051,0.7124,0.7029,0.7182,0.721,0.721,0.721,0.721,0.7321,0.7823,0.7977,0.8097,0.8574,0.8639,0.8679,0.8679,0.8696,0.8699,0.8834,0.8644,0.8094,0.7035,0.5667,0.4268,0.3111,0.1911,0.1093,0.0925,0.0988,0.0988,0.0926,0.1544,0.1853,0.1853,0.1915,0.1949,0.1888,0.1882,0.1853,0.1795,0.1795,0.1795,0.1795,0.1795,0.1795,0.1795,0.1795,0.1795,0.1795,0.0,0.0,0.1795,0.1458,0.1346,0.129,0.129,0.1121,0.0953,0.1514,0.157,0.1346,0.0,0.0,0.0,0.0,0.0,0.0,0.0,0.0,0.0,0.0,-0.0751,-0.091,0.0,0.0,0.0,0.0,0.0,0.0,0.0,0.0,0.0,-0.0808,-0.0354,-0.0152,-0.0404,-0.0152,0.0,0.0,0.0,0.0,0.0,0.0,0.0,0.0,0.0,0.0,0.0,0.0,0.0,0.0,0.0,0.0,0.0,0.0202,0.0,0.0,0.272,0.473,0.6387,0.6387,0.6387,0.6406,0.6607,0.6673,0.6793,0.6969,0.7089,0.7185,0.7204,0.721,0.721,0.721,0.721,0.7268,0.7604,0.774,0.7925,0.8288,0.8451,0.8523,0.8523,0.8625,0.8612,0.8425,0.8468,0.8318,0.782,0.6745,0.5537,0.4337,0.3161,0.2001,0.074,0.0864,0.0,0.0,0.0,0.1173,0.1173,0.142,0.1705,0.1888,0.1862,0.1831,0.1795,0.1795,0.1795,0.1795,0.1795,0.1795,0.1795,0.1795,0.1795,0.1795,0.0,0.0,0.1795,0.1739,0.157,0.129,0.129,0.1121,0.0953,0.129,0.1346,0.1346,0.0,0.0,0.0,0.0,0.0,0.0,0.0,-0.0102,-0.0052,-0.0157,-0.0316,-0.0421,-0.0421,-0.0418,0.0,0.0,0.0,0.0,0.0,0.0,0.0,0.0,0.0,0.0,-0.0202,-0.0051,0.0,0.0,0.0,0.0,0.0,0.0,0.0,0.0,0.0,0.0,0.0,0.0,0.0,0.0,0.0,0.0,0.0,0.0,0.0,0.0,0.2821,0.4578,0.6387,0.6387,0.6387,0.6395,0.6454,0.6651,0.6815,0.6872,0.7016,0.721,0.721,0.721,0.721,0.721,0.721,0.7321,0.7715,0.7831,0.7929,0.8341,0.8423,0.8374,0.8374,0.8492,0.8565,0.8538,0.8343,0.8208,0.8045,0.6748,0.5364,0.4163,0.2981,0.1759,0.037,0.037,0.0432,0.0,0.0,0.0,0.0988,0.1094,0.1252,0.1397,0.1489,0.1526,0.1514,0.1739,0.1795,0.1795,0.1795,0.1795,0.1795,0.1795,0.1795,0.1795,0.0,0.0,0.1795,0.1795,0.1683,0.157,0.157,0.1402,0.1121,0.1458,0.1458,0.1346,0.0,0.0,0.0,0.0,0.0,0.0,0.0,0.0,0.0,0.0,0.0,0.0,0.0,0.0,0.0,0.0,0.0,0.0,0.0,0.0,0.0,0.0,0.0,0.0,0.0,0.0,0.0,0.0,0.0,0.0,0.0,0.0,0.0,0.0,0.0,0.0,0.0,0.0,0.0,0.0,0.0,0.0,0.0,0.0,0.0,0.0,0.0,0.4429,0.6087,0.6337,0.6387,0.6387,0.6387,0.6605,0.6806,0.6834,0.6989,0.721,0.721,0.721,0.721,0.721,0.721,0.7313,0.7843,0.7841,0.7867,0.8364,0.8323,0.8221,0.8221,0.834,0.8486,0.8531,0.8298,0.8014,0.7931,0.673,0.5281,0.3793,0.2789,0.1628,0.0123,0.0,0.0,0.0,0.0,0.0,0.086,0.0838,0.0819,0.092,0.1188,0.129,0.129,0.1627,0.1795,0.1795,0.1795,0.1795,0.1795,0.1795,0.1795,0.1795,0.0,0.0,0.0,0.1795,0.1795,0.1795,0.1795,0.1627,0.1458,0.1683,0.1627,0.1458,0.0,0.0,0.0,0.0,0.0,0.0,0.0,0.0,0.0,0.0,0.0,0.0,0.0,0.0,0.0,0.0,0.0,0.0,0.0,0.0,0.0,0.0,0.0,0.0,0.0,0.0,0.0,0.0,0.0,0.0,0.0,0.0,0.0,0.0,0.0,0.0,0.0,0.0,0.0,0.0,0.0,0.0,0.0,0.0,0.0,0.0,0.0,0.3977,0.5085,0.6087,0.6387,0.6387,0.6387,0.6605,0.6825,0.6937,0.7111,0.721,0.721,0.721,0.721,0.721,0.721,0.7293,0.7723,0.7704,0.7734,0.8217,0.8167,0.8012,0.8012,0.8187,0.8285,0.8115,0.8207,0.8131,0.77,0.7504,0.6429,0.3901,0.3499,0.255,0.0241,0.0,0.0,0.0,0.0,0.0,0.0,0.0476,0.0585,0.0863,0.1188,0.129,0.129,0.1627,0.1795,0.1795,0.1795,0.1795,0.1795,0.1795,0.1795,0.1795,0.0,0.0,0.0,0.1795,0.1795,0.1795,0.1795,0.1795,0.1739,0.1795,0.1795,0.1739,0.0,0.0,0.0,0.0,0.0,0.0,0.0858,0.0958,0.1211,0.1865,0.1984,0.1793,0.1026,0.1042,0.0781,0.0,0.0,0.0,0.0,0.0,0.0,0.0,0.0,0.0,0.0,0.0,0.0,0.0,0.0,0.0,0.0,0.0,0.0,0.0,0.0,0.0,0.0,0.0,0.0,0.0,0.0,0.0,0.0,0.0,0.0,0.0,0.0,0.0,0.5834,0.6237,0.6387,0.6387,0.6387,0.6554,0.6717,0.6839,0.6959,0.7122,0.7191,0.721,0.721,0.721,0.7268,0.7417,0.7744,0.7781,0.7817,0.8231,0.8147,0.7988,0.7988,0.8167,0.8316,0.8302,0.8295,0.8279,0.8137,0.7826,0.6921,0.5148,0.4824,0.4077,0.0,0.0,0.0,0.0,0.0,0.0,0.0,0.0176,0.023,0.034,0.0619,0.0785,0.0785,0.1234,0.1514,0.1514,0.1683,0.1795,0.1795,0.1795,0.1795,0.1795,0.0,0.0,0.0,0.1795,0.1795,0.1795,0.1795,0.1795,0.1795,0.1795,0.1795,0.1795,0.0,0.0,0.0,0.0,0.0,0.1273,0.2047,0.2202,0.2457,0.3224,0.3414,0.3128,0.2297,0.2268,0.1999,0.113,0.041,0.0,0.0,0.0,0.0,0.0,0.0,0.0,0.0,0.0,0.0,0.0,0.0,0.0,0.0,0.0,0.0,0.0,0.0,0.0,0.0,0.0,0.0,0.0,0.0,0.0,0.0,0.0,0.0,0.0,0.0,0.0,0.0,0.0,0.0,0.6387,0.6387,0.6446,0.6589,0.6711,0.6834,0.6948,0.7029,0.7106,0.7106,0.7106,0.7203,0.7398,0.7624,0.7731,0.7888,0.816,0.8116,0.7988,0.7988,0.813,0.8262,0.8452,0.8415,0.8389,0.8459,0.8156,0.7354,0.5962,0.0,0.5187,0.0,0.0,0.0,0.0,0.0,0.0,0.0,0.0,0.0,0.0,0.028,0.0393,0.0393,0.0897,0.1234,0.129,0.1514,0.1683,0.1795,0.1795,0.1795,0.0,0.0,0.0,0.0,0.1795,0.1795,0.1795,0.1795,0.1795,0.1795,0.1795,0.1795,0.1795,0.0,0.0,0.0,0.0,0.0,0.0,0.3547,0.3557,0.361,0.361,0.361,0.3611,0.3558,0.3558,0.3558,0.3557,0.1384,0.0,0.0,0.0,0.0,0.0,0.0,0.0,0.0,0.0,0.0,0.0,0.0,0.0,0.0,0.0,0.0,0.0,0.0,0.0,0.0,0.0,0.0,0.0,0.0,0.0,0.0,0.0,0.0,0.0,0.0,0.0,0.0,0.0,0.0,0.0,0.0,0.6387,0.6411,0.6586,0.6709,0.6804,0.6804,0.6806,0.6806,0.6806,0.7012,0.7241,0.7373,0.7597,0.7858,0.7972,0.7992,0.7988,0.7988,0.7992,0.8089,0.8435,0.8482,0.8481,0.8501,0.8484,0.7817,0.0,0.0,0.5403,0.3939,0.0,0.0,0.0,0.0,0.0,0.0,0.0,0.0,0.0,0.028,0.0393,0.0393,0.0729,0.1009,0.129,0.129,0.1458,0.1795,0.1795,0.0,0.0,0.0,0.0,0.0,0.1795,0.1795,0.1795,0.1795,0.1795,0.1795,0.1795,0.1795,0.1795,0.0,0.0,0.0,0.0,0.0,0.0,0.0,0.4672,0.4939,0.5684,0.5852,0.5625,0.4759,0.4755,0.4514,0.3688,0.2156,0.0,0.0,0.0,0.0,0.0,0.0,0.0,0.0,0.0,0.0,0.0,0.0,0.0,0.0,0.0,0.0,0.0,0.0,0.0,0.0,0.0,0.0,0.0,0.0,0.0,0.0,0.0,0.0,0.0,0.0,0.0,0.0,0.0,0.0,0.0,0.0,0.0,0.0,0.6687,0.6686,0.6747,0.72,0.7223,0.7115,0.7279,0.747,0.7643,0.7654,0.7826,0.7945,0.7998,0.7988,0.7988,0.7988,0.7988,0.8086,0.8435,0.8482,0.8587,0.8728,0.8432,0.0,0.7374,0.7138,0.6928,0.0,0.0,0.0,0.0,0.0,0.0,0.0,0.0,0.084,0.0,0.0056,0.0112,0.0112,0.0393,0.0617,0.0673,0.0897,0.1177,0.1458,0.1458,0.0,0.0,0.0,0.0,0.0,0.1795,0.1795,0.1795,0.1795,0.1795,0.1795,0.1795,0.1795,0.1795,0.0,0.0,0.0,0.0,0.0,0.0,0.0,0.5957,0.6175,0.688,0.7002,0.6772,0.6053,0.6056,0.5759,0.5031,0.3947,0.0,0.0,0.0,0.0,0.0,0.0,0.0,0.0159,0.0158,0.0104,0.0,0.0,0.0,0.0,0.0,0.0,0.0,0.0,0.0,0.0,0.0,0.0,0.0,0.0,0.0,0.3827,0.0,0.0,0.0,0.0,0.0,0.0,0.0,0.0,0.0,0.0,0.0,0.0,0.0,0.6796,0.6774,0.7316,0.7337,0.7231,0.7389,0.7581,0.7721,0.7721,0.7855,0.7988,0.7988,0.7988,0.7988,0.7988,0.8039,0.8204,0.8442,0.853,0.8598,0.8734,0.0,0.0,0.8016,0.0,0.0,0.0,0.0,0.0,0.0,0.0,0.0,0.0,0.0,0.1456,0.0728,0.0224,0.0,0.0,0.0168,0.0336,0.0617,0.0785,0.1121,0.1514,0.0,0.0,0.0,0.0,0.0,0.0,0.1795,0.1795,0.1795,0.1795,0.1795,0.1795,0.1795,0.1795,0.1795,0.0,0.0,0.0,0.0,0.0,0.0,0.0,0.721,0.721,0.721,0.721,0.721,0.721,0.721,0.721,0.721,0.0,0.0,0.0,0.0,0.0,0.0,0.0,0.0,0.0712,0.0646,0.0529,0.026,0.026,0.0206,0.0152,0.0101,0.0101,0.0101,0.0101,0.0151,0.0303,0.1361,0.2418,0.3324,0.3374,0.4028,0.0,0.0,0.0,0.0,0.0,0.0,0.0,0.0,0.0,0.0,0.0,0.0,0.0,0.0,0.0,0.0,0.0,0.7238,0.7238,0.7238,0.7441,0.7646,0.7646,0.7842,0.0,0.7988,0.7988,0.7988,0.7988,0.8167,0.8368,0.8459,0.8611,0.8652,0.0,0.8494,0.0,0.0,0.7802,0.0,0.0,0.0,0.0,0.0,0.0,0.0,0.0,0.0,0.0,0.2071,0.0784,0.0112,0.0056,0.0056,0.0336,0.0897,0.0897,0.1177,0.1739,0.0,0.0,0.0,0.0,0.0,0.0,0.1795,0.1795,0.1795,0.1795,0.1795,0.1795,0.1795,0.1795,0.1795,0.0,0.0,0.0,0.0,0.0,0.0,0.0,0.0,0.0,0.0,0.721,0.721,0.721,0.721,0.7268,0.0,0.0,0.0,0.0,0.0,0.0,0.0,0.0,0.0,0.3545,0.3312,0.3117,0.3064,0.276,0.2169,0.1391,0.127,0.121,0.121,0.121,0.1664,0.2519,0.3575,0.418,0.4481,0.5331,0.5784,0.0,0.0,0.0,0.0,0.6387,0.6387,0.0,0.0,0.0,0.0,0.0,0.0,0.0,0.0,0.7138,0.7188,0.769,0.0,0.7543,0.7739,0.7839,0.7892,0.0,0.7939,0.7988,0.7988,0.7988,0.7988,0.7988,0.8167,0.8368,0.8459,0.8611,0.8652,0.852,0.8186,0.0,0.7674,0.7687,0.0,0.0,0.0,0.0,0.0,0.0,0.0,0.0,0.0,0.0,0.4531,0.2463,0.1009,0.0336,0.028,0.0505,0.0897,0.0897,0.1065,0.1402,0.0,0.0,0.0,0.0,0.0,0.1795,0.1795,0.1795,0.1795,0.1795,0.1795,0.1795,0.1795,0.1795,0.1795,0.0,0.0,0.0,0.0,0.0,0.0,0.0,0.0,0.0,0.0,0.0,0.0,0.0,0.0,0.0,0.0,0.0,0.0,0.0,0.0,0.0,0.0,0.0,0.4838,0.4684,0.4515,0.4371,0.4246,0.3802,0.3286,0.2691,0.244,0.2318,0.2318,0.2318,0.2922,0.3979,0.4533,0.5085,0.5584,0.6187,0.0,0.0,0.0,0.0,0.0,0.6387,0.6387,0.0,0.6387,0.6387,0.6387,0.0,0.0,0.0,0.0,0.7188,0.7338,0.7839,0.7892,0.7793,0.7942,0.7988,0.7988,0.7988,0.7988,0.7988,0.7988,0.7988,0.8012,0.8133,0.8166,0.8262,0.8564,0.8497,0.0,0.0,0.0,0.7638,0.7589,0.0,0.0,0.0,0.0,0.0,0.0,0.0,0.0,0.0,0.0,0.0,0.0,0.358,0.2407,0.1848,0.0897,0.0841,0.1737,0.129,0.1234,0.1514,0.0,0.0,0.0,0.0,0.0,0.1795,0.1795,0.1795,0.1795,0.1795,0.1795,0.1795,0.1795,0.1795,0.1795,0.0,0.0,0.0,0.0,0.0,0.0,0.0,0.0,0.0,0.0,0.0,0.0,0.0,0.0,0.0,0.0,0.0,0.0,0.0,0.0,0.0,0.0,0.6308,0.5804,0.5524,0.5468,0.532,0.5083,0.4623,0.4279,0.4047,0.367,0.3484,0.3475,0.3626,0.4178,0.5035,0.5035,0.5584,0.6387,0.6387,0.0,0.0,0.0,0.0,0.0,0.0,0.0,0.0,0.6387,0.6387,0.6387,0.6387,0.0,0.0,0.0,0.0,0.0,0.7789,0.7942,0.7939,0.7988,0.7988,0.7988,0.7988,0.7988,0.7995,0.8019,0.8025,0.8069,0.8224,0.8161,0.8242,0.8582,0.0,0.0,0.7825,0.7613,0.7565,0.7687,0.0,0.0,0.0,0.0,0.0,0.0,0.0,0.0,0.0,0.0,0.0,0.0,0.4531,0.3971,0.4137,0.2016,0.1625,0.3024,0.2241,0.1905,0.2074,0.2074,0.0,0.0,0.0,0.0,0.1795,0.1795,0.1795,0.1795,0.1795,0.1795,0.1795,0.1795,0.1795,0.1795,0.0,0.0,0.0,0.0,0.0,0.0,0.0,0.0,0.0,0.0,0.0,0.0,0.0,0.0,0.0,0.0,0.0,0.0,0.0,0.0,0.0,0.8546,0.8436,0.8322,0.8266,0.8039,0.7916,0.7895,0.7168,0.6345,0.5332,0.493,0.4647,0.4582,0.5484,0.5984,0.6137,0.6137,0.6237,0.6387,0.6387,0.0,0.0,0.0,0.0,0.0,0.0,0.0,0.0,0.6387,0.6387,0.6387,0.6387,0.0,0.0,0.0,0.0,0.0,0.7593,0.7643,0.7693,0.7939,0.7988,0.7988,0.7988,0.7988,0.8025,0.8208,0.8235,0.8228,0.806,0.8362,0.8521,0.8389,0.0,0.7979,0.0,0.0,0.7565,0.0,0.0,0.0,0.0,0.0,0.0,0.0,0.0,0.0,0.0,0.0,0.0,0.0,0.0,0.5592,0.6652,0.4531,0.3805,0.4585,0.4418,0.3971,0.3301,0.3301,0.2744,0.0,0.0,0.0,0.1795,0.1795,0.1795,0.1795,0.1795,0.1795,0.1795,0.1795,0.1795,0.1795,0.0,0.0,0.0,0.0,0.0,0.0,0.0,0.0,0.0,0.0,0.0,0.0,0.0,0.0,0.0,0.0,0.0,0.0,0.0,0.0,0.8885,0.8885,0.8885,0.8885,0.8885,0.8768,0.8712,0.8712,0.8131,0.7508,0.6737,0.6087,0.573,0.5687,0.6187,0.6387,0.6387,0.6387,0.6387,0.6387,0.0,0.0,0.0,0.0,0.0,0.0,0.0,0.0,0.0,0.0,0.6387,0.6387,0.6387,0.0,0.0,0.0,0.0,0.0,0.7693,0.7693,0.7646,0.7743,0.769,0.7609,0.7636,0.7806,0.7998,0.8095,0.828,0.8379,0.8209,0.8179,0.8084,0.7777,0.0,0.7726,0.7637,0.0,0.0,0.0,0.0,0.0,0.0,0.0,0.0,0.0,0.0,0.0,0.0,0.0,0.0,0.0,0.0,0.6652,0.721,0.6204,0.5704,0.5648,0.5144,0.4808,0.4582,0.4582,0.3916,0.0,0.0,0.2409,0.1795,0.1795,0.1795,0.1795,0.1795,0.1795,0.1795,0.1795,0.1795,0.1795,0.0,0.0,0.0,0.0,0.0,0.0,0.0,0.0,0.0,0.0,0.0,0.0,0.0,0.0,0.0,0.0,0.0,0.0,0.0,0.8885,0.8885,0.8885,0.8885,0.8885,0.8885,0.8885,0.8885,0.8885,0.8548,0.8135,0.7644,0.6909,0.6587,0.6587,0.6587,0.6587,0.6587,0.6537,0.6487,0.6487,0.0,0.0,0.0,0.0,0.0,0.0,0.0,0.0,0.0,0.0,0.0,0.0,0.0,0.0,0.0,0.6886,0.7086,0.7288,0.769,0.7693,0.7596,0.7596,0.7466,0.7362,0.7418,0.7721,0.8043,0.8085,0.8272,0.8425,0.8358,0.8055,0.0,0.7418,0.7493,0.7573,0.0,0.0,0.0,0.0,0.0,0.0,0.0,0.0,0.0,0.0,0.0,0.0,0.0,0.0,0.0,0.0,0.0,0.0,0.721,0.721,0.6988,0.6599,0.5924,0.5644,0.5695,0.5753,0.514,0.4026,0.4026,0.3525,0.2633,0.2633,0.2465,0.2242,0.2242,0.2074,0.1795,0.1795,0.1795,0.1795,0.0,0.0,0.0,0.0,0.0,0.0,0.0,0.0,0.0,0.0,0.0,0.0,0.0,0.0,0.0,0.0,0.0,0.0,0.0,0.8885,0.8885,0.8885,0.8885,0.8885,0.8885,0.8885,0.8885,0.8885,0.8644,0.817,0.7589,0.7265,0.7138,0.7138,0.7138,0.7138,0.7138,0.6892,0.6792,0.6742,0.6487,0.0,0.0,0.0,0.0,0.0,0.0,0.0,0.0,0.0,0.0,0.0,0.0,0.0,0.6387,0.6437,0.6786,0.7188,0.7238,0.7444,0.7596,0.7596,0.774,0.7785,0.7491,0.7953,0.8404,0.829,0.8322,0.8365,0.8446,0.8195,0.7977,0.7934,0.7771,0.0,0.0,0.0,0.0,0.0,0.0,0.0,0.0,0.0,0.0,0.0,0.0,0.0,0.0,0.0,0.0,0.0,0.0,0.0,0.721,0.721,0.7324,0.7496,0.7712,0.7374,0.6591,0.6871,0.6369,0.525,0.525,0.5194,0.5139,0.5139,0.447,0.3469,0.3469,0.28,0.1795,0.1795,0.1795,0.1795,0.0,0.0,0.0,0.0,0.0,0.0,0.0,0.0,0.0,0.0,0.0,0.0,0.0,0.0,0.0,0.0,0.0,0.0,0.0,0.8885,0.8885,0.8885,0.8885,0.8885,0.8885,0.8885,0.8885,0.8885,0.8476,0.8118,0.7904,0.7417,0.7188,0.7188,0.7188,0.7188,0.7188,0.7089,0.7042,0.7039,0.6939,0.6789,0.0,0.0,0.0,0.0,0.0,0.0,0.0,0.0,0.6387,0.6437,0.6589,0.6539,0.6487,0.6992,0.7042,0.7042,0.7341,0.7294,0.7166,0.7449,0.7676,0.7675,0.7357,0.7722,0.8129,0.8108,0.8136,0.8152,0.8202,0.7823,0.7546,0.7715,0.7546,0.0,0.0,0.0,0.0,0.0,0.0,0.0,0.0,0.0,0.0,0.0,0.0,0.0,0.0,0.0,0.0,0.0,0.0,0.0,0.0,0.721,0.7265,0.7379,0.7768,0.7931,0.7817,0.81,0.7595,0.648,0.648,0.6033,0.5417,0.5417,0.5139,0.4693,0.4693,0.4416,0.4026,0.4026,0.4026,0.3914,0.0,0.0,0.0,0.0,0.0,0.0,0.0,0.0,0.0,0.0,0.0,0.0,0.0,0.0,0.0,0.0,0.0,0.0,0.8885,0.8885,0.8885,0.8885,0.8885,0.8885,0.8885,0.8885,0.8885,0.8885,0.8475,0.82,0.8154,0.7699,0.7437,0.7437,0.7437,0.7437,0.7437,0.7341,0.7341,0.7341,0.7238,0.7089,0.0,0.0,0.0,0.0,0.0,0.0,0.0,0.0,0.6637,0.6686,0.6892,0.6789,0.6736,0.7291,0.7191,0.6992,0.7394,0.7191,0.7024,0.7358,0.755,0.7607,0.7325,0.7702,0.8041,0.7916,0.8045,0.81,0.7934,0.7657,0.0,0.0,0.0,0.0,0.0,0.0,0.0,0.0,0.0,0.0,0.0,0.0,0.0,0.0,0.0,0.0,0.0,0.0,0.0,0.0,0.0,0.0,0.0,0.721,0.721,0.721,0.7768,0.81,0.8374,0.8657,0.8377,0.7654,0.7654,0.7204,0.6533,0.6533,0.6253,0.5919,0.5528,0.5417,0.5417,0.5417,0.5417,0.525,0.0,0.0,0.0,0.0,0.0,0.0,0.0,0.0,0.0,0.0,0.0,0.0,0.0,0.0,0.0,0.0,0.0,0.0,0.8885,0.8885,0.8885,0.8885,0.8885,0.8885,0.8885,0.8881,0.8881,0.8881,0.8632,0.8411,0.832,0.8113,0.7988,0.7988,0.7988,0.7988,0.7988,0.7693,0.7596,0.7596,0.7341,0.7188,0.7188,0.0,0.0,0.0,0.0,0.0,0.0,0.0,0.7188,0.7188,0.7188,0.7188,0.7188,0.7188,0.7188,0.7188,0.7188,0.7188,0.7222,0.7358,0.7495,0.7578,0.7439,0.7947,0.8322,0.7715,0.81,0.8318,0.7718,0.7826,0.0,0.0,0.0,0.0,0.0,0.0,0.0,0.0,0.0,0.0,0.0,0.0,0.0,0.0,0.0,0.0,0.0,0.0,0.0,0.0,0.0,0.0,0.0,0.721,0.721,0.721,0.7768,0.7989,0.7989,0.8374,0.8654,0.8885,0.8885,0.8885,0.8885,0.8885,0.8214,0.6985,0.5864,0.5417,0.5417,0.5417,0.5417,0.525,0.0,0.0,0.0,0.0,0.0,0.0,0.0,0.0,0.0,0.0,0.0,0.0,0.0,0.0,0.0,0.0,0.0,0.0,0.8885,0.8885,0.8885,0.8885,0.8885,0.8885,0.8885,0.8832,0.8777,0.8777,0.8577,0.8411,0.832,0.8113,0.7988,0.7988,0.7988,0.7988,0.7988,0.7892,0.7892,0.7892,0.7789,0.764,0.7494,0.0,0.0,0.0,0.0,0.0,0.0,0.0,0.0,0.0,0.7441,0.7341,0.7288,0.7637,0.7341,0.6942,0.7138,0.6936,0.6737,0.7159,0.7296,0.7331,0.75,0.7852,0.8045,0.7662,0.7718,0.7826,0.7607,0.749,0.0,0.0,0.0,0.0,0.0,0.0,0.0,0.0,0.0,0.0,0.0,0.0,0.0,0.0,0.0,0.0,0.0,0.0,0.0,0.0,0.0,0.0,0.0,0.0,0.7268,0.7493,0.766,0.7826,0.8045,0.8546,0.8826,0.8885,0.8885,0.8885,0.8885,0.8885,0.8716,0.8325,0.7986,0.7873,0.7873,0.7873,0.7873,0.7706,0.0,0.0,0.0,0.0,0.0,0.0,0.0,0.0,0.0,0.0,0.7324,0.7493,0.0,0.0,0.0,0.0,0.0,0.0,0.0,0.8885,0.8885,0.8885,0.8885,0.8885,0.8885,0.8791,0.8679,0.8618,0.8472,0.8323,0.8177,0.8032,0.7988,0.7988,0.7988,0.7988,0.7988,0.7988,0.7988,0.7988,0.7988,0.7892,0.7743,0.0,0.0,0.0,0.0,0.0,0.0,0.0,0.0,0.0,0.7693,0.764,0.754,0.7789,0.7441,0.6992,0.7039,0.6739,0.6494,0.6948,0.7062,0.713,0.7494,0.766,0.7657,0.7493,0.7549,0.7551,0.7438,0.7379,0.0,0.0,0.0,0.0,0.0,0.0,0.0,0.0,0.0,0.0,0.0,0.0,0.0,0.0,0.0,0.0,0.0,0.0,0.0,0.0,0.0,0.0,0.0,0.0,0.0,0.7607,0.7826,0.8045,0.8211,0.8602,0.8826,0.8885,0.8885,0.8885,0.8885,0.8885,0.8885,0.8885,0.8885,0.8885,0.8885,0.8885,0.8885,0.8716,0.0,0.0,0.0,0.0,0.0,0.0,0.0,0.0,0.0,0.0,0.721,0.7324,0.0,0.0,0.0,0.0,0.0,0.0,0.0,0.8885,0.8885,0.8885,0.8885,0.8875,0.8861,0.8767,0.8615,0.8462,0.8385,0.8191,0.7988,0.7988,0.7988,0.7988,0.7988,0.7988,0.7988,0.7988,0.7988,0.7988,0.7988,0.7988,0.7992,0.7746,0.0,0.0,0.0,0.0,0.0,0.0,0.0,0.0,0.7988,0.7988,0.7939,0.7693,0.7444,0.7138,0.6892,0.6639,0.6443,0.6741,0.6817,0.6947,0.7442,0.7379,0.721,0.721,0.7438,0.7493,0.7265,0.7379,0.0,0.0,0.0,0.0,0.0,0.0,0.0,0.0,0.0,0.0,0.0,0.0,0.0,0.0,0.0,0.0,0.0,0.0,0.0,0.0,0.0,0.0,0.0,0.0,0.0,0.0,0.8211,0.854,0.854,0.854,0.8657,0.8885,0.8885,0.8885,0.8885,0.8885,0.8885,0.8885,0.8885,0.8885,0.8885,0.8885,0.8885,0.8716,0.0,0.0,0.0,0.0,0.0,0.0,0.0,0.0,0.0,0.0,0.0,0.0,0.0,0.0,0.0,0.0,0.0,0.0,0.0,0.8885,0.8885,0.8885,0.8885,0.8828,0.876,0.8611,0.8462,0.8368,0.8337,0.8191,0.7988,0.7988,0.7988,0.7988,0.7988,0.7988,0.7988,0.7988,0.7988,0.7988,0.7988,0.7988,0.7988,0.7942,0.7892,0.0,0.0,0.0,0.0,0.0,0.0,0.0,0.7988,0.7988,0.7988,0.7942,0.759,0.7188,0.7138,0.6786,0.6443,0.6741,0.6942,0.7147,0.7254,0.7265,0.7265,0.7493,0.7379,0.7268,0.721,0.0,0.0,0.0,0.0,0.0,0.0,0.0,0.0,0.0,0.0,0.0,0.0,0.0,0.0,0.0,0.0,0.0,0.0,0.0,0.0,0.0,0.0,0.0,0.7493,0.7771,0.8045,0.0,0.8429,0.8598,0.8826,0.8826,0.8826,0.8885,0.8885,0.8885,0.8885,0.8885,0.8885,0.8885,0.8885,0.8885,0.8885,0.8885,0.8885,0.8881,0.0,0.0,0.0,0.0,0.0,0.0,0.0,0.0,0.0,0.0,0.0,0.0,0.0,0.0,0.0,0.0,0.0,0.0,0.0,0.0,0.8885,0.8885,0.8885,0.8811,0.8713,0.856,0.8414,0.8323,0.8197,0.8119,0.7988,0.7988,0.8029,0.815,0.815,0.8187,0.8252,0.8252,0.8252,0.8252,0.8252,0.8211,0.815,0.815,0.8102,0.7988,0.7988,0.0,0.0,0.0,0.0,0.0,0.0,0.0,0.7992,0.7842,0.7593,0.7341,0.7092,0.6789,0.6651,0.6741,0.698,0.721,0.721,0.721,0.7265,0.7379,0.7324,0.721,0.0,0.0,0.0,0.0,0.0,0.0,0.0,0.0,0.0,0.0,0.0,0.0,0.0,0.0,0.0,0.0,0.0,0.0,0.0,0.0,0.0,0.0,0.0,0.0,0.7771,0.81,0.8318,0.8484,0.8654,0.8768,0.8885,0.8885,0.8885,0.8885,0.8885,0.8885,0.8885,0.8885,0.8885,0.8885,0.8885,0.8885,0.8885,0.8885,0.8885,0.8885,0.0,0.0,0.0,0.0,0.0,0.0,0.0,0.0,0.0,0.0,0.0,0.0,0.0,0.0,0.0,0.0,0.0,0.0,0.0,0.0,0.0,0.8844,0.8844,0.8815,0.8638,0.8509,0.8374,0.8231,0.813,0.8029,0.8029,0.8029,0.816,0.8357,0.8357,0.8374,0.8482,0.8482,0.8482,0.8482,0.8482,0.8411,0.8354,0.833,0.8191,0.8025,0.7998,0.7988,0.7988,0.7988,0.0,0.0,0.0,0.0,0.7939,0.7746,0.7646,0.7497,0.7045,0.6909,0.6833,0.6799,0.6967,0.7185,0.7204,0.721,0.721,0.721,0.721,0.721,0.0,0.0,0.0,0.0,0.0,0.0,0.0,0.0,0.0,0.0,0.0,0.0,0.0,0.0,0.0,0.0,0.0,0.0,0.0,0.0,0.0,0.0,0.0,0.81,0.81,0.8432,0.8543,0.8598,0.8771,0.8885,0.8885,0.8885,0.8885,0.8885,0.8885,0.8885,0.8885,0.8885,0.8885,0.8885,0.8885,0.8885,0.8885,0.8885,0.8885,0.8885,0.0,0.0,0.0,0.0,0.0,0.0,0.0,0.0,0.0,0.0,0.7438,0.7715,0.0,0.0,0.0,0.0,0.0,0.0,0.0,0.0,0.0,0.8747,0.874,0.8611,0.8336,0.8361,0.8225,0.8019,0.8184,0.8241,0.8241,0.8241,0.8316,0.8455,0.8455,0.8465,0.8482,0.8482,0.8482,0.8482,0.8482,0.8472,0.8438,0.8371,0.8258,0.8221,0.8089,0.7988,0.7988,0.7988,0.7988,0.0,0.0,0.0,0.7988,0.7942,0.7793,0.7596,0.7497,0.7232,0.6944,0.6821,0.6907,0.7032,0.7188,0.721,0.721,0.0,0.721,0.0,0.0,0.0,0.0,0.0,0.0,0.0,0.0,0.0,0.0,0.0,0.0,0.0,0.0,0.0,0.0,0.0,0.0,0.0,0.0,0.0,0.7989,0.7989,0.8263,0.0,0.8429,0.8712,0.8826,0.8826,0.8881,0.8885,0.8885,0.8885,0.8885,0.8885,0.8885,0.8885,0.8885,0.8885,0.8885,0.8885,0.8885,0.8885,0.8885,0.8885,0.8885,0.8885,0.0,0.0,0.0,0.0,0.0,0.0,0.0,0.0,0.0,0.0,0.0,0.8156,0.0,0.0,0.0,0.0,0.0,0.0,0.0,0.0,0.0,0.8713,0.9207,0.9104,0.8327,0.8874,0.8838,0.817,0.8238,0.8353,0.8516,0.8516,0.855,0.8611,0.8611,0.8659,0.8737,0.8737,0.8737,0.8737,0.8737,0.8635,0.8482,0.8509,0.836,0.8143,0.8163,0.8113,0.7988,0.7988,0.7988,0.7988,0.7988,0.0,0.0,0.0,0.7942,0.7743,0.7441,0.7193,0.6947,0.6739,0.6842,0.6997,0.7048,0.7163,0.721,0.721,0.0,0.0,0.0,0.0,0.0,0.0,0.0,0.0,0.0,0.0,0.0,0.0,0.0,0.0,0.0,0.0,0.0,0.0,0.0,0.0,0.8491,0.8377,0.8377,0.8491,0.8657,0.0,0.8712,0.8826,0.8885,0.8885,0.8885,0.8885,0.8885,0.8885,0.8885,0.8885,0.8885,0.8885,0.8885,0.8885,0.8885,0.8885,0.8885,0.8885,0.8885,0.8885,0.8885,0.8885,0.0,0.0,0.0,0.0,0.0,0.0,0.0,0.0,0.0,0.0,0.0,0.0,0.0,0.0,0.0,0.0,0.0,0.0,0.0,0.0,0.0,0.9387,1.004,1.001,0.918,0.988,0.99,0.924,0.9282,0.9377,0.9559,0.9334,0.9194,0.9194,0.8876,0.8832,0.8885,0.8885,0.8885,0.8878,0.8841,0.8743,0.8543,0.8584,0.8391,0.8109,0.8184,0.8136,0.7988,0.7988,0.7988,0.7988,0.7988,0.7988,0.0,0.0,0.0,0.7889,0.7441,0.7217,0.7097,0.6767,0.6865,0.7017,0.7026,0.0,0.7174,0.0,0.0,0.0,0.0,0.0,0.0,0.0,0.0,0.0,0.0,0.0,0.0,0.0,0.0,0.0,0.0,0.0,0.0,0.0,0.0,0.0,0.8881,0.8712,0.8712,0.8881,0.8885,0.8885,0.8885,0.8885,0.8885,0.8885,0.8885,0.8885,0.8885,0.8885,0.8885,0.8885,0.8885,0.8885,0.8885,0.8885,0.8885,0.8885,0.8885,0.8885,0.8885,0.8885,0.8885,0.8885,0.0,0.0,0.0,0.0,0.0,0.0,0.0,0.0,0.0,0.0,0.0,0.0,0.8484,0.8712,0.8885,0.8885,0.8885,0.0,0.0,0.0,0.0,1.1277,1.1309,0.0,1.1427,1.1477,1.1632,1.1789,1.1921,1.2024,1.2,1.1062,1.0605,1.055,0.9416,0.8875,0.8885,0.8885,0.8885,0.8871,0.8781,0.8713,0.8669,0.8397,0.833,0.8241,0.8102,0.7995,0.7988,0.7988,0.7988,0.7988,0.7988,0.7988,0.7988,0.0,0.0,0.0,0.7643,0.7553,0.7491,0.7058,0.6995,0.7018,0.6985,0.0,0.0,0.0,0.0,0.0,0.0,0.0,0.0,0.0,0.0,0.0,0.0,0.0,0.0,0.0,0.0,0.0,0.0,0.0,0.0,0.0,0.0,0.0,0.8885,0.8881,0.8881,0.8885,0.8885,0.8885,0.8885,0.8885,0.8885,0.8885,0.8885,0.8885,0.8885,0.8885,0.8885,0.8885,0.8885,0.8885,0.8885,0.8885,0.8885,0.8885,0.8885,0.8885,0.8885,0.8885,0.8885,0.8885,0.0,0.0,0.0,0.0,0.0,0.0,0.0,0.0,0.0,0.0,0.0,0.0,0.0,0.8737,0.9063,0.9869,1.0669,0.0,0.0,0.0,0.0,1.1935,1.2423,1.2455,1.1894,1.2506,1.2612,1.2149,1.2169,1.1847,1.1225,1.0858,1.0292,0.9537,0.9103,0.8885,0.8885,0.8885,0.8885,0.8868,0.8771,0.8652,0.8554,0.8445,0.8289,0.813,0.8174,0.8123,0.7988,0.7988,0.7988,0.7988,0.7988,0.7988,0.8137,0.8821,0.9509,0.9998,0.9706,0.9657,0.9571,0.9275,0.8578,0.8026,0.8024,0.744,0.6902,0.0,0.0,0.0,0.0,0.0,0.0,0.0,0.0,0.0,0.0,0.0,0.0,0.0,0.0,0.0,0.0,0.0,0.0,0.0,0.0,0.0,0.8885,0.8885,0.8885,0.8885,0.8885,0.8885,0.8885,0.8885,0.8885,0.8885,0.8885,0.8885,0.8885,0.8885,0.8885,0.8885,0.8885,0.8885,0.8885,0.8885,0.8885,0.8885,0.8885,0.8885,0.8885,0.8885,0.8885,0.8885,0.0,0.0,0.0,0.0,0.0,0.0,0.0,0.0,0.0,0.873,0.0,0.0,0.0,0.0,0.9699,1.0505,1.163,1.2098,1.172,1.2274,1.2626,1.2626,1.3529,1.3753,1.3205,1.3753,1.3863,1.3429,1.3356,1.3009,1.2467,1.2032,1.1442,1.0684,1.0245,0.9647,0.8885,0.8885,0.8885,0.8865,0.8716,0.8604,0.8547,0.8448,0.8289,0.813,0.8235,0.817,0.7988,0.7988,0.7988,0.8088,0.8432,0.8775,0.9217,0.9948,1.0636,1.117,1.0974,1.093,1.0877,1.0623,0.9929,0.9241,0.8842,0.0,0.0,0.0,0.0,0.0,0.0,0.0,0.0,0.0,0.0,0.0,0.0,0.0,0.0,0.0,0.0,0.0,0.0,0.0,0.0,0.0,0.0,0.0,0.8885,0.8885,0.8885,0.8885,0.8885,0.8885,0.8885,0.8885,0.8885,0.8885,0.8885,0.8885,0.8885,0.8885,0.8885,0.8885,0.8885,0.8885,0.8885,0.8885,0.8885,0.8885,0.8885,0.8885,0.8885,0.8885,0.8885,0.8885,0.0,0.0,0.0,0.0,0.0,0.0,0.0,0.0,0.8482,0.8486,0.0,0.0,0.0,0.0,0.0,1.0664,1.1532,1.1589,1.0469,1.2343,1.3464,1.3464,0.0,0.0,1.5505,1.5264,1.5384,1.5891,1.5638,1.5638,1.5838,1.4708,1.4164,1.411,1.2906,1.1114,0.8937,0.8937,0.8937,0.8913,0.8611,0.8574,0.8672,0.8381,0.832,0.8313,0.8313,0.8167,0.7988,0.8038,0.8038,0.8233,0.9312,1.0391,1.1219,1.1219,1.1268,1.1268,0.0,0.0,0.0,1.0979,1.0877,0.0,0.9365,0.0,0.0,0.0,0.0,0.0,0.0,0.0,0.0,0.0,0.0,0.0,0.0,0.0,0.0,0.0,0.0,0.0,0.0,0.0,0.0,0.0,0.0,0.8885,0.8885,0.8885,0.8885,0.8885,0.8885,0.8885,0.8885,0.8885,0.8885,0.8885,0.8885,0.8885,0.8885,0.8885,0.8885,0.8885,0.8885,0.8885,0.8885,0.8885,0.8885,0.8885,0.8885,0.8885,0.8885,0.8885,0.8885,0.8885,0.0,0.0,0.0,0.0,0.0,0.0,0.8489,0.8482,0.8523,0.0,0.0,0.0,0.9137,1.0031,1.0543,1.0543,1.2446,1.3472,1.3145,1.4428,1.5188,1.5188,1.551,1.5704,1.5777,1.571,1.5741,1.5891,1.5819,1.5394,1.4648,1.4331,1.3727,1.2906,1.2526,1.1601,1.0186,1.0186,1.0186,1.0112,0.9043,0.8608,0.8526,0.834,0.8201,0.8102,0.8102,0.8025,0.8137,0.0,0.9167,0.9361,1.044,1.1463,1.229,1.229,1.2829,1.3414,1.3414,0.0,0.0,0.0,0.0,0.0,0.0,0.0,0.0,0.0,0.0,0.0,0.0,0.0,0.0,0.0,0.0,0.0,0.0,0.0,0.0,0.0,0.0,0.0,0.0,0.0,0.0,0.0,0.0,0.8885,0.8885,0.8885,0.8885,0.8885,0.8885,0.8885,0.8885,0.8885,0.8885,0.8885,0.8885,0.8885,0.8885,0.8885,0.8885,0.8885,0.8885,0.8885,0.8885,0.8885,0.8885,0.8885,0.8885,0.8885,0.8885,0.8885,0.8885,0.8885,0.0,0.0,0.0,0.0,0.0,0.8394,0.8394,0.8394,0.8445,0.0,0.0,0.0,1.0135,1.133,1.2033,1.2033,1.3385,1.4002,1.3457,1.4541,1.519,1.519,1.5672,1.5891,1.5891,1.5783,1.5777,1.5891,1.5777,1.5459,1.4922,1.4922,1.4535,1.3879,1.3879,1.3231,1.2146,1.1601,1.0836,0.9892,0.8968,0.8601,0.8554,0.8347,0.8252,0.0,0.0,0.0,0.8929,1.0062,1.065,0.0,1.1609,1.2538,1.3366,1.3366,1.3806,1.4298,1.4298,1.4298,1.4298,1.4298,0.0,0.0,1.2581,1.1891,0.0,0.0,0.0,0.0,0.0,0.0,0.0,0.0,0.0,0.0,0.0,0.0,0.0,0.0,0.0,0.0,0.0,0.0,0.0,0.0,0.921,0.8885,0.8885,0.8885,0.8885,0.8885,0.8885,0.8885,0.8885,0.8885,0.8885,0.8885,0.8885,0.8885,0.8885,0.8885,0.8885,0.8885,0.8885,0.8885,0.8885,0.8885,0.8885,0.8885,0.8885,0.8885,0.8885,0.8885,0.8885,0.8885,0.0,0.0,0.0,0.8265,0.8408,0.847,0.847,0.8637,0.8752,0.0,0.9009,0.9965,1.2177,1.3236,1.384,1.4002,1.4002,1.3619,1.2635,1.3727,1.4379,1.4379,1.5351,1.5891,1.5891,1.5662,1.5656,1.5891,1.5656,1.5662,1.5891,1.5891,1.5891,1.5891,1.5891,1.5244,1.4116,1.3073,1.1265,0.9054,0.8671,0.8577,0.8655,0.855,0.8567,0.8821,0.998,1.0248,1.0209,1.1386,1.228,0.0,0.0,0.0,1.4298,1.4298,1.4298,1.4298,1.4298,1.4298,1.4298,1.4298,0.0,0.0,1.3119,1.2877,1.2624,0.0,0.0,0.0,0.0,0.0,0.0,0.0,0.0,0.0,0.0,0.0,0.0,0.0,0.0,0.0,0.0,0.0,1.0782,1.0858,0.9853,0.921,0.9099,0.9099,0.9047,0.8885,0.8885,0.8885,0.8885,0.8885,0.8885,0.8885,0.8885,0.8885,0.8885,0.8885,0.8885,0.8885,0.8885,0.8885,0.8885,0.8885,0.8885,0.8885,0.8885,0.8885,0.8885,0.8885,0.8885,0.8885,0.0,0.8056,0.8066,0.8039,0.8931,0.9673,0.9673,1.0561,1.1351,1.1437,1.1581,1.1882,1.2354,1.1764,1.1764,1.2689,1.2743,1.3073,1.3786,1.4917,1.5565,1.5565,1.5779,1.5891,1.5891,1.5843,1.5837,1.5891,1.5837,1.5843,1.5891,1.5891,1.5891,1.5891,1.5891,1.5244,1.4164,1.3948,1.2435,1.0092,0.9065,0.8611,0.8625,0.9499,0.9765,0.989,1.1176,1.1625,1.1713,1.2545,1.3319,1.4004,0.0,0.0,0.0,1.4298,1.4298,1.4298,1.4298,1.4298,1.4298,0.0,0.0,0.0,1.4052,1.4004,1.3849,0.0,0.0,0.0,0.0,0.0,0.0,0.0,0.0,0.0,0.0,0.0,0.0,0.0,0.0,0.0,0.0,0.0,1.1506,1.1732,1.1729,1.1328,1.0402,1.0347,0.9915,0.8937,0.8885,0.8885,0.8885,0.8885,0.8885,0.8885,0.8885,0.8885,0.8885,0.8885,0.8885,0.8885,0.8885,0.8885,0.8885,0.8885,0.8885,0.8885,0.8885,0.8885,0.8885,0.8885,0.8885,0.8885,0.9702,0.9608,0.9608,0.9608,1.025,1.0808,1.0906,1.1559,1.192,1.1532,1.1,1.1114,1.2254,1.1378,1.1651,1.3932,1.3614,1.3781,1.4976,1.5565,1.5891,1.5891,1.5891,1.5891,1.5891,1.5891,1.5891,1.5891,1.5891,1.5891,1.5891,1.5891,1.5819,1.5698,1.5831,1.5099,1.3814,1.3933,1.2886,1.1006,1.0485,0.0,0.9293,1.0467,1.0924,1.1099,1.245,1.3314,1.3784,1.3869,1.4164,0.0,1.434,1.4298,1.4298,0.0,1.4298,1.4298,0.0,0.0,0.0,1.4298,0.0,0.0,0.0,1.4298,1.422,0.0,0.0,0.0,0.0,0.0,0.0,0.0,0.0,0.0,0.0,0.0,0.0,0.0,0.0,0.0,0.0,0.0,1.2297,1.1836,1.2037,1.1939,1.1401,1.1494,1.1273,1.068,1.0625,1.0355,0.9805,0.9805,0.9478,0.8885,0.8885,0.8885,0.8885,0.8885,0.8885,0.8885,0.8885,0.8885,0.8885,0.8885,0.8885,0.8885,0.8885,0.8885,0.8885,0.8885,0.8885,0.8885,1.1414,1.1219,1.1233,1.1271,1.1651,1.2015,1.2184,1.2603,1.2593,1.1792,1.084,1.095,1.2852,1.1869,1.225,1.5292,1.432,1.4105,1.5458,1.5565,1.5678,1.5891,1.5891,1.5891,1.5891,1.5891,1.5891,1.5891,1.5891,1.5891,1.5891,1.5837,1.5698,1.5505,1.5668,1.4972,1.372,1.3964,1.3221,1.1928,0.0,1.1434,1.0234,1.1474,1.2054,1.2343,1.3766,1.4798,1.5427,1.495,1.4757,1.4709,1.4389,1.4394,0.0,0.0,0.0,0.0,0.0,0.0,0.0,0.0,0.0,1.4394,0.0,0.0,0.0,0.0,0.0,0.0,0.0,0.0,0.0,0.0,0.0,0.0,0.0,0.0,0.0,0.0,0.0,0.0,0.0,0.0,1.3271,1.2291,1.2452,1.2523,1.226,1.251,1.2572,1.2302,1.2394,1.1978,1.1055,1.1055,1.0457,0.9265,0.9265,0.9103,0.8885,0.8885,0.8885,0.8885,0.8885,0.8885,0.8885,0.8885,0.8885,0.8885,0.8885,0.8885,0.8885,0.8885,0.8885,0.8885,1.156,1.1219,1.1276,1.1511,1.2537,1.3383,1.3618,1.4707,1.5423,1.5339,1.5179,1.5185,1.5452,1.3555,1.2797,1.4272,1.2363,1.2037,1.4272,1.4379,1.4869,1.5838,1.5891,1.5891,1.5891,1.5891,1.5891,1.5891,1.5891,1.5891,1.5885,1.565,1.5529,1.5487,1.5288,1.511,1.4904,1.4928,1.4167,0.0,1.3994,1.3075,0.0,1.2766,1.3273,1.3507,1.5077,1.5587,1.5451,0.0,1.5052,1.4949,0.0,1.464,1.4939,1.4448,0.0,0.0,0.0,0.0,0.0,0.0,1.4838,0.0,0.0,0.0,0.0,0.0,0.0,0.0,0.0,0.0,0.0,0.0,0.0,0.0,0.0,0.0,0.0,0.0,0.0,0.0,0.0,0.0,0.0,1.4354,1.4595,1.4322,1.328,1.3498,1.3145,1.209,1.2269,1.2358,1.22,1.22,1.1651,1.0511,1.0511,0.9915,0.8885,0.8885,0.8885,0.8885,0.8885,0.8885,0.8885,0.8885,0.8885,0.8885,0.8885,0.8885,0.8885,0.8885,0.8885,0.8885,1.3173,1.298,1.3105,1.3353,1.3959,0.0,1.4769,1.4864,1.4922,1.4922,1.432,1.4153,1.4869,1.3398,1.3176,1.5024,1.3668,1.3452,0.0,1.519,1.5405,1.5891,1.5891,1.5891,1.5891,1.5891,1.5891,1.5891,1.5891,1.5813,1.5662,1.5553,1.5336,1.5046,1.5089,1.4932,1.4648,1.4811,1.4517,0.0,0.0,0.0,0.0,1.4179,1.4613,1.5001,1.5807,1.6037,1.5949,0.0,1.5707,0.0,0.0,0.0,0.0,1.4838,0.0,0.0,0.0,0.0,0.0,0.0,0.0,0.0,1.4933,0.0,1.4391,0.0,0.0,0.0,0.0,0.0,0.0,0.0,0.0,0.0,0.0,0.0,0.0,0.0,0.0,0.0,0.0,0.0,0.0,0.0,0.0,1.4678,1.4165,1.4401,1.4327,1.3811,1.4041,1.3896,1.3194,1.3385,1.2852,1.171,1.171,1.1437,1.0895,1.0241,0.997,0.9915,0.921,0.8885,0.8885,0.8885,0.8885,0.8885,0.8885,0.8885,0.8885,0.8885,0.8885,0.8885,1.4298,1.4358,1.4497,1.4775,1.504,1.5306,1.5565,1.5075,1.4654,1.4654,1.3884,1.3668,1.4595,1.3614,1.356,1.5298,1.4379,1.4218,0.0,0.0,1.5565,1.5891,1.5891,0.0,1.5891,1.5891,1.5891,1.5891,1.5819,1.5686,1.5493,1.5354,1.5083,1.4727,1.4835,1.4666,1.431,1.457,1.468,1.4688,1.4592,1.4844,1.5332,1.5316,1.5603,1.6051,1.6318,1.643,1.6387,1.6308,1.619,0.0,1.5635,0.0,0.0,0.0,0.0,0.0,1.522,0.0,0.0,0.0,0.0,0.0,0.0,0.0,0.0,0.0,0.0,0.0,0.0,0.0,0.0,1.2705,0.0,0.0,0.0,0.0,0.0,0.0,0.0,0.0,0.0,0.0,0.0,0.0,0.0,0.0,1.4491,1.4817,1.4998,1.4998,1.5252,1.5052,1.427,1.4459,1.3992,1.2906,1.2906,1.2743,1.2363,1.1542,1.1164,1.1109,1.0245,0.9702,0.9372,0.9372,0.921,0.8885,0.8885,0.8885,0.8885,0.8885,0.8885,0.8885,1.4346,1.4515,1.4787,1.5046,1.5312,1.5572,0.0,1.5885,1.5838,1.5838,1.5832,1.5785,1.5838,1.4809,1.4169,1.4277,0.0,1.296,1.4164,0.0,1.4761,0.0,0.0,1.5891,0.0,0.0,1.5891,1.5891,1.5638,1.5511,1.5487,1.498,1.4733,1.4702,1.4443,1.4316,1.4298,1.4598,1.47,1.4736,1.4981,1.5407,1.5872,0.0,1.603,1.6324,1.6577,0.0,0.0,1.6412,1.6292,0.0,0.0,0.0,0.0,0.0,0.0,0.0,0.0,0.0,0.0,1.5784,0.0,0.0,0.0,0.0,1.4918,0.0,0.0,0.0,0.0,1.3094,1.3009,1.2747,1.2705,0.0,0.0,0.0,0.0,0.0,0.0,0.0,0.0,0.0,0.0,0.0,0.0,0.0,1.393,1.4437,1.4733,1.4733,1.4986,1.5246,1.5441,1.5453,1.5001,1.4164,1.4164,1.3511,1.2417,1.2363,1.2358,1.2358,1.2304,1.1655,1.0617,1.0617,0.997,0.8885,0.8885,0.8885,0.8885,0.8885,0.8885,0.8885,1.4838,1.5053,1.5193,1.5145,1.5324,1.559,0.0,1.5891,0.0,0.0,1.5891,0.0,0.0,1.5083,1.503,0.0,0.0,1.4911,1.5298,1.5351,0.0,0.0,0.0,1.5891,0.0,0.0,0.0,1.5632,1.5541,1.5324,1.498,1.4799,1.4716,1.4685,1.4587,1.464,1.4838,0.0,0.0,0.0,0.0,1.6003,1.6157,0.0,0.0,1.6636,1.6902,1.7008,0.0,1.7154,1.7034,1.6852,1.6404,1.6212,1.6037,1.5653,1.5689,0.0,0.0,0.0,1.5784,1.5784,0.0,0.0,0.0,0.0,0.0,0.0,0.0,0.0,0.0,1.3307,1.3264,1.3179,1.3052,1.2966,0.0,0.0,0.0,0.0,0.0,0.0,0.0,0.0,0.0,0.0,0.0,0.0,0.0,1.4081,1.4262,1.4431,1.4702,1.4974,1.524,1.5409,1.5416,1.5351,1.5351,1.5131,1.4691,1.3943,1.3565,1.3565,1.2743,1.2195,1.1819,1.1819,1.1601,1.1114,1.0406,1.0076,0.997,0.921,0.8885,0.8885,1.5131,1.5374,1.555,1.5303,1.5448,0.0,0.0,0.0,0.0,0.0,1.5565,0.0,1.4869,0.0,1.5137,0.0,1.5458,1.5891,1.5891,1.5891,0.0,1.5891,1.5891,0.0,0.0,0.0,0.0,0.0,0.0,1.5046,1.4714,1.4716,1.4722,1.4688,1.479,1.4933,1.5131,1.522,1.5356,0.0,0.0,1.6532,0.0,0.0,1.6948,0.0,0.0,1.7331,1.7384,1.7529,1.7321,1.6954,1.6767,1.6433,1.6079,1.5838,1.5784,1.5784,1.5784,1.5784,0.0,0.0,1.5784,0.0,1.5784,0.0,0.0,0.0,0.0,0.0,0.0,0.0,1.3476,1.3398,1.3313,1.3222,0.0,1.3052,0.0,0.0,0.0,0.0,0.0,0.0,0.0,0.0,0.0,0.0,0.0,0.0,1.4078,1.4153,1.4522,1.4844,1.5107,1.5276,1.5535,1.5891,1.5891,1.5891,1.5891,1.5137,1.4815,1.4756,1.3992,1.3393,1.3019,1.3019,1.2797,1.2309,1.1596,1.1328,1.1109,0.9482,0.8885,0.8885,0.0,1.5596,1.5878,0.0,1.5756,0.0,0.0,0.0,1.5945,0.0,1.4976,1.4708,1.5672,1.4922,1.4708,1.5725,1.5891,1.5891,1.5891,1.5891,0.0,0.0,1.5891,1.5771,1.5523,0.0,0.0,0.0,0.0,1.4708,1.469,1.4721,1.4688,1.4736,1.5035,1.5131,1.5131,1.5404,1.5499,1.5612,1.6361,1.686,1.7206,1.7435,0.0,1.7186,1.7503,1.7562,1.7555,1.7542,1.7168,1.67,1.6687,1.6299,1.5798,1.5784,1.5784,1.5784,1.5784,1.5784,1.5784,1.5784,0.0,0.0,0.0,0.0,1.5698,0.0,0.0,0.0,0.0,0.0,1.3665,1.3483,1.3434,1.3398,1.3398,0.0,0.0,0.0,0.0,0.0,0.0,0.0,0.0,0.0,0.0,0.0,0.0,0.0,0.0,1.3952,1.445,1.485,1.5133,1.5151,1.5412,1.5927,1.5939,1.5945,1.5945,1.5891,1.5891,1.5945,1.5891,1.5298,1.4277,1.4277,1.3619,1.258,1.2521,1.2472,1.2146,0.9809,0.8937,0.8885,1.606,1.6234,1.6491,0.0,1.6424,1.6418,0.0,0.0,0.0,0.0,1.5672,1.5244,1.4708,1.5137,1.5244,1.4708,1.5405,0.0,0.0,0.0,0.0,1.5891,1.5891,1.5855,1.5795,1.5602,1.5372,1.5107,0.0,1.471,1.4697,1.4725,1.4927,1.5309,1.5356,1.5499,1.5642,1.5689,1.5863,1.6124,1.6326,1.656,0.0,0.0,1.6883,1.6859,1.7181,1.7313,1.728,1.7007,1.6827,1.6667,1.6453,1.6279,1.6112,1.5844,1.5784,1.5784,1.5784,1.5784,1.5784,1.5784,1.5784,1.5784,0.0,0.0,0.0,0.0,0.0,0.0,0.0,0.0,0.0,1.3952,1.3737,1.3561,1.3434,0.0,0.0,1.3307,0.0,0.0,0.0,0.0,0.0,0.0,0.0,0.0,0.0,0.0,0.0,1.4418,1.4795,1.5152,1.54,1.5607,1.5877,1.6223,1.6225,1.6318,1.6465,1.6099,1.5998,1.6164,1.5998,1.5725,1.5458,1.5458,1.5292,1.4911,1.4051,1.3181,1.2195,1.0785,0.9644,0.8885,1.6493,0.0,0.0,1.7055,0.0,0.0,1.6377,1.6324,0.0,1.5945,1.5458,0.0,1.4976,1.5083,1.5083,1.4976,1.5512,0.0,1.5891,0.0,0.0,1.5891,1.5891,1.5837,1.5722,1.5572,0.0,1.5076,0.0,1.4863,1.4885,1.4975,1.5213,1.5493,1.5588,1.5689,1.5784,1.5784,1.5999,1.6321,1.6321,0.0,0.0,1.6707,1.6707,1.6707,1.6797,1.6898,1.6934,1.676,1.662,1.6486,1.6375,1.6186,1.6046,1.5879,1.5784,1.5784,1.5784,1.5784,1.5784,1.5784,1.5784,1.5784,1.5784,1.5784,1.5785,0.0,0.0,0.0,0.0,0.0,0.0,1.4135,1.4279,1.4398,0.0,0.0,0.0,0.0,0.0,0.0,0.0,0.0,0.0,0.0,0.0,0.0,0.0,0.0,0.0,0.0,1.4833,1.5178,1.549,1.577,1.6043,1.6323,1.6392,1.6524,1.6677,1.6365,1.6311,1.6477,1.6311,1.6152,1.6051,1.6051,1.5998,1.5838,1.519,1.4213,1.3127,1.2472,1.1492,1.0351,0.0,0.0,0.0,0.0,0.0,0.0,0.0,1.6377,0.0,1.5998,0.0,1.4903,1.5838,1.5166,1.4956,1.5891,0.0,1.5945,1.5891,1.5891,1.5891,1.5891,1.5891,1.5783,1.5553,1.5569,1.5423,0.0,0.0,1.5168,1.523,1.5417,1.5493,1.554,1.5737,1.5784,0.0,1.5784,1.5979,1.6213,1.6213,1.6366,1.6593,1.6593,1.6593,1.6553,1.6306,1.64,1.6647,1.6607,1.6426,1.6213,1.6213,1.6039,1.5784,1.5784,1.5784,1.5784,1.5784,1.5784,1.5784,1.5784,1.5784,1.5784,1.5784,1.5784,1.5832,1.5967,1.5812,0.0,0.0,0.0,0.0,1.4557,0.0,0.0,0.0,0.0,0.0,0.0,0.0,0.0,0.0,0.0,0.0,0.0,0.0,0.0,0.0,0.0,0.0,0.0,1.4773,0.0,1.553,0.0,1.6126,1.6369,1.6636,1.6783,1.6836,1.673,1.673,1.6736,1.673,1.6577,1.6377,1.6377,1.6211,1.5992,1.5992,1.5405,1.4493,1.4493,1.3776,1.2689,0.0,0.0,0.0,0.0,0.0,1.7483,1.712,1.6796,1.6524,1.6271,1.6306,1.6301,1.6242,1.6516,1.6553,1.6236,1.6217,0.0,0.0,0.0,0.0,1.5891,1.5891,1.5867,1.5819,1.5823,1.5826,0.0,0.0,0.0,1.5742,1.5604,1.5588,1.5737,1.5784,1.5784,1.5784,1.5784,0.0,1.5905,1.5905,1.5939,1.5985,1.5985,1.5985,1.5924,1.5878,1.6099,1.6313,1.6066,1.5952,1.5905,1.5905,1.5872,1.5784,1.5784,1.5784,1.5784,1.5784,1.5784,1.5784,1.5784,1.5784,1.5784,1.5784,1.5784,1.6015,1.6857,1.7001,1.6886,1.6697,0.0,0.0,0.0,0.0,0.0,0.0,0.0,0.0,0.0,0.0,0.0,0.0,0.0,0.0,0.0,0.0,0.0,0.0,0.0,0.0,0.0,0.0,0.0,0.0,0.0,0.0,1.6636,1.6971,1.7219,1.7424,1.6942,1.6842,1.712,1.6842,1.6677,1.663,1.663,1.6624,1.6571,1.6571,1.6311,1.5951,1.5951,1.5672,1.4965,0.0,0.0,0.0,0.0,0.0,0.0,0.0,1.7341,0.0,1.6797,1.7049,1.7175,1.6989,1.7114,1.7099,1.681,1.6612,1.6471,1.6311,1.6311,1.6311,1.6311,1.6158,0.0,1.6111,1.6094,1.611,1.6122,0.0,0.0,1.6289,1.6047,1.5963,1.6052,1.5899,1.5784,0.0,0.0,0.0,1.5784,1.5784,1.5784,1.5784,1.5784,1.5784,1.5784,1.5784,1.5919,1.6019,1.5831,1.5784,1.5784,1.5784,1.5784,1.5784,1.5784,1.5784,1.5784,1.5784,1.5784,1.5784,1.5784,1.5784,1.5927,1.644,1.6581,1.6857,1.7878,1.8064,1.8003,1.7696,1.7322,0.0,0.0,0.0,0.0,0.0,0.0,0.0,0.0,0.0,0.0,0.0,0.0,0.0,0.0,0.0,0.0,0.0,0.0,0.0,0.0,0.0,0.0,0.0,0.0,0.0,1.6714,1.7204,1.7483,1.7582,1.7318,1.7265,1.7378,1.7265,1.7107,1.6955,1.6789,1.6677,1.6677,1.6677,1.663,1.653,1.653,1.6418,1.6039,0.0,1.7582,0.0,0.0,1.7682,0.0,1.8035,1.7965,1.776,1.7422,1.761,1.7744,1.7629,1.7518,1.7418,1.7242,1.697,1.6783,1.6677,1.6677,1.6677,1.6677,1.6477,1.6377,1.6377,1.643,1.6483,0.0,0.0,0.0,0.0,1.6413,0.0,0.0,0.0,0.0,0.0,0.0,1.5784,1.5784,1.5784,1.5784,1.5784,1.5784,1.5784,1.5784,1.5784,1.5784,1.5784,1.5784,1.5784,1.5784,1.5784,1.5784,1.5784,1.5784,1.5784,1.5784,1.5784,1.5832,1.5927,1.6157,1.6244,1.652,1.7544,1.7785,1.8056,1.9055,1.9293,1.9248,1.9142,1.8848,0.0,0.0,0.0,0.0,0.0,0.0,0.0,0.0,0.0,0.0,0.0,0.0,0.0,0.0,0.0,0.0,0.0,0.0,0.0,0.0,0.0,0.0,1.5825,0.0,1.6707,0.0,1.7301,1.7582,1.7582,1.7582,1.7582,1.7582,1.7582,1.7483,1.7279,1.7001,1.6889,1.6889,1.6889,1.6836,1.6789,1.6789,1.6736,1.6518,0.0,0.0,0.0,0.0,0.0,0.0,0.0,1.8615,1.8576,1.8082,1.8235,1.8216,1.7646,1.8077,1.8066,1.7264,1.7192,1.7014,1.673,1.6677,1.6677,1.6677,1.6677,1.6677,1.6677,1.6961,1.7113,0.0,0.0,0.0,0.0,0.0,0.0,0.0,0.0,0.0,0.0,1.5784,1.5784,1.5784,1.5784,1.5784,1.5784,1.5784,1.5784,1.5784,1.5784,1.5784,1.5784,1.5784,1.5784,1.5784,1.5784,1.5784,1.5784,1.5784,1.5784,1.5784,1.5784,1.5981,1.6359,1.7271,1.7677,1.8079,1.9039,1.9314,1.9588,2.0593,2.0773,2.0998,2.1632,2.0687,1.9905,0.0,0.0,0.0,0.0,0.0,0.0,1.9183,0.0,0.0,0.0,0.0,0.0,0.0,0.0,0.0,0.0,0.0,0.0,0.0,0.0,1.6035,1.5825,1.6413,0.0,1.6714,1.7301,1.7582,1.7582,1.7582,1.7582,1.7582,1.7582,1.7582,1.7582,1.7529,1.7529,1.7529,1.7529,1.7378,1.7173,1.7173,1.6955,1.6624,0.0,0.0,0.0,0.0,0.0,0.0,0.0,1.8844,1.8888,1.8891,1.8997,1.8926,1.8688,1.8575,1.8342,1.7993,1.7642,1.7378,1.7265,1.7265,1.7265,1.7265,1.7113,1.7008,1.7008,1.712,1.7179,0.0,0.0,0.0,0.0,0.0,0.0,0.0,0.0,1.5784,1.5784,1.5784,1.5784,1.5784,1.5784,1.5784,1.5784,1.5784,1.5784,1.5784,1.5784,1.5784,1.5784,1.5784,1.5784,1.5784,1.5784,1.5784,1.5784,1.5784,1.5784,1.5832,1.5981,1.6581,1.7232,1.777,1.8403,1.9177,2.0178,2.0404,2.0683,2.165,2.1837,2.1935,2.222,2.1806,2.1425,0.0,0.0,0.0,0.0,0.0,0.0,0.0,0.0,1.9627,0.0,0.0,0.0,0.0,0.0,0.0,0.0,0.0,0.0,1.7121,0.0,1.7272,1.7584,1.7622,1.7598,1.7605,1.8269,1.8199,1.7635,1.8251,1.8199,1.7582,1.7582,1.7582,1.7582,1.7582,1.7582,1.7582,1.7582,1.7529,1.743,1.743,1.7378,1.7213,1.8264,0.0,1.8049,0.0,1.8477,1.8718,1.9011,1.9052,1.9132,1.9339,1.9424,1.9299,1.9132,1.8738,1.8417,1.8237,1.7829,1.7582,1.7582,1.7582,1.7582,1.7582,1.743,0.0,1.7331,1.7331,1.7331,1.7331,1.7536,0.0,0.0,0.0,0.0,0.0,1.5784,1.5784,1.5784,1.5784,1.5784,1.5784,1.5784,1.5784,1.5784,1.5784,1.5784,1.5784,1.5784,1.5784,1.5784,1.5784,1.5784,1.5784,1.5784,1.5784,1.5784,1.5784,1.5879,1.6021,1.6494,1.7279,1.8102,1.881,1.9534,2.0404,2.1409,2.1641,2.1828,2.2476,2.2608,2.2564,2.253,2.253,2.2353,0.0,0.0,0.0,0.0,0.0,0.0,0.0,1.9715,1.9754,1.9597,0.0,0.0,0.0,0.0,0.0,0.0,0.0,0.0,0.0,0.0,0.0,0.0,0.0,1.8716,1.887,1.9432,1.928,1.8565,1.9027,1.8767,1.8042,1.774,1.7582,1.7582,1.7582,1.7582,1.7582,1.7582,1.7582,1.7582,1.7582,1.7582,1.7582,1.9857,1.8777,1.8175,1.8811,1.8918,1.9018,1.9319,1.9366,1.9424,1.9424,1.9424,1.9145,1.8564,1.8497,1.825,1.7642,1.7589,1.7582,1.7582,1.7582,1.7582,0.0,0.0,1.7582,1.7582,1.7582,1.7582,1.7582,0.0,0.0,1.67,0.0,0.0,1.5784,1.5784,1.5784,1.5784,1.5784,1.5784,1.5784,1.5784,1.5784,1.5784,1.5784,1.5784,1.5784,1.5784,1.5784,1.5784,1.5784,1.5784,1.5784,1.5784,1.5784,1.5784,1.5784,1.5981,1.6407,1.7412,1.8017,1.8834,2.08,2.1454,2.1917,2.2872,2.3047,2.3091,2.3101,2.3091,2.3013,2.2847,2.2803,2.2572,2.1902,0.0,0.0,0.0,0.0,0.0,0.0,1.9606,1.9606,1.9606,0.0,0.0,0.0,0.0,0.0,0.0,0.0,0.0,1.9384,1.9583,0.0,1.9383,1.9638,1.9995,2.0403,2.071,2.0885,2.0834,1.9694,1.9176,1.9124,1.8048,1.7582,1.7582,1.7582,1.7582,1.7582,1.7582,1.7582,1.7582,1.7582,1.7582,1.7582,2.1711,2.0792,2.0096,2.0152,1.9649,1.9259,1.9352,1.9424,1.9424,1.9424,1.9192,1.8918,1.8537,1.849,1.833,0.0,1.7702,1.7582,0.0,1.7582,1.7582,1.7582,1.7582,1.7582,1.7582,1.7582,1.7582,1.7582,0.0,0.0,0.0,1.6106,1.5784,1.5784,1.5784,1.5784,1.5784,1.5784,1.5784,1.5784,1.5784,1.5784,1.5784,1.5784,1.5784,1.5784,1.5784,1.5784,1.5784,1.5784,1.5784,1.5784,1.5784,1.5784,1.5784,1.5784,1.5981,1.6454,1.7584,1.865,1.9749,2.123,2.2138,2.2731,2.3047,2.3091,2.3091,2.3091,2.3091,2.3091,2.3013,2.3013,2.2921,2.2698,0.0,0.0,0.0,0.0,0.0,0.0,2.0186,2.0225,0.0,2.0069,0.0,0.0,0.0,0.0,0.0,0.0,0.0,0.0,2.0957,0.0,2.1648,2.1087,2.1027,2.1452,2.1829,2.2013,2.1962,2.0885,2.0364,2.0313,2.0004,1.9391,1.8715,1.8715,1.8251,1.7582,1.7582,1.7582,1.7582,1.7582,1.7582,1.7582,2.3465,2.2532,2.1796,2.1719,2.0808,2.0104,2.0104,1.9707,1.9325,1.9219,1.9038,1.8771,1.837,1.8323,0.0,1.7896,1.7695,1.7582,1.7582,1.7582,1.7582,1.7582,1.7582,1.7582,1.7582,0.0,0.0,1.7582,1.7361,1.7061,1.6693,1.6106,1.5784,1.5784,1.5784,1.5784,1.5784,1.5784,1.5784,1.5784,1.5784,1.5784,1.5784,1.5784,1.5784,1.5784,1.5784,1.5784,1.5784,1.5784,1.5784,1.5832,1.5927,1.6204,1.6433,1.6069,1.6393,1.7131,1.8365,1.965,2.0836,2.1971,2.2687,2.3091,2.3091,2.3091,2.3091,2.3091,2.3091,2.3091,2.3091,2.3091,2.3091,2.3091,0.0,2.2422,0.0,0.0,0.0,0.0,0.0,0.0,0.0,2.0726,0.0,0.0,0.0,0.0,0.0,0.0,0.0,2.1945,2.2032,0.0,2.3055,2.2659,2.2575,2.2899,2.3065,2.3138,2.3088,2.2013,2.1497,2.1505,2.1089,2.0526,1.9849,1.9849,1.9176,1.8199,1.8199,1.7943,1.7582,1.7582,1.7582,1.7582,2.5183,2.4105,0.0,0.0,2.2338,0.0,2.1202,2.0185,1.9347,1.8931,1.8878,1.8595,1.8049,1.7975,1.7896,1.7609,0.0,0.0,0.0,1.7582,1.7582,1.7582,1.7582,0.0,1.7582,1.7582,1.7582,1.7582,1.7014,1.6727,1.6693,1.6126,1.5798,1.5784,1.5784,1.5784,1.5784,1.5784,1.5784,1.5784,1.5784,1.5784,1.5784,1.5784,1.5784,1.5784,1.5784,1.5784,1.5784,1.5784,1.5784,1.5879,1.617,1.6911,1.7505,1.6588,1.7178,1.8403,1.9658,2.0836,2.1926,2.2872,2.3091,2.3091,2.3091,2.3091,2.3091,2.3091,2.3091,2.3091,2.3091,2.3091,2.3091,2.3091,2.2812,2.2549,2.2519,0.0,0.0,0.0,0.0,0.0,0.0,2.1546,2.1658,0.0,0.0,0.0,0.0,0.0,0.0,2.2308,2.2875,2.3358,2.3766,2.4127,2.438,2.4538,2.4341,2.4202,2.4202,2.3138,2.2627,2.2577,2.1548,2.1089,2.0987,2.0987,2.0313,1.9332,1.9332,1.8715,1.7845,1.774,1.7687,1.7687,0.0,0.0,2.5246,2.4829,2.3727,2.2414,2.1006,2.0583,1.997,1.8742,1.8397,1.8149,1.8009,1.7836,1.7662,1.7589,1.7582,1.7582,1.7582,1.7582,1.7582,1.7582,1.7582,1.7582,1.7582,1.7582,1.7582,1.7582,1.7273,1.6927,1.67,1.6333,1.6046,1.5784,1.5784,1.5784,1.5784,1.5784,1.5784,1.5784,1.5784,1.5784,1.5784,1.5784,1.5784,1.5784,1.5784,1.5784,1.5784,1.5784,1.5784,1.5967,1.677,1.7326,1.7684,1.7584,1.8457,1.965,2.0674,2.132,2.1926,2.2872,2.3091,2.3091,2.3091,2.3091,2.3091,2.3091,2.3091,2.3091,2.3091,2.3091,2.3091,2.3091,2.3013,2.2838,2.2559,0.0,0.0,0.0,2.1792,2.1792,2.1792,2.1792,2.197,0.0,0.0,0.0,0.0,0.0,2.3353,2.3407,2.3731,2.4074,2.4459,2.4374,2.4486,2.4784,2.4538,2.444,2.439,2.3994,2.3795,2.3795,2.3538,2.2929,2.2114,2.2114,2.1497,2.0526,2.0526,2.0313,2.0004,1.9124,1.8819,1.8819,2.8121,2.7466,2.6799,2.6518,2.5038,2.3643,2.2631,2.1759,2.0676,1.9226,1.8881,1.8514,1.7903,1.7682,1.7582,1.7582,1.7582,1.7582,1.7582,1.7582,1.7582,1.7582,1.7582,1.7582,1.7582,1.7582,1.7582,1.7582,1.734,1.7052,1.67,1.6413,1.6112,1.5784,1.5784,1.5784,1.5784,1.5784,1.5784,1.5784,1.5784,1.5784,1.5784,1.5784,1.5784,1.5784,1.5784,1.5784,1.5784,1.5784,1.5784,1.6015,1.7131,1.787,1.8503,1.9276,2.0005,2.0683,2.1311,2.1908,2.2467,2.296,2.3091,2.3091,2.3091,2.3091,2.3091,2.3091,2.3091,2.3091,2.3091,2.3091,2.3091,2.3091,2.3091,2.3013,2.2789,2.275,0.0,2.248,2.2461,2.2461,2.2461,2.2637,2.2852,2.3086,0.0,0.0,2.4053,2.4268,2.4287,2.4082,2.44,2.4646,2.4888,2.4804,2.4869,2.5088,2.4833,2.4686,2.4686,2.4587,2.4498,2.4489,2.439,2.3985,2.3429,2.3338,2.2627,2.165,2.165,2.1344,2.0834,2.021,2.0004,2.0004,2.8291,2.8072,2.7863,2.781,2.6203,2.4782,2.4516,2.3103,2.1559,2.0106,1.9744,1.9173,1.7971,1.7687,1.7582,1.7582,1.7582,1.7582,1.7582,1.7582,1.7582,1.7582,1.7582,1.7582,1.7582,1.7582,1.7582,1.7582,1.7387,1.7092,1.67,1.6453,1.6159,1.5784,1.5784,1.5784,1.5784,1.5784,1.5784,1.5784,1.5784,1.5784,1.5784,1.5784,1.5784,1.5784,1.5784,1.5784,1.5784,1.5784,1.5784,1.6062,1.7412,1.8411,1.9405,2.097,2.1463,2.1578,2.1828,2.2501,2.3091,2.3091,2.3091,2.3091,2.3091,2.3091,2.3091,2.3091,2.3091,2.3091,2.3091,2.3091,2.3091,2.3091,2.3091,2.3091,2.3091,0.0,2.312,2.3188,2.3198,2.3218,2.3276,2.3672,2.3887,2.3887,2.4219,0.0,0.0,2.4863,2.4932,2.4629,2.4971,2.5166,2.5166,2.5295,2.5333,2.5333,2.5088,2.4981,2.4981,2.4932,2.4883,2.4883,2.4637,2.448,2.448,2.4291,2.3646,2.2778,2.2778,2.2215,2.1395,2.1191,2.114,2.114,2.8291,2.8008,2.7649,2.7367,2.675,2.5773,2.423,2.3557,2.2705,2.1261,2.0028,1.9182,1.8975,1.8146,1.7582,1.7582,1.7582,1.7582,1.7582,1.7582,1.7582,1.7582,1.7582,1.7582,1.7582,1.7582,1.7582,1.7582,1.7535,1.7235,1.6707,1.666,1.6346,1.5784,1.5784,1.5784,1.5784,1.5784,1.5784,1.5784,1.5784,1.5784,1.5784,1.5784,1.5784,1.5784,1.5784,1.5784,1.5784,1.5784,1.5784,1.6109,1.8056,1.8872,1.9505,2.1401,2.2264,2.2608,2.2828,2.3003,2.3091,2.3091,2.3091,2.3091,2.3091,2.3091,2.3091,2.3091,2.3091,2.3091,2.3091,2.3091,2.3091,2.3091,2.3091,2.3091,0.0,0.0,2.3227,2.3643,2.3691,2.3828,2.4189,2.4277,2.4316,2.4316,2.4385,2.458,2.4951,2.5077,2.5215,2.5479,2.5547,2.5635,2.5635,2.5654,2.5635,2.5635,2.5391,2.5235,2.5235,2.4981,2.4883,2.4883,2.4637,2.448,2.448,2.4291,2.4102,2.3945,2.3945,2.3845,2.3587,2.2627,2.2274,2.2274,2.7998,2.7855,2.7588,2.7189,2.6637,2.5987,2.5172,2.4597,2.3767,2.2367,2.1625,2.07,1.9324,1.8767,1.8251,1.7635,1.7582,1.7582,1.7582,1.7582,1.7582,1.7582,1.7582,1.7582,1.7582,1.7582,1.7582,1.7582,1.7582,1.7281,1.6707,1.6707,1.6393,1.5784,1.5784,1.5784,1.5784,1.5784,1.5784,1.5784,1.5784,1.5784,1.5784,1.5784,1.5784,1.5784,1.5784,1.5784,1.5784,1.5784,1.6157,1.6857,1.8334,1.9239,2.0059,2.1633,2.2451,2.2838,2.3057,2.3091,2.3091,2.3091,2.3091,2.3159,2.3437,2.3486,2.3555,2.3779,2.3783,2.3783,2.3783,2.3783,2.3783,2.3783,2.3783,0.0,0.0,2.3783,2.3896,2.4102,2.4121,2.4209,2.4394,2.4629,2.4766,2.4766,2.499,2.5167,2.542,2.543,2.5527,2.5684,2.5693,2.5693,2.5693,2.5693,2.5693,2.5693,2.5586,2.5538,2.5489,2.5391,2.5333,2.5333,2.5039,2.4932,2.4883,2.4538,2.4341,2.4341,2.4251,2.4202,2.4152,2.3596,2.3438,2.3438,2.7598,2.7441,2.7266,2.6924,2.6363,2.5932,2.5932,2.5397,2.4627,2.3601,2.3144,2.2173,2.0246,1.979,1.928,1.8461,1.8094,1.7996,1.7996,1.774,1.7582,1.7582,1.7582,1.7582,1.7582,1.7582,1.7582,1.7582,1.7582,1.7315,1.6807,1.674,1.6426,1.5925,1.5811,1.5784,1.5784,1.5784,1.5784,1.5784,1.5784,1.5784,1.5784,1.5784,1.5784,1.5784,1.5784,1.5784,1.5784,1.5784,1.6487,1.7466,1.8473,1.9476,2.0529,2.1678,2.2362,2.275,2.3047,2.3091,2.312,2.3218,2.3247,2.3364,2.3838,2.3935,2.4033,2.4346,2.4414,2.4414,2.4414,2.4414,2.4414,2.4414,0.0,0.0,0.0,2.4414,2.4453,2.456,2.457,2.4609,2.467,2.5029,2.5225,2.5225,2.5547,2.5693,2.5693,2.5693,2.5693,2.5693,2.5693,2.5693,2.5693,2.5693,2.5693,2.5693,2.5693,2.5693,2.5693,2.5693,2.5693,2.5693,2.544,2.5284,2.5235,2.4784,2.4578,2.448,2.4341,2.4251,2.4202,2.4202,2.4202,2.4202,2.7148,2.6748,2.6465,2.6435,2.6025,2.5732,2.5732,2.5459,2.5235,2.5137,2.3809,2.2835,2.2634,2.1532,2.0731,2.068,1.9694,1.9072,1.9072,1.8146,1.7582,1.7582,1.7582,1.7582,1.7582,1.7582,1.7582,1.7582,1.7582,1.7474,1.7166,1.6834,1.654,1.6226,1.5952,1.5784,1.5784,1.5784,1.5784,1.5784,1.5784,1.5784,1.5784,1.5784,1.5784,1.5784,1.5784,1.5784,1.5784,1.5784,1.6487,1.7466,1.8473,1.9476,2.0484,2.1463,2.2043,2.253,2.296,2.3091,2.3188,2.3643,2.374,2.3857,2.4277,2.4375,2.4375,2.4414,2.4414,2.4414,2.4414,2.4414,2.4414,2.4414,0.0,0.0,2.4414,2.4414,2.456,2.5018,2.5067,2.5185,2.5557,2.5625,2.5635,2.5635,2.5674,2.5693,2.5693,2.5693,2.5693,2.5693,2.5693,2.5693,2.5693,2.5693,2.5693,2.5693,2.5693,2.5693,2.5693,2.5693,2.5693,2.5693,2.544,2.5284,2.5284,2.499,2.4735,2.448,2.448,2.4341,2.4202,2.4202,2.4202,2.4202,2.6709,2.6494,2.6309,2.6035,2.5801,2.5693,2.5693,2.5586,2.5489,2.5333,2.4775,2.4007,2.2994,2.2442,2.1785,2.0987,1.9849,1.9487,2.021,1.9235,1.8304,1.7635,1.7582,1.7582,1.7582,1.7582,1.7582,1.7582,1.7582,1.7435,1.7192,1.6847,1.6553,1.6308,1.5965,1.5784,1.5784,1.5784,1.5784,1.5784,1.5784,1.5784,1.5784,1.5784,1.5784,1.5784,1.5784,1.5784,1.592,1.6534,1.7412,1.8427,1.943,2.0393,2.132,2.1954,2.2264,2.2587,2.3334,2.3545,2.3584,2.375,2.3984,2.4297,2.4717,2.4814,2.4893,2.5128,2.5187,2.5187,2.5187,2.5187,2.5187,2.5187,0.0,2.5187,2.5187,2.5187,2.5245,2.5459,2.5478,2.5547,2.5674,2.5693,2.5693,2.5693,2.5693,2.5693,2.5693,2.5693,2.5693,2.5693,2.5693,2.5693,2.5693,2.5693,2.5693,2.5693,2.5693,2.5693,2.5693,2.5693,2.5693,2.5684,2.5586,2.5538,2.5538,2.5235,2.4981,2.4735,2.4578,2.439,2.4202,2.4202,2.4202,2.4202,2.6269,2.6182,2.6094,2.5742,2.5693,2.5693,2.5693,2.5693,2.5635,2.544,2.5333,2.4873,2.375,2.3601,2.3103,2.2097,2.1022,2.0664,2.1344,2.0364,1.9228,1.8146,1.7786,1.7582,1.7582,1.7582,1.7582,1.7582,1.7582,1.7534,1.7333,1.6981,1.6687,1.6393,1.6099,1.5919,1.5784,1.5784,1.5784,1.5784,1.5784,1.5784,1.5784,1.5784,1.5784,1.5784,1.5784,1.5784,1.5967,1.6958,1.7971,1.8972,1.9977,2.0943,2.1776,2.2264,2.2482,2.2786,2.3576,2.3984,2.4189,2.4189,2.4404,2.4736,2.5176,2.5283,2.5361,2.5625,2.5693,2.5693,2.5693,2.5693,2.5693,2.5693,2.5693,2.5693,2.5693,2.5693,2.5693,2.5693,2.5693,2.5693,2.5693,2.5693,2.5693,2.5693,2.5693,2.5693,2.5693,2.5693,2.5693,2.5693,2.5693,2.5693,2.5693,2.5693,2.5693,2.5693,2.5693,2.5693,2.5693,2.5693,2.5693,2.5693,2.5693,2.5635,2.5586,2.5489,2.5186,2.4784,2.4686,2.444,2.4202,2.4202,2.4202,2.4183,2.5771,2.5693,2.5693,2.5693,2.5693,2.5693,2.5693,2.5693,2.5693,2.5693,2.5489,2.5284,2.5284,2.5088,2.4784,2.4538,2.3502,2.2793,2.2526,2.1497,2.0416,1.928,1.8199,1.7635,1.7582,1.7582,1.7582,1.7582,1.7582,1.7582,1.7575,1.734,1.7038,1.6693,1.64,1.6112,1.5784,1.5784,1.5784,1.5784,1.5784,1.5784,1.5784,1.5784,1.5784,1.5784,1.5784,1.5784,1.5967,1.6951,1.7971,1.8972,1.9977,2.0943,2.1785,2.2264,2.2744,2.3202,2.3664,2.4424,2.5116,2.5116,2.5116,2.5195,2.5586,2.5693,2.5693,2.5693,2.5693,2.5693,2.5693,2.5693,2.5693,2.5693,2.5693,2.5693,2.5693,2.5693,2.5693,2.5693,2.5693,2.5693,2.5693,2.5693,2.5693,2.5693,2.5693,2.5693,2.5693,2.5693,2.5693,2.5693,2.5693,2.5693,2.5693,2.5693,2.5693,2.5693,2.5693,2.5693,2.5693,2.5693,2.5693,2.5693,2.5693,2.5538,2.5333,2.5586,2.5235,2.4529,2.4784,2.4637,2.4202,2.4202,2.4202,2.4137,2.5713,2.5693,2.5693,2.5693,2.5693,2.5693,2.5693,2.5693,2.5693,2.5693,2.5635,2.5489,2.5333,2.5235,2.5079,2.4784,2.3809,2.3094,2.2802,2.2308,2.1861,2.1548,1.9746,1.8356,1.7635,1.7582,1.7582,1.7582,1.7582,1.7582,1.7575,1.734,1.7152,1.7045,1.6543,1.6226,1.6126,1.5919,1.5784,1.5784,1.5784,1.5784,1.5784,1.5784,1.5784,1.5784,1.5784,1.5784,1.6062,1.7777,1.8565,1.9109,2.0772,2.1597,2.2108,2.2702,2.3098,2.3508,2.4475,2.492,2.5116,2.5116,2.5303,2.5566,2.5664,2.5693,2.5693,2.5693,2.5693,2.5693,2.5693,2.5693,2.5693,2.5693,2.5693,2.5693,2.5693,2.5693,2.5693,2.5693,2.5693,2.5693,2.5693,2.5693,2.5693,2.5693,2.5693,2.5693,2.5693,2.5693,2.5693,2.5693,2.5693,2.5693,2.5693,2.5693,2.5693,2.5693,2.5693,2.5693,2.5693,2.5693,2.5693,2.5693,2.5693,2.5635,2.5586,2.5693,2.544,2.5088,2.5137,2.4883,2.439,2.439,2.4341,2.4137,2.5693,2.5693,2.5693,2.5693,2.5693,2.5693,2.5693,2.5693,2.5693,2.5693,2.5693,2.5635,2.5489,2.544,2.5333,2.5088,2.4372,2.3809,2.3552,2.337,2.3029,2.2526,2.1234,2.0004,1.8923,1.893,1.893,1.893,1.893,1.8662,1.8244,1.8064,1.7719,1.7186,1.6831,1.6603,1.6426,1.6132,1.6005,1.5999,1.5831,1.5784,1.5784,1.5784,1.5784,1.5784,1.5784,1.6062,1.6622,1.8241,1.9293,2.0167,2.132,2.1931,2.2295,2.29,2.3395,2.3951,2.4884,2.5195,2.5332,2.5332,2.5537,2.5693,2.5693,2.5693,2.5693,2.5693,2.5693,2.5693,2.5693,2.5693,2.5693,2.5693,2.5693,2.5693,2.5693,2.5693,2.5693,2.5693,2.5693,2.5693,2.5693,2.5693,2.5693,2.5693,2.5693,2.5693,2.5693,2.5693,2.5693,2.5693,2.5693,2.5693,2.5693,2.5693,2.5693,2.5693,2.5693,2.5693,2.5693,2.5693,2.5693,2.5693,2.5693,2.5635,2.5538,2.5635,2.5489,2.5137,2.5235,2.5039,2.4686,2.4686,2.4387,2.4005,2.5693,2.5693,2.5693,2.5693,2.5693,2.5693,2.5693,2.5693,2.5693,2.5693,2.5693,2.5693,2.5693,2.5693,2.5586,2.5333,2.5079,2.4833,2.4529,2.4529,2.3935,2.2728,2.2627,2.2165,2.1242,2.0987,2.0885,2.0885,2.0885,2.0364,1.9332,1.9332,1.8713,1.7541,1.7411,1.7248,1.7021,1.6531,1.6459,1.6627,1.6204,1.6075,1.6096,1.6096,1.6035,1.5967,1.6062,1.6581,1.7466,1.8565,2.0175,2.1696,2.1733,2.2034,2.2437,2.3024,2.372,2.4479,2.4975,2.543,2.5693,2.5693,2.5693,2.5693,2.5693,2.5693,2.5693,2.5693,2.5693,2.5693,2.5693,2.5693,2.5693,2.5693,2.5693,2.5693,2.5693,2.5693,2.5693,2.5693,2.5693,2.5693,2.5693,2.5693,2.5693,2.5693,2.5693,2.5693,2.5693,2.5693,2.5693,2.5693,2.5693,2.5693,2.5693,2.5693,2.5693,2.5693,2.5693,2.5693,2.5693,2.5693,2.5693,2.5693,2.5693,2.5538,2.5333,2.5586,2.543,2.4981,2.5235,2.5137,2.4883,2.4883,2.4482,2.3819,2.5732,2.5693,2.5693,2.5693,2.5693,2.5693,2.5693,2.5693,2.5693,2.5693,2.5693,2.5693,2.5693,2.5693,2.5684,2.5635,2.5391,2.5088,2.4833,2.4637,2.4282,2.3845,2.3845,2.3746,2.3488,2.1802,2.0885,2.0885,2.0885,2.0783,2.0518,2.0518,2.0377,2.0043,1.8971,1.8867,1.9472,1.747,1.7591,1.9143,1.8191,1.8152,1.8619,1.8619,1.7948,1.7091,1.787,1.7777,1.7552,1.9384,2.0718,2.1751,2.2053,2.2345,2.2778,2.3758,2.4326,2.4737,2.5402,2.5615,2.5693,2.5693,2.5693,2.5693,2.5693,2.5693,2.5693,2.5693,2.5693,2.5693,2.5693,2.5693,2.5693,2.5693,2.5693,2.5693,2.5693,2.5693,2.5693,2.5693,2.5693,2.5693,2.5693,2.5693,2.5693,2.5693,2.5693,2.5693,2.5693,2.5693,2.5693,2.5693,2.5693,2.5693,2.5693,2.5693,2.5693,2.5693,2.5693,2.5693,2.5693,2.5693,2.5693,2.5693,2.5693,2.5693,2.5635,2.5684,2.5635,2.5538,2.5586,2.5333,2.4883,2.4883,2.4326,2.3485,2.5917,2.5781,2.5693,2.5693,2.5693,2.5693,2.5693,2.5693,2.5693,2.5693,2.5693,2.5693,2.5693,2.5693,2.5693,2.5693,2.5586,2.5382,2.5088,2.4833,2.4587,2.4341,2.4251,2.4202,2.4202,2.3079,2.2459,2.2459,2.2459,2.2215,2.1658,2.1658,2.1395,2.0877,2.0135,2.0101,2.0533,1.9087,1.9143,2.0124,1.9419,1.9386,1.9702,1.9702,1.9216,1.8617,1.8957,1.8931,1.8996,2.0692,2.159,2.2044,2.2446,2.2805,2.3223,2.3907,2.441,2.4909,2.5382,2.5586,2.5693,2.5693,2.5693,2.5693,2.5693,2.5693,2.5693,2.5693,2.5693,2.5693,2.5693,2.5693,2.5693,2.5693,2.5693,2.5693,2.5693,2.5693,2.5693,2.5693,2.5693,2.5693,2.5693,2.5693,2.5693,2.5693,2.5693,2.5693,2.5693,2.5693,2.5693,2.5693,2.5693,2.5693,2.5693,2.5693,2.5693,2.5693,2.5693,2.5693,2.5693,2.5693,2.5693,2.5693,2.5693,2.5693,2.5693,2.5693,2.5693,2.5693,2.5693,2.5538,2.5255,2.5054,2.4336,2.3336,2.6562,2.6235,2.5965,2.5965,2.5965,2.5917,2.5732,2.5868,2.5868,2.5732,2.5693,2.5693,2.5693,2.5693,2.5693,2.5693,2.5693,2.5586,2.5333,2.5079,2.4833,2.4529,2.4341,2.4251,2.4202,2.4202,2.4202,2.4202,2.4202,2.3696,2.2778,2.2778,2.2316,2.1446,2.1242,2.1293,2.1422,2.0777,2.0698,2.1023,2.0581,2.0476,2.0613,2.0613,2.0475,2.024,2.0074,2.0332,2.0909,2.2034,2.2391,2.2455,2.2876,2.3281,2.3653,2.3968,2.4521,2.5039,2.5284,2.5538,2.5693,2.5693,2.5693,2.5693,2.5693,2.5693,2.5693,2.5693,2.5693,2.5693,2.5693,2.5693,2.5693,2.5693,2.5693,2.5693,2.5693,2.5693,2.5693,2.5693,2.5693,2.5693,2.5693,2.5693,2.5693,2.5693,2.5693,2.5693,2.5693,2.5693,2.5693,2.5693,2.5693,2.5693,2.5693,2.5693,2.5693,2.5693,2.5693,2.5693,2.5693,2.5693,2.5693,2.5693,2.5693,2.5693,2.5693,2.5693,2.5693,2.5693,2.5693,2.5684,2.5577,2.5051,2.4222,2.3226,2.8448,2.7615,2.701,2.701,2.701,2.6686,2.582,2.6418,2.6686,2.583,2.5693,2.5693,2.5693,2.5693,2.5693,2.5693,2.5693,2.5586,2.5333,2.5284,2.503,2.4529,2.4489,2.439,2.4202,2.4202,2.4202,2.4202,2.4202,2.4102,2.3954,2.3954,2.3895,2.3687,2.2728,2.2828,2.3637,2.1643,2.1929,2.3606,2.2598,2.2522,2.3021,2.3021,2.2316,2.1379,2.2162,2.2494,2.2561,2.2756,2.2821,2.2895,2.3288,2.3597,2.3959,2.4596,2.4992,2.5284,2.5586,2.5684,2.5693,2.5693,2.5693,2.5693,2.5693,2.5693,2.5693,2.5693,2.5693,2.5693,2.5693,2.5693,2.5693,2.5693,2.5693,2.5693,2.5693,2.5693,2.5693,2.5693,2.5693,2.5693,2.5693,2.5693,2.5693,2.5693,2.5693,2.5693,2.5693,2.5693,2.5693,2.5693,2.5693,2.5693,2.5693,2.5693,2.5693,2.5693,2.5693,2.5693,2.5693,2.5693,2.5693,2.5693,2.5693,2.5693,2.5693,2.5693,2.5693,2.5693,2.5693,2.5538,2.5237,2.424,2.3547,2.2991,2.9177,2.8623,2.8168,2.8075,2.8028,2.7709,2.6696,2.6914,2.6819,2.582,2.5693,2.5693,2.5693,2.5693,2.5693,2.5693,2.5693,2.5645,2.5538,2.5382,2.5186,2.4981,2.4784,2.4587,2.439,2.439,2.4291,2.4202,2.4202,2.4202,2.4202,2.4202,2.4202,2.4202,2.3696,2.3746,2.4152,2.3179,2.3338,2.4152,2.3646,2.3638,2.3877,2.3877,2.3523,2.3041,2.3172,2.3096,2.294,2.316,2.3233,2.3306,2.3758,2.3984,2.4119,2.4442,2.4794,2.5088,2.5235,2.5489,2.5693,2.5693,2.5693,2.5693,2.5693,2.5693,2.5693,2.5693,2.5693,2.5693,2.5693,2.5693,2.5693,2.5693,2.5693,2.5693,2.5693,2.5693,2.5693,2.5693,2.5693,2.5693,2.5693,2.5693,2.5693,2.5693,2.5693,2.5693,2.5693,2.5693,2.5693,2.5693,2.5693,2.5693,2.5693,2.5693,2.5693,2.5693,2.5693,2.5693,2.5693,2.5693,2.5693,2.5693,2.5693,2.5693,2.5693,2.5693,2.5693,2.5693,2.5693,2.5333,2.4762,2.4282,2.3631,2.299]}]]